<?xml version="1.0" encoding="UTF-8" standalone="no" ?>
<gpx xmlns="http://www.topografix.com/GPX/1/1" xmlns:xsi="http://www.w3.org/2001/XMLSchema-instance" xsi:schemaLocation="http://www.topografix.com/GPX/1/1 http://www.topografix.com/GPX/1/1/gpx.xsd" version="1.1" creator="VisuGPX - https://www.visugpx.com">
  <metadata>
    <name>Gattiéres - Mont Péloua</name>
    <desc><![CDATA[Départ de Gattiere pour l'ascention du mont Péloua. Retour par le Jas Jausserand, la Colle, Gattiéres.]]></desc>
  </metadata>
  <trk>
    <name><![CDATA[2009-02-21-01 gattiere peoula]]></name>
    <trkseg>
      <trkpt lat="43.76212" lon="7.17508">
        <ele>263.5</ele>
        <time>2009-02-21T08:09:21Z</time>
      </trkpt>
      <trkpt lat="43.76212" lon="7.17508">
        <ele>263.5</ele>
        <time>2013-03-23T08:09:21Z</time>
      </trkpt>
      <trkpt lat="43.76212" lon="7.17508">
        <ele>263.5</ele>
        <time>2013-03-23T08:09:21Z</time>
      </trkpt>
      <trkpt lat="43.7622" lon="7.17504">
        <ele>265.6</ele>
        <time>2013-03-23T08:22:06Z</time>
      </trkpt>
      <trkpt lat="43.76221" lon="7.17502">
        <ele>265.7</ele>
        <time>2013-03-23T08:22:07Z</time>
      </trkpt>
      <trkpt lat="43.76203" lon="7.17507">
        <ele>265.7</ele>
        <time>2013-03-23T08:22:48Z</time>
      </trkpt>
      <trkpt lat="43.762" lon="7.17515">
        <ele>265.3</ele>
        <time>2013-03-23T08:22:51Z</time>
      </trkpt>
      <trkpt lat="43.76194" lon="7.17521">
        <ele>264.9</ele>
        <time>2013-03-23T08:22:56Z</time>
      </trkpt>
      <trkpt lat="43.76187" lon="7.17528">
        <ele>264.1</ele>
        <time>2013-03-23T08:23:01Z</time>
      </trkpt>
      <trkpt lat="43.7618" lon="7.17535">
        <ele>263.8</ele>
        <time>2013-03-23T08:23:06Z</time>
      </trkpt>
      <trkpt lat="43.76173" lon="7.17531">
        <ele>263</ele>
        <time>2013-03-23T08:23:10Z</time>
      </trkpt>
      <trkpt lat="43.76172" lon="7.1753">
        <ele>263.2</ele>
        <time>2013-03-23T08:23:11Z</time>
      </trkpt>
      <trkpt lat="43.76161" lon="7.17517">
        <ele>264</ele>
        <time>2013-03-23T08:23:18Z</time>
      </trkpt>
      <trkpt lat="43.76154" lon="7.17512">
        <ele>264.6</ele>
        <time>2013-03-23T08:23:22Z</time>
      </trkpt>
      <trkpt lat="43.76147" lon="7.17507">
        <ele>264.7</ele>
        <time>2013-03-23T08:23:26Z</time>
      </trkpt>
      <trkpt lat="43.7614" lon="7.17502">
        <ele>265.8</ele>
        <time>2013-03-23T08:23:30Z</time>
      </trkpt>
      <trkpt lat="43.76131" lon="7.17499">
        <ele>265.6</ele>
        <time>2013-03-23T08:23:34Z</time>
      </trkpt>
      <trkpt lat="43.76124" lon="7.17497">
        <ele>267</ele>
        <time>2013-03-23T08:23:37Z</time>
      </trkpt>
      <trkpt lat="43.76117" lon="7.17496">
        <ele>267.2</ele>
        <time>2013-03-23T08:23:40Z</time>
      </trkpt>
      <trkpt lat="43.76109" lon="7.17495">
        <ele>267.1</ele>
        <time>2013-03-23T08:23:44Z</time>
      </trkpt>
      <trkpt lat="43.761" lon="7.17496">
        <ele>267</ele>
        <time>2013-03-23T08:23:48Z</time>
      </trkpt>
      <trkpt lat="43.76093" lon="7.17498">
        <ele>267.6</ele>
        <time>2013-03-23T08:23:52Z</time>
      </trkpt>
      <trkpt lat="43.76086" lon="7.17504">
        <ele>268.6</ele>
        <time>2013-03-23T08:23:56Z</time>
      </trkpt>
      <trkpt lat="43.7608" lon="7.17512">
        <ele>269.2</ele>
        <time>2013-03-23T08:24:00Z</time>
      </trkpt>
      <trkpt lat="43.76075" lon="7.17522">
        <ele>269.1</ele>
        <time>2013-03-23T08:24:04Z</time>
      </trkpt>
      <trkpt lat="43.7607" lon="7.17531">
        <ele>269.8</ele>
        <time>2013-03-23T08:24:08Z</time>
      </trkpt>
      <trkpt lat="43.76064" lon="7.17541">
        <ele>270.2</ele>
        <time>2013-03-23T08:24:12Z</time>
      </trkpt>
      <trkpt lat="43.76063" lon="7.17544">
        <ele>270.5</ele>
        <time>2013-03-23T08:24:13Z</time>
      </trkpt>
      <trkpt lat="43.76054" lon="7.17561">
        <ele>270.9</ele>
        <time>2013-03-23T08:24:20Z</time>
      </trkpt>
      <trkpt lat="43.76049" lon="7.1757">
        <ele>270.5</ele>
        <time>2013-03-23T08:24:24Z</time>
      </trkpt>
      <trkpt lat="43.76045" lon="7.17579">
        <ele>271.4</ele>
        <time>2013-03-23T08:24:28Z</time>
      </trkpt>
      <trkpt lat="43.7604" lon="7.17585">
        <ele>273.2</ele>
        <time>2013-03-23T08:24:31Z</time>
      </trkpt>
      <trkpt lat="43.76036" lon="7.1759">
        <ele>273.8</ele>
        <time>2013-03-23T08:24:33Z</time>
      </trkpt>
      <trkpt lat="43.76031" lon="7.17595">
        <ele>273.6</ele>
        <time>2013-03-23T08:24:36Z</time>
      </trkpt>
      <trkpt lat="43.76025" lon="7.176">
        <ele>273.5</ele>
        <time>2013-03-23T08:24:39Z</time>
      </trkpt>
      <trkpt lat="43.76016" lon="7.17603">
        <ele>274.5</ele>
        <time>2013-03-23T08:24:43Z</time>
      </trkpt>
      <trkpt lat="43.76011" lon="7.17595">
        <ele>275.3</ele>
        <time>2013-03-23T08:24:47Z</time>
      </trkpt>
      <trkpt lat="43.76014" lon="7.17583">
        <ele>274.4</ele>
        <time>2013-03-23T08:24:51Z</time>
      </trkpt>
      <trkpt lat="43.76018" lon="7.17575">
        <ele>274.3</ele>
        <time>2013-03-23T08:24:54Z</time>
      </trkpt>
      <trkpt lat="43.76021" lon="7.17566">
        <ele>275.5</ele>
        <time>2013-03-23T08:24:57Z</time>
      </trkpt>
      <trkpt lat="43.76024" lon="7.17556">
        <ele>276.3</ele>
        <time>2013-03-23T08:25:00Z</time>
      </trkpt>
      <trkpt lat="43.76028" lon="7.17546">
        <ele>276.1</ele>
        <time>2013-03-23T08:25:03Z</time>
      </trkpt>
      <trkpt lat="43.76032" lon="7.17537">
        <ele>276.3</ele>
        <time>2013-03-23T08:25:06Z</time>
      </trkpt>
      <trkpt lat="43.76036" lon="7.17528">
        <ele>275.6</ele>
        <time>2013-03-23T08:25:09Z</time>
      </trkpt>
      <trkpt lat="43.7604" lon="7.17518">
        <ele>275.8</ele>
        <time>2013-03-23T08:25:12Z</time>
      </trkpt>
      <trkpt lat="43.76043" lon="7.17509">
        <ele>276.2</ele>
        <time>2013-03-23T08:25:15Z</time>
      </trkpt>
      <trkpt lat="43.76045" lon="7.17506">
        <ele>276.3</ele>
        <time>2013-03-23T08:25:16Z</time>
      </trkpt>
      <trkpt lat="43.76051" lon="7.17491">
        <ele>276.8</ele>
        <time>2013-03-23T08:25:21Z</time>
      </trkpt>
      <trkpt lat="43.76054" lon="7.17482">
        <ele>276.8</ele>
        <time>2013-03-23T08:25:24Z</time>
      </trkpt>
      <trkpt lat="43.76058" lon="7.17473">
        <ele>277</ele>
        <time>2013-03-23T08:25:27Z</time>
      </trkpt>
      <trkpt lat="43.76061" lon="7.17464">
        <ele>277.4</ele>
        <time>2013-03-23T08:25:30Z</time>
      </trkpt>
      <trkpt lat="43.76065" lon="7.17455">
        <ele>277.8</ele>
        <time>2013-03-23T08:25:33Z</time>
      </trkpt>
      <trkpt lat="43.76069" lon="7.17447">
        <ele>278.2</ele>
        <time>2013-03-23T08:25:36Z</time>
      </trkpt>
      <trkpt lat="43.76074" lon="7.17439">
        <ele>278.7</ele>
        <time>2013-03-23T08:25:39Z</time>
      </trkpt>
      <trkpt lat="43.7608" lon="7.17434">
        <ele>278.9</ele>
        <time>2013-03-23T08:25:42Z</time>
      </trkpt>
      <trkpt lat="43.76087" lon="7.17432">
        <ele>279.1</ele>
        <time>2013-03-23T08:25:45Z</time>
      </trkpt>
      <trkpt lat="43.76094" lon="7.17431">
        <ele>278.9</ele>
        <time>2013-03-23T08:25:48Z</time>
      </trkpt>
      <trkpt lat="43.76101" lon="7.17431">
        <ele>279.6</ele>
        <time>2013-03-23T08:25:51Z</time>
      </trkpt>
      <trkpt lat="43.76108" lon="7.17431">
        <ele>279</ele>
        <time>2013-03-23T08:25:54Z</time>
      </trkpt>
      <trkpt lat="43.76115" lon="7.17431">
        <ele>279.2</ele>
        <time>2013-03-23T08:25:57Z</time>
      </trkpt>
      <trkpt lat="43.76123" lon="7.17431">
        <ele>279.7</ele>
        <time>2013-03-23T08:26:00Z</time>
      </trkpt>
      <trkpt lat="43.76131" lon="7.17431">
        <ele>280.3</ele>
        <time>2013-03-23T08:26:03Z</time>
      </trkpt>
      <trkpt lat="43.76139" lon="7.17431">
        <ele>280.4</ele>
        <time>2013-03-23T08:26:06Z</time>
      </trkpt>
      <trkpt lat="43.76146" lon="7.1743">
        <ele>280</ele>
        <time>2013-03-23T08:26:09Z</time>
      </trkpt>
      <trkpt lat="43.76154" lon="7.17429">
        <ele>279.9</ele>
        <time>2013-03-23T08:26:12Z</time>
      </trkpt>
      <trkpt lat="43.76161" lon="7.17428">
        <ele>280.1</ele>
        <time>2013-03-23T08:26:15Z</time>
      </trkpt>
      <trkpt lat="43.76169" lon="7.17426">
        <ele>280.5</ele>
        <time>2013-03-23T08:26:18Z</time>
      </trkpt>
      <trkpt lat="43.76171" lon="7.17426">
        <ele>280.6</ele>
        <time>2013-03-23T08:26:19Z</time>
      </trkpt>
      <trkpt lat="43.76184" lon="7.17424">
        <ele>281.1</ele>
        <time>2013-03-23T08:26:24Z</time>
      </trkpt>
      <trkpt lat="43.76191" lon="7.17423">
        <ele>280.9</ele>
        <time>2013-03-23T08:26:27Z</time>
      </trkpt>
      <trkpt lat="43.76198" lon="7.17421">
        <ele>280.8</ele>
        <time>2013-03-23T08:26:30Z</time>
      </trkpt>
      <trkpt lat="43.76206" lon="7.17419">
        <ele>280.9</ele>
        <time>2013-03-23T08:26:33Z</time>
      </trkpt>
      <trkpt lat="43.76214" lon="7.17419">
        <ele>281.2</ele>
        <time>2013-03-23T08:26:36Z</time>
      </trkpt>
      <trkpt lat="43.76221" lon="7.17418">
        <ele>282</ele>
        <time>2013-03-23T08:26:39Z</time>
      </trkpt>
      <trkpt lat="43.76229" lon="7.17419">
        <ele>281.8</ele>
        <time>2013-03-23T08:26:42Z</time>
      </trkpt>
      <trkpt lat="43.76237" lon="7.17422">
        <ele>282</ele>
        <time>2013-03-23T08:26:45Z</time>
      </trkpt>
      <trkpt lat="43.76244" lon="7.17425">
        <ele>282.1</ele>
        <time>2013-03-23T08:26:48Z</time>
      </trkpt>
      <trkpt lat="43.76254" lon="7.17431">
        <ele>282</ele>
        <time>2013-03-23T08:26:52Z</time>
      </trkpt>
      <trkpt lat="43.7626" lon="7.17435">
        <ele>282.4</ele>
        <time>2013-03-23T08:26:55Z</time>
      </trkpt>
      <trkpt lat="43.76267" lon="7.1744">
        <ele>282.5</ele>
        <time>2013-03-23T08:26:58Z</time>
      </trkpt>
      <trkpt lat="43.76274" lon="7.17444">
        <ele>283.7</ele>
        <time>2013-03-23T08:27:01Z</time>
      </trkpt>
      <trkpt lat="43.76281" lon="7.17448">
        <ele>283.6</ele>
        <time>2013-03-23T08:27:04Z</time>
      </trkpt>
      <trkpt lat="43.76288" lon="7.17453">
        <ele>283.8</ele>
        <time>2013-03-23T08:27:07Z</time>
      </trkpt>
      <trkpt lat="43.76295" lon="7.17456">
        <ele>284.5</ele>
        <time>2013-03-23T08:27:10Z</time>
      </trkpt>
      <trkpt lat="43.76301" lon="7.1746">
        <ele>284.6</ele>
        <time>2013-03-23T08:27:13Z</time>
      </trkpt>
      <trkpt lat="43.7631" lon="7.17459">
        <ele>284.6</ele>
        <time>2013-03-23T08:27:17Z</time>
      </trkpt>
      <trkpt lat="43.76316" lon="7.17451">
        <ele>285</ele>
        <time>2013-03-23T08:27:21Z</time>
      </trkpt>
      <trkpt lat="43.76317" lon="7.17449">
        <ele>285.3</ele>
        <time>2013-03-23T08:27:22Z</time>
      </trkpt>
      <trkpt lat="43.76328" lon="7.17437">
        <ele>287.7</ele>
        <time>2013-03-23T08:27:30Z</time>
      </trkpt>
      <trkpt lat="43.76334" lon="7.17428">
        <ele>287.6</ele>
        <time>2013-03-23T08:27:35Z</time>
      </trkpt>
      <trkpt lat="43.76339" lon="7.17419">
        <ele>288.5</ele>
        <time>2013-03-23T08:27:40Z</time>
      </trkpt>
      <trkpt lat="43.76344" lon="7.17408">
        <ele>290.4</ele>
        <time>2013-03-23T08:27:45Z</time>
      </trkpt>
      <trkpt lat="43.76348" lon="7.17398">
        <ele>291.3</ele>
        <time>2013-03-23T08:27:50Z</time>
      </trkpt>
      <trkpt lat="43.76352" lon="7.17389">
        <ele>292.4</ele>
        <time>2013-03-23T08:27:55Z</time>
      </trkpt>
      <trkpt lat="43.76357" lon="7.1738">
        <ele>294.2</ele>
        <time>2013-03-23T08:28:00Z</time>
      </trkpt>
      <trkpt lat="43.76362" lon="7.17372">
        <ele>294.6</ele>
        <time>2013-03-23T08:28:05Z</time>
      </trkpt>
      <trkpt lat="43.76367" lon="7.17363">
        <ele>295.9</ele>
        <time>2013-03-23T08:28:10Z</time>
      </trkpt>
      <trkpt lat="43.76371" lon="7.17354">
        <ele>296.2</ele>
        <time>2013-03-23T08:28:15Z</time>
      </trkpt>
      <trkpt lat="43.76375" lon="7.17345">
        <ele>298.5</ele>
        <time>2013-03-23T08:28:20Z</time>
      </trkpt>
      <trkpt lat="43.76381" lon="7.17335">
        <ele>298.1</ele>
        <time>2013-03-23T08:28:25Z</time>
      </trkpt>
      <trkpt lat="43.76382" lon="7.17333">
        <ele>298.3</ele>
        <time>2013-03-23T08:28:26Z</time>
      </trkpt>
      <trkpt lat="43.7639" lon="7.17319">
        <ele>299.8</ele>
        <time>2013-03-23T08:28:33Z</time>
      </trkpt>
      <trkpt lat="43.76397" lon="7.17314">
        <ele>300.7</ele>
        <time>2013-03-23T08:28:37Z</time>
      </trkpt>
      <trkpt lat="43.76404" lon="7.1731">
        <ele>300.5</ele>
        <time>2013-03-23T08:28:41Z</time>
      </trkpt>
      <trkpt lat="43.7641" lon="7.17305">
        <ele>302.3</ele>
        <time>2013-03-23T08:28:45Z</time>
      </trkpt>
      <trkpt lat="43.76416" lon="7.17299">
        <ele>302.6</ele>
        <time>2013-03-23T08:28:49Z</time>
      </trkpt>
      <trkpt lat="43.76422" lon="7.17293">
        <ele>302.8</ele>
        <time>2013-03-23T08:28:53Z</time>
      </trkpt>
      <trkpt lat="43.7643" lon="7.17287">
        <ele>304</ele>
        <time>2013-03-23T08:28:58Z</time>
      </trkpt>
      <trkpt lat="43.76437" lon="7.1728">
        <ele>305.4</ele>
        <time>2013-03-23T08:29:03Z</time>
      </trkpt>
      <trkpt lat="43.76444" lon="7.17274">
        <ele>306.8</ele>
        <time>2013-03-23T08:29:08Z</time>
      </trkpt>
      <trkpt lat="43.76452" lon="7.17269">
        <ele>307.6</ele>
        <time>2013-03-23T08:29:13Z</time>
      </trkpt>
      <trkpt lat="43.76459" lon="7.17266">
        <ele>308.9</ele>
        <time>2013-03-23T08:29:18Z</time>
      </trkpt>
      <trkpt lat="43.76466" lon="7.17261">
        <ele>310</ele>
        <time>2013-03-23T08:29:23Z</time>
      </trkpt>
      <trkpt lat="43.76474" lon="7.17255">
        <ele>311.9</ele>
        <time>2013-03-23T08:29:29Z</time>
      </trkpt>
      <trkpt lat="43.76475" lon="7.17254">
        <ele>312.3</ele>
        <time>2013-03-23T08:29:30Z</time>
      </trkpt>
      <trkpt lat="43.76487" lon="7.17245">
        <ele>313.8</ele>
        <time>2013-03-23T08:29:39Z</time>
      </trkpt>
      <trkpt lat="43.76494" lon="7.1724">
        <ele>315.4</ele>
        <time>2013-03-23T08:29:45Z</time>
      </trkpt>
      <trkpt lat="43.76502" lon="7.17235">
        <ele>316.8</ele>
        <time>2013-03-23T08:29:51Z</time>
      </trkpt>
      <trkpt lat="43.7651" lon="7.17229">
        <ele>319</ele>
        <time>2013-03-23T08:29:57Z</time>
      </trkpt>
      <trkpt lat="43.76516" lon="7.17221">
        <ele>320.2</ele>
        <time>2013-03-23T08:30:03Z</time>
      </trkpt>
      <trkpt lat="43.76522" lon="7.17215">
        <ele>322.2</ele>
        <time>2013-03-23T08:30:09Z</time>
      </trkpt>
      <trkpt lat="43.76528" lon="7.17206">
        <ele>323.8</ele>
        <time>2013-03-23T08:30:16Z</time>
      </trkpt>
      <trkpt lat="43.76533" lon="7.17197">
        <ele>325.9</ele>
        <time>2013-03-23T08:30:22Z</time>
      </trkpt>
      <trkpt lat="43.76538" lon="7.17187">
        <ele>328</ele>
        <time>2013-03-23T08:30:29Z</time>
      </trkpt>
      <trkpt lat="43.76543" lon="7.17178">
        <ele>330.5</ele>
        <time>2013-03-23T08:30:35Z</time>
      </trkpt>
      <trkpt lat="43.76544" lon="7.17177">
        <ele>330.9</ele>
        <time>2013-03-23T08:30:36Z</time>
      </trkpt>
      <trkpt lat="43.76536" lon="7.17163">
        <ele>334</ele>
        <time>2013-03-23T08:30:50Z</time>
      </trkpt>
      <trkpt lat="43.76529" lon="7.17156">
        <ele>337.1</ele>
        <time>2013-03-23T08:30:58Z</time>
      </trkpt>
      <trkpt lat="43.76526" lon="7.17145">
        <ele>338.7</ele>
        <time>2013-03-23T08:31:05Z</time>
      </trkpt>
      <trkpt lat="43.7652" lon="7.17138">
        <ele>340.1</ele>
        <time>2013-03-23T08:31:12Z</time>
      </trkpt>
      <trkpt lat="43.76513" lon="7.17131">
        <ele>342.3</ele>
        <time>2013-03-23T08:31:19Z</time>
      </trkpt>
      <trkpt lat="43.76505" lon="7.17125">
        <ele>343.6</ele>
        <time>2013-03-23T08:31:27Z</time>
      </trkpt>
      <trkpt lat="43.76513" lon="7.1712">
        <ele>346.6</ele>
        <time>2013-03-23T08:31:46Z</time>
      </trkpt>
      <trkpt lat="43.76514" lon="7.1712">
        <ele>346.8</ele>
        <time>2013-03-23T08:31:47Z</time>
      </trkpt>
      <trkpt lat="43.76528" lon="7.17111">
        <ele>349.6</ele>
        <time>2013-03-23T08:32:03Z</time>
      </trkpt>
      <trkpt lat="43.76532" lon="7.17101">
        <ele>350.2</ele>
        <time>2013-03-23T08:32:11Z</time>
      </trkpt>
      <trkpt lat="43.76539" lon="7.17094">
        <ele>353.1</ele>
        <time>2013-03-23T08:32:19Z</time>
      </trkpt>
      <trkpt lat="43.76544" lon="7.17086">
        <ele>354.6</ele>
        <time>2013-03-23T08:32:26Z</time>
      </trkpt>
      <trkpt lat="43.7655" lon="7.17076">
        <ele>356.9</ele>
        <time>2013-03-23T08:32:34Z</time>
      </trkpt>
      <trkpt lat="43.76555" lon="7.17066">
        <ele>358.9</ele>
        <time>2013-03-23T08:32:42Z</time>
      </trkpt>
      <trkpt lat="43.76559" lon="7.17056">
        <ele>362.2</ele>
        <time>2013-03-23T08:32:50Z</time>
      </trkpt>
      <trkpt lat="43.76559" lon="7.17055">
        <ele>362.5</ele>
        <time>2013-03-23T08:32:51Z</time>
      </trkpt>
      <trkpt lat="43.76574" lon="7.17051">
        <ele>364.3</ele>
        <time>2013-03-23T08:33:05Z</time>
      </trkpt>
      <trkpt lat="43.76582" lon="7.17046">
        <ele>365.6</ele>
        <time>2013-03-23T08:33:12Z</time>
      </trkpt>
      <trkpt lat="43.7659" lon="7.17041">
        <ele>367.1</ele>
        <time>2013-03-23T08:33:19Z</time>
      </trkpt>
      <trkpt lat="43.76598" lon="7.17038">
        <ele>367</ele>
        <time>2013-03-23T08:33:26Z</time>
      </trkpt>
      <trkpt lat="43.76606" lon="7.17034">
        <ele>367.9</ele>
        <time>2013-03-23T08:33:33Z</time>
      </trkpt>
      <trkpt lat="43.76614" lon="7.17032">
        <ele>368.8</ele>
        <time>2013-03-23T08:33:40Z</time>
      </trkpt>
      <trkpt lat="43.76621" lon="7.17027">
        <ele>370.3</ele>
        <time>2013-03-23T08:33:46Z</time>
      </trkpt>
      <trkpt lat="43.7663" lon="7.17026">
        <ele>371.1</ele>
        <time>2013-03-23T08:33:52Z</time>
      </trkpt>
      <trkpt lat="43.76631" lon="7.17026">
        <ele>370.9</ele>
        <time>2013-03-23T08:33:53Z</time>
      </trkpt>
      <trkpt lat="43.76647" lon="7.17033">
        <ele>371.9</ele>
        <time>2013-03-23T08:34:06Z</time>
      </trkpt>
      <trkpt lat="43.76655" lon="7.17037">
        <ele>374.2</ele>
        <time>2013-03-23T08:34:13Z</time>
      </trkpt>
      <trkpt lat="43.76662" lon="7.17042">
        <ele>374.6</ele>
        <time>2013-03-23T08:34:20Z</time>
      </trkpt>
      <trkpt lat="43.76671" lon="7.17042">
        <ele>375</ele>
        <time>2013-03-23T08:35:55Z</time>
      </trkpt>
      <trkpt lat="43.76671" lon="7.17042">
        <ele>374.9</ele>
        <time>2013-03-23T08:35:56Z</time>
      </trkpt>
      <trkpt lat="43.76681" lon="7.17023">
        <ele>378.9</ele>
        <time>2013-03-23T08:36:10Z</time>
      </trkpt>
      <trkpt lat="43.76688" lon="7.17014">
        <ele>379.9</ele>
        <time>2013-03-23T08:36:18Z</time>
      </trkpt>
      <trkpt lat="43.76692" lon="7.17003">
        <ele>381.2</ele>
        <time>2013-03-23T08:36:24Z</time>
      </trkpt>
      <trkpt lat="43.76696" lon="7.16993">
        <ele>381.5</ele>
        <time>2013-03-23T08:36:32Z</time>
      </trkpt>
      <trkpt lat="43.76699" lon="7.16982">
        <ele>383.5</ele>
        <time>2013-03-23T08:36:39Z</time>
      </trkpt>
      <trkpt lat="43.76701" lon="7.16971">
        <ele>384.2</ele>
        <time>2013-03-23T08:36:47Z</time>
      </trkpt>
      <trkpt lat="43.76703" lon="7.1696">
        <ele>385.3</ele>
        <time>2013-03-23T08:36:53Z</time>
      </trkpt>
      <trkpt lat="43.76706" lon="7.16949">
        <ele>387.4</ele>
        <time>2013-03-23T08:37:01Z</time>
      </trkpt>
      <trkpt lat="43.76707" lon="7.16947">
        <ele>387.5</ele>
        <time>2013-03-23T08:37:02Z</time>
      </trkpt>
      <trkpt lat="43.76715" lon="7.1693">
        <ele>391.3</ele>
        <time>2013-03-23T08:37:22Z</time>
      </trkpt>
      <trkpt lat="43.76722" lon="7.16922">
        <ele>394.9</ele>
        <time>2013-03-23T08:37:34Z</time>
      </trkpt>
      <trkpt lat="43.7673" lon="7.1692">
        <ele>396.3</ele>
        <time>2013-03-23T08:37:47Z</time>
      </trkpt>
      <trkpt lat="43.76739" lon="7.16916">
        <ele>397.2</ele>
        <time>2013-03-23T08:37:59Z</time>
      </trkpt>
      <trkpt lat="43.76747" lon="7.16911">
        <ele>397.7</ele>
        <time>2013-03-23T08:38:08Z</time>
      </trkpt>
      <trkpt lat="43.76748" lon="7.16911">
        <ele>397.9</ele>
        <time>2013-03-23T08:38:09Z</time>
      </trkpt>
      <trkpt lat="43.76762" lon="7.16903">
        <ele>401.5</ele>
        <time>2013-03-23T08:38:27Z</time>
      </trkpt>
      <trkpt lat="43.76771" lon="7.16901">
        <ele>402.8</ele>
        <time>2013-03-23T08:38:38Z</time>
      </trkpt>
      <trkpt lat="43.76779" lon="7.16899">
        <ele>404.3</ele>
        <time>2013-03-23T08:38:49Z</time>
      </trkpt>
      <trkpt lat="43.76788" lon="7.16897">
        <ele>405.9</ele>
        <time>2013-03-23T08:39:02Z</time>
      </trkpt>
      <trkpt lat="43.76797" lon="7.16897">
        <ele>406.9</ele>
        <time>2013-03-23T08:39:44Z</time>
      </trkpt>
      <trkpt lat="43.76797" lon="7.16897">
        <ele>406.9</ele>
        <time>2013-03-23T08:39:45Z</time>
      </trkpt>
      <trkpt lat="43.76807" lon="7.16915">
        <ele>407.4</ele>
        <time>2013-03-23T08:42:01Z</time>
      </trkpt>
      <trkpt lat="43.7681" lon="7.16917">
        <ele>407.5</ele>
        <time>2013-03-23T08:42:02Z</time>
      </trkpt>
      <trkpt lat="43.76822" lon="7.16925">
        <ele>405.9</ele>
        <time>2013-03-23T08:42:07Z</time>
      </trkpt>
      <trkpt lat="43.7683" lon="7.16927">
        <ele>405.7</ele>
        <time>2013-03-23T08:42:10Z</time>
      </trkpt>
      <trkpt lat="43.76836" lon="7.16929">
        <ele>405.5</ele>
        <time>2013-03-23T08:42:12Z</time>
      </trkpt>
      <trkpt lat="43.76842" lon="7.16931">
        <ele>405.3</ele>
        <time>2013-03-23T08:42:14Z</time>
      </trkpt>
      <trkpt lat="43.7685" lon="7.16932">
        <ele>405</ele>
        <time>2013-03-23T08:42:16Z</time>
      </trkpt>
      <trkpt lat="43.76857" lon="7.16931">
        <ele>404.7</ele>
        <time>2013-03-23T08:42:18Z</time>
      </trkpt>
      <trkpt lat="43.76866" lon="7.16928">
        <ele>404.3</ele>
        <time>2013-03-23T08:42:20Z</time>
      </trkpt>
      <trkpt lat="43.7687" lon="7.16925">
        <ele>404.2</ele>
        <time>2013-03-23T08:42:21Z</time>
      </trkpt>
      <trkpt lat="43.76875" lon="7.16921">
        <ele>403.9</ele>
        <time>2013-03-23T08:42:22Z</time>
      </trkpt>
      <trkpt lat="43.76879" lon="7.16916">
        <ele>403.7</ele>
        <time>2013-03-23T08:42:23Z</time>
      </trkpt>
      <trkpt lat="43.76882" lon="7.16909">
        <ele>403.5</ele>
        <time>2013-03-23T08:42:24Z</time>
      </trkpt>
      <trkpt lat="43.76884" lon="7.16903">
        <ele>403.4</ele>
        <time>2013-03-23T08:42:25Z</time>
      </trkpt>
      <trkpt lat="43.76887" lon="7.16897">
        <ele>403.3</ele>
        <time>2013-03-23T08:42:26Z</time>
      </trkpt>
      <trkpt lat="43.76889" lon="7.16891">
        <ele>403.3</ele>
        <time>2013-03-23T08:42:27Z</time>
      </trkpt>
      <trkpt lat="43.76893" lon="7.16887">
        <ele>402.6</ele>
        <time>2013-03-23T08:42:28Z</time>
      </trkpt>
      <trkpt lat="43.76897" lon="7.16885">
        <ele>402.1</ele>
        <time>2013-03-23T08:42:29Z</time>
      </trkpt>
      <trkpt lat="43.76906" lon="7.16883">
        <ele>401.5</ele>
        <time>2013-03-23T08:42:31Z</time>
      </trkpt>
      <trkpt lat="43.76913" lon="7.16887">
        <ele>401.7</ele>
        <time>2013-03-23T08:42:33Z</time>
      </trkpt>
      <trkpt lat="43.7692" lon="7.16894">
        <ele>401.2</ele>
        <time>2013-03-23T08:42:35Z</time>
      </trkpt>
      <trkpt lat="43.76923" lon="7.16898">
        <ele>400.8</ele>
        <time>2013-03-23T08:42:36Z</time>
      </trkpt>
      <trkpt lat="43.76926" lon="7.16904">
        <ele>400.5</ele>
        <time>2013-03-23T08:42:37Z</time>
      </trkpt>
      <trkpt lat="43.76928" lon="7.16909">
        <ele>400.5</ele>
        <time>2013-03-23T08:42:38Z</time>
      </trkpt>
      <trkpt lat="43.76932" lon="7.16921">
        <ele>400.4</ele>
        <time>2013-03-23T08:42:40Z</time>
      </trkpt>
      <trkpt lat="43.76934" lon="7.16932">
        <ele>399.7</ele>
        <time>2013-03-23T08:42:42Z</time>
      </trkpt>
      <trkpt lat="43.76938" lon="7.16942">
        <ele>399.1</ele>
        <time>2013-03-23T08:42:44Z</time>
      </trkpt>
      <trkpt lat="43.76941" lon="7.16947">
        <ele>398.8</ele>
        <time>2013-03-23T08:42:45Z</time>
      </trkpt>
      <trkpt lat="43.76944" lon="7.16952">
        <ele>398.6</ele>
        <time>2013-03-23T08:42:46Z</time>
      </trkpt>
      <trkpt lat="43.76948" lon="7.16957">
        <ele>398.3</ele>
        <time>2013-03-23T08:42:47Z</time>
      </trkpt>
      <trkpt lat="43.76952" lon="7.1696">
        <ele>398.1</ele>
        <time>2013-03-23T08:42:48Z</time>
      </trkpt>
      <trkpt lat="43.76957" lon="7.16962">
        <ele>397.9</ele>
        <time>2013-03-23T08:42:49Z</time>
      </trkpt>
      <trkpt lat="43.76962" lon="7.16963">
        <ele>397.8</ele>
        <time>2013-03-23T08:42:50Z</time>
      </trkpt>
      <trkpt lat="43.76967" lon="7.16962">
        <ele>397.8</ele>
        <time>2013-03-23T08:42:51Z</time>
      </trkpt>
      <trkpt lat="43.76975" lon="7.16959">
        <ele>398</ele>
        <time>2013-03-23T08:42:53Z</time>
      </trkpt>
      <trkpt lat="43.76984" lon="7.16962">
        <ele>397.8</ele>
        <time>2013-03-23T08:42:56Z</time>
      </trkpt>
      <trkpt lat="43.76987" lon="7.16968">
        <ele>396.7</ele>
        <time>2013-03-23T08:42:58Z</time>
      </trkpt>
      <trkpt lat="43.76993" lon="7.16974">
        <ele>396.5</ele>
        <time>2013-03-23T08:43:00Z</time>
      </trkpt>
      <trkpt lat="43.76999" lon="7.16982">
        <ele>396.6</ele>
        <time>2013-03-23T08:43:03Z</time>
      </trkpt>
      <trkpt lat="43.77001" lon="7.16985">
        <ele>396.5</ele>
        <time>2013-03-23T08:43:04Z</time>
      </trkpt>
      <trkpt lat="43.77009" lon="7.16996">
        <ele>397</ele>
        <time>2013-03-23T08:43:08Z</time>
      </trkpt>
      <trkpt lat="43.77016" lon="7.17002">
        <ele>396.6</ele>
        <time>2013-03-23T08:43:11Z</time>
      </trkpt>
      <trkpt lat="43.77023" lon="7.17004">
        <ele>396.3</ele>
        <time>2013-03-23T08:43:13Z</time>
      </trkpt>
      <trkpt lat="43.77029" lon="7.17004">
        <ele>396.2</ele>
        <time>2013-03-23T08:43:15Z</time>
      </trkpt>
      <trkpt lat="43.77036" lon="7.17006">
        <ele>396.3</ele>
        <time>2013-03-23T08:43:17Z</time>
      </trkpt>
      <trkpt lat="43.77041" lon="7.1701">
        <ele>396.6</ele>
        <time>2013-03-23T08:43:19Z</time>
      </trkpt>
      <trkpt lat="43.77047" lon="7.17014">
        <ele>396.9</ele>
        <time>2013-03-23T08:43:21Z</time>
      </trkpt>
      <trkpt lat="43.77053" lon="7.17018">
        <ele>396.6</ele>
        <time>2013-03-23T08:43:23Z</time>
      </trkpt>
      <trkpt lat="43.77058" lon="7.17022">
        <ele>395.9</ele>
        <time>2013-03-23T08:43:25Z</time>
      </trkpt>
      <trkpt lat="43.77063" lon="7.17027">
        <ele>395.9</ele>
        <time>2013-03-23T08:43:27Z</time>
      </trkpt>
      <trkpt lat="43.77068" lon="7.17032">
        <ele>395.5</ele>
        <time>2013-03-23T08:43:29Z</time>
      </trkpt>
      <trkpt lat="43.77074" lon="7.17037">
        <ele>394.9</ele>
        <time>2013-03-23T08:43:31Z</time>
      </trkpt>
      <trkpt lat="43.77079" lon="7.17042">
        <ele>395.7</ele>
        <time>2013-03-23T08:43:33Z</time>
      </trkpt>
      <trkpt lat="43.77085" lon="7.17046">
        <ele>395.8</ele>
        <time>2013-03-23T08:43:35Z</time>
      </trkpt>
      <trkpt lat="43.77091" lon="7.17049">
        <ele>395.5</ele>
        <time>2013-03-23T08:43:37Z</time>
      </trkpt>
      <trkpt lat="43.77097" lon="7.17052">
        <ele>395.4</ele>
        <time>2013-03-23T08:43:39Z</time>
      </trkpt>
      <trkpt lat="43.77103" lon="7.17055">
        <ele>395.5</ele>
        <time>2013-03-23T08:43:41Z</time>
      </trkpt>
      <trkpt lat="43.77109" lon="7.17059">
        <ele>394.6</ele>
        <time>2013-03-23T08:43:43Z</time>
      </trkpt>
      <trkpt lat="43.77116" lon="7.17059">
        <ele>394.4</ele>
        <time>2013-03-23T08:43:45Z</time>
      </trkpt>
      <trkpt lat="43.77122" lon="7.17057">
        <ele>394.5</ele>
        <time>2013-03-23T08:43:47Z</time>
      </trkpt>
      <trkpt lat="43.7713" lon="7.17058">
        <ele>394.2</ele>
        <time>2013-03-23T08:43:49Z</time>
      </trkpt>
      <trkpt lat="43.77138" lon="7.17059">
        <ele>394.3</ele>
        <time>2013-03-23T08:43:51Z</time>
      </trkpt>
      <trkpt lat="43.77143" lon="7.17059">
        <ele>394.4</ele>
        <time>2013-03-23T08:43:52Z</time>
      </trkpt>
      <trkpt lat="43.77148" lon="7.17059">
        <ele>394.5</ele>
        <time>2013-03-23T08:43:53Z</time>
      </trkpt>
      <trkpt lat="43.77154" lon="7.17059">
        <ele>394.5</ele>
        <time>2013-03-23T08:43:54Z</time>
      </trkpt>
      <trkpt lat="43.7716" lon="7.17058">
        <ele>394.6</ele>
        <time>2013-03-23T08:43:55Z</time>
      </trkpt>
      <trkpt lat="43.77166" lon="7.17058">
        <ele>394.6</ele>
        <time>2013-03-23T08:43:56Z</time>
      </trkpt>
      <trkpt lat="43.77172" lon="7.17059">
        <ele>394.6</ele>
        <time>2013-03-23T08:43:57Z</time>
      </trkpt>
      <trkpt lat="43.77178" lon="7.1706">
        <ele>394.9</ele>
        <time>2013-03-23T08:43:58Z</time>
      </trkpt>
      <trkpt lat="43.77183" lon="7.17061">
        <ele>395.1</ele>
        <time>2013-03-23T08:43:59Z</time>
      </trkpt>
      <trkpt lat="43.7719" lon="7.17057">
        <ele>395.1</ele>
        <time>2013-03-23T08:44:01Z</time>
      </trkpt>
      <trkpt lat="43.77197" lon="7.1705">
        <ele>394.8</ele>
        <time>2013-03-23T08:44:06Z</time>
      </trkpt>
      <trkpt lat="43.77198" lon="7.1705">
        <ele>394.8</ele>
        <time>2013-03-23T08:44:07Z</time>
      </trkpt>
      <trkpt lat="43.77203" lon="7.17033">
        <ele>393.7</ele>
        <time>2013-03-23T08:44:13Z</time>
      </trkpt>
      <trkpt lat="43.77207" lon="7.17023">
        <ele>393.4</ele>
        <time>2013-03-23T08:44:17Z</time>
      </trkpt>
      <trkpt lat="43.77212" lon="7.17014">
        <ele>393.8</ele>
        <time>2013-03-23T08:44:21Z</time>
      </trkpt>
      <trkpt lat="43.77219" lon="7.17008">
        <ele>393.8</ele>
        <time>2013-03-23T08:44:25Z</time>
      </trkpt>
      <trkpt lat="43.77226" lon="7.1701">
        <ele>393.5</ele>
        <time>2013-03-23T08:44:28Z</time>
      </trkpt>
      <trkpt lat="43.77232" lon="7.17016">
        <ele>393.8</ele>
        <time>2013-03-23T08:44:31Z</time>
      </trkpt>
      <trkpt lat="43.77236" lon="7.17027">
        <ele>394.4</ele>
        <time>2013-03-23T08:44:35Z</time>
      </trkpt>
      <trkpt lat="43.77241" lon="7.17037">
        <ele>394.2</ele>
        <time>2013-03-23T08:44:39Z</time>
      </trkpt>
      <trkpt lat="43.77245" lon="7.17044">
        <ele>394.7</ele>
        <time>2013-03-23T08:44:42Z</time>
      </trkpt>
      <trkpt lat="43.77252" lon="7.17052">
        <ele>395.2</ele>
        <time>2013-03-23T08:44:46Z</time>
      </trkpt>
      <trkpt lat="43.77257" lon="7.17061">
        <ele>396.1</ele>
        <time>2013-03-23T08:44:50Z</time>
      </trkpt>
      <trkpt lat="43.77261" lon="7.1707">
        <ele>397.4</ele>
        <time>2013-03-23T08:44:54Z</time>
      </trkpt>
      <trkpt lat="43.77264" lon="7.17081">
        <ele>397.8</ele>
        <time>2013-03-23T08:44:58Z</time>
      </trkpt>
      <trkpt lat="43.77266" lon="7.17093">
        <ele>398.3</ele>
        <time>2013-03-23T08:45:02Z</time>
      </trkpt>
      <trkpt lat="43.77268" lon="7.17102">
        <ele>398.9</ele>
        <time>2013-03-23T08:45:05Z</time>
      </trkpt>
      <trkpt lat="43.77269" lon="7.17112">
        <ele>399.2</ele>
        <time>2013-03-23T08:45:08Z</time>
      </trkpt>
      <trkpt lat="43.7727" lon="7.17115">
        <ele>399.5</ele>
        <time>2013-03-23T08:45:09Z</time>
      </trkpt>
      <trkpt lat="43.77275" lon="7.17133">
        <ele>401</ele>
        <time>2013-03-23T08:45:16Z</time>
      </trkpt>
      <trkpt lat="43.77277" lon="7.17144">
        <ele>400.6</ele>
        <time>2013-03-23T08:45:20Z</time>
      </trkpt>
      <trkpt lat="43.77281" lon="7.17155">
        <ele>400.1</ele>
        <time>2013-03-23T08:45:24Z</time>
      </trkpt>
      <trkpt lat="43.77285" lon="7.17163">
        <ele>400.7</ele>
        <time>2013-03-23T08:45:27Z</time>
      </trkpt>
      <trkpt lat="43.77291" lon="7.17172">
        <ele>401.9</ele>
        <time>2013-03-23T08:45:31Z</time>
      </trkpt>
      <trkpt lat="43.77296" lon="7.17182">
        <ele>403.1</ele>
        <time>2013-03-23T08:45:35Z</time>
      </trkpt>
      <trkpt lat="43.773" lon="7.17191">
        <ele>402.4</ele>
        <time>2013-03-23T08:45:39Z</time>
      </trkpt>
      <trkpt lat="43.77305" lon="7.17201">
        <ele>403.1</ele>
        <time>2013-03-23T08:45:43Z</time>
      </trkpt>
      <trkpt lat="43.7731" lon="7.17208">
        <ele>403.4</ele>
        <time>2013-03-23T08:45:46Z</time>
      </trkpt>
      <trkpt lat="43.77317" lon="7.17216">
        <ele>403.8</ele>
        <time>2013-03-23T08:45:49Z</time>
      </trkpt>
      <trkpt lat="43.77321" lon="7.17221">
        <ele>403.8</ele>
        <time>2013-03-23T08:45:51Z</time>
      </trkpt>
      <trkpt lat="43.77326" lon="7.17227">
        <ele>403.8</ele>
        <time>2013-03-23T08:45:53Z</time>
      </trkpt>
      <trkpt lat="43.77331" lon="7.17233">
        <ele>403.8</ele>
        <time>2013-03-23T08:45:55Z</time>
      </trkpt>
      <trkpt lat="43.77335" lon="7.17238">
        <ele>403.5</ele>
        <time>2013-03-23T08:45:57Z</time>
      </trkpt>
      <trkpt lat="43.7734" lon="7.17244">
        <ele>403.3</ele>
        <time>2013-03-23T08:45:59Z</time>
      </trkpt>
      <trkpt lat="43.77346" lon="7.17252">
        <ele>403.8</ele>
        <time>2013-03-23T08:46:02Z</time>
      </trkpt>
      <trkpt lat="43.77351" lon="7.17258">
        <ele>404.4</ele>
        <time>2013-03-23T08:46:04Z</time>
      </trkpt>
      <trkpt lat="43.77355" lon="7.17264">
        <ele>404.8</ele>
        <time>2013-03-23T08:46:06Z</time>
      </trkpt>
      <trkpt lat="43.77362" lon="7.17272">
        <ele>404.7</ele>
        <time>2013-03-23T08:46:09Z</time>
      </trkpt>
      <trkpt lat="43.77364" lon="7.17274">
        <ele>404.4</ele>
        <time>2013-03-23T08:46:10Z</time>
      </trkpt>
      <trkpt lat="43.77374" lon="7.17286">
        <ele>404.5</ele>
        <time>2013-03-23T08:46:14Z</time>
      </trkpt>
      <trkpt lat="43.7738" lon="7.17292">
        <ele>404.5</ele>
        <time>2013-03-23T08:46:16Z</time>
      </trkpt>
      <trkpt lat="43.77385" lon="7.17299">
        <ele>403.9</ele>
        <time>2013-03-23T08:46:18Z</time>
      </trkpt>
      <trkpt lat="43.77391" lon="7.17305">
        <ele>403</ele>
        <time>2013-03-23T08:46:20Z</time>
      </trkpt>
      <trkpt lat="43.77398" lon="7.17312">
        <ele>401.8</ele>
        <time>2013-03-23T08:46:22Z</time>
      </trkpt>
      <trkpt lat="43.77405" lon="7.1732">
        <ele>401.1</ele>
        <time>2013-03-23T08:46:24Z</time>
      </trkpt>
      <trkpt lat="43.77411" lon="7.17329">
        <ele>400.6</ele>
        <time>2013-03-23T08:46:26Z</time>
      </trkpt>
      <trkpt lat="43.77416" lon="7.17338">
        <ele>400.5</ele>
        <time>2013-03-23T08:46:28Z</time>
      </trkpt>
      <trkpt lat="43.77421" lon="7.17346">
        <ele>400.6</ele>
        <time>2013-03-23T08:46:30Z</time>
      </trkpt>
      <trkpt lat="43.77426" lon="7.17353">
        <ele>400.7</ele>
        <time>2013-03-23T08:46:32Z</time>
      </trkpt>
      <trkpt lat="43.7743" lon="7.1736">
        <ele>400.6</ele>
        <time>2013-03-23T08:46:34Z</time>
      </trkpt>
      <trkpt lat="43.77435" lon="7.17367">
        <ele>400.4</ele>
        <time>2013-03-23T08:46:36Z</time>
      </trkpt>
      <trkpt lat="43.7744" lon="7.17374">
        <ele>400.1</ele>
        <time>2013-03-23T08:46:38Z</time>
      </trkpt>
      <trkpt lat="43.77444" lon="7.17382">
        <ele>399.9</ele>
        <time>2013-03-23T08:46:40Z</time>
      </trkpt>
      <trkpt lat="43.77449" lon="7.17388">
        <ele>400.3</ele>
        <time>2013-03-23T08:46:42Z</time>
      </trkpt>
      <trkpt lat="43.77455" lon="7.17395">
        <ele>400.6</ele>
        <time>2013-03-23T08:46:44Z</time>
      </trkpt>
      <trkpt lat="43.77461" lon="7.174">
        <ele>400.8</ele>
        <time>2013-03-23T08:46:46Z</time>
      </trkpt>
      <trkpt lat="43.77468" lon="7.17403">
        <ele>400.9</ele>
        <time>2013-03-23T08:46:48Z</time>
      </trkpt>
      <trkpt lat="43.77475" lon="7.17405">
        <ele>400.6</ele>
        <time>2013-03-23T08:46:50Z</time>
      </trkpt>
      <trkpt lat="43.77482" lon="7.17408">
        <ele>400.2</ele>
        <time>2013-03-23T08:46:52Z</time>
      </trkpt>
      <trkpt lat="43.7749" lon="7.1741">
        <ele>399</ele>
        <time>2013-03-23T08:46:54Z</time>
      </trkpt>
      <trkpt lat="43.77498" lon="7.17412">
        <ele>399.3</ele>
        <time>2013-03-23T08:46:56Z</time>
      </trkpt>
      <trkpt lat="43.77506" lon="7.17414">
        <ele>400.2</ele>
        <time>2013-03-23T08:46:58Z</time>
      </trkpt>
      <trkpt lat="43.77513" lon="7.17418">
        <ele>400.2</ele>
        <time>2013-03-23T08:47:00Z</time>
      </trkpt>
      <trkpt lat="43.77521" lon="7.17424">
        <ele>399.7</ele>
        <time>2013-03-23T08:47:02Z</time>
      </trkpt>
      <trkpt lat="43.77527" lon="7.17431">
        <ele>399.8</ele>
        <time>2013-03-23T08:47:04Z</time>
      </trkpt>
      <trkpt lat="43.77532" lon="7.17439">
        <ele>399.9</ele>
        <time>2013-03-23T08:47:06Z</time>
      </trkpt>
      <trkpt lat="43.77536" lon="7.17448">
        <ele>400.1</ele>
        <time>2013-03-23T08:47:08Z</time>
      </trkpt>
      <trkpt lat="43.7754" lon="7.17455">
        <ele>400.5</ele>
        <time>2013-03-23T08:47:10Z</time>
      </trkpt>
      <trkpt lat="43.77542" lon="7.17459">
        <ele>400.7</ele>
        <time>2013-03-23T08:47:11Z</time>
      </trkpt>
      <trkpt lat="43.77549" lon="7.17469">
        <ele>400.2</ele>
        <time>2013-03-23T08:47:14Z</time>
      </trkpt>
      <trkpt lat="43.77554" lon="7.17474">
        <ele>400.2</ele>
        <time>2013-03-23T08:47:16Z</time>
      </trkpt>
      <trkpt lat="43.7756" lon="7.17479">
        <ele>400.3</ele>
        <time>2013-03-23T08:47:18Z</time>
      </trkpt>
      <trkpt lat="43.77567" lon="7.17483">
        <ele>401.4</ele>
        <time>2013-03-23T08:47:20Z</time>
      </trkpt>
      <trkpt lat="43.77575" lon="7.17487">
        <ele>401.9</ele>
        <time>2013-03-23T08:47:22Z</time>
      </trkpt>
      <trkpt lat="43.77582" lon="7.1749">
        <ele>402</ele>
        <time>2013-03-23T08:47:24Z</time>
      </trkpt>
      <trkpt lat="43.77589" lon="7.17494">
        <ele>401.7</ele>
        <time>2013-03-23T08:47:26Z</time>
      </trkpt>
      <trkpt lat="43.77597" lon="7.17497">
        <ele>401.5</ele>
        <time>2013-03-23T08:47:28Z</time>
      </trkpt>
      <trkpt lat="43.77604" lon="7.175">
        <ele>401.5</ele>
        <time>2013-03-23T08:47:30Z</time>
      </trkpt>
      <trkpt lat="43.7761" lon="7.17504">
        <ele>401.8</ele>
        <time>2013-03-23T08:47:32Z</time>
      </trkpt>
      <trkpt lat="43.77616" lon="7.17509">
        <ele>402.1</ele>
        <time>2013-03-23T08:47:34Z</time>
      </trkpt>
      <trkpt lat="43.7762" lon="7.17516">
        <ele>401.5</ele>
        <time>2013-03-23T08:47:36Z</time>
      </trkpt>
      <trkpt lat="43.77624" lon="7.17523">
        <ele>401.3</ele>
        <time>2013-03-23T08:47:38Z</time>
      </trkpt>
      <trkpt lat="43.77627" lon="7.1753">
        <ele>401.2</ele>
        <time>2013-03-23T08:47:40Z</time>
      </trkpt>
      <trkpt lat="43.7763" lon="7.17537">
        <ele>401.2</ele>
        <time>2013-03-23T08:47:42Z</time>
      </trkpt>
      <trkpt lat="43.77635" lon="7.17544">
        <ele>401.3</ele>
        <time>2013-03-23T08:47:44Z</time>
      </trkpt>
      <trkpt lat="43.7764" lon="7.1755">
        <ele>401.4</ele>
        <time>2013-03-23T08:47:46Z</time>
      </trkpt>
      <trkpt lat="43.77648" lon="7.17554">
        <ele>402.2</ele>
        <time>2013-03-23T08:47:49Z</time>
      </trkpt>
      <trkpt lat="43.77656" lon="7.17559">
        <ele>402.1</ele>
        <time>2013-03-23T08:47:53Z</time>
      </trkpt>
      <trkpt lat="43.77664" lon="7.17563">
        <ele>401</ele>
        <time>2013-03-23T08:47:57Z</time>
      </trkpt>
      <trkpt lat="43.77671" lon="7.17563">
        <ele>400.7</ele>
        <time>2013-03-23T08:48:00Z</time>
      </trkpt>
      <trkpt lat="43.77678" lon="7.17565">
        <ele>400.7</ele>
        <time>2013-03-23T08:48:03Z</time>
      </trkpt>
      <trkpt lat="43.77685" lon="7.17567">
        <ele>400.5</ele>
        <time>2013-03-23T08:48:06Z</time>
      </trkpt>
      <trkpt lat="43.77693" lon="7.17568">
        <ele>400.5</ele>
        <time>2013-03-23T08:48:09Z</time>
      </trkpt>
      <trkpt lat="43.77702" lon="7.1757">
        <ele>400.2</ele>
        <time>2013-03-23T08:48:12Z</time>
      </trkpt>
      <trkpt lat="43.77705" lon="7.17571">
        <ele>400.2</ele>
        <time>2013-03-23T08:48:13Z</time>
      </trkpt>
      <trkpt lat="43.77719" lon="7.17572">
        <ele>400.1</ele>
        <time>2013-03-23T08:48:18Z</time>
      </trkpt>
      <trkpt lat="43.77728" lon="7.17573">
        <ele>400.4</ele>
        <time>2013-03-23T08:48:21Z</time>
      </trkpt>
      <trkpt lat="43.77736" lon="7.17572">
        <ele>400.6</ele>
        <time>2013-03-23T08:48:24Z</time>
      </trkpt>
      <trkpt lat="43.77745" lon="7.17575">
        <ele>400.7</ele>
        <time>2013-03-23T08:48:27Z</time>
      </trkpt>
      <trkpt lat="43.77751" lon="7.17575">
        <ele>400.9</ele>
        <time>2013-03-23T08:48:29Z</time>
      </trkpt>
      <trkpt lat="43.77758" lon="7.17575">
        <ele>401.2</ele>
        <time>2013-03-23T08:48:31Z</time>
      </trkpt>
      <trkpt lat="43.77766" lon="7.17573">
        <ele>401</ele>
        <time>2013-03-23T08:48:34Z</time>
      </trkpt>
      <trkpt lat="43.77774" lon="7.17573">
        <ele>401.5</ele>
        <time>2013-03-23T08:48:37Z</time>
      </trkpt>
      <trkpt lat="43.77781" lon="7.17574">
        <ele>401.6</ele>
        <time>2013-03-23T08:48:40Z</time>
      </trkpt>
      <trkpt lat="43.77789" lon="7.17574">
        <ele>401.9</ele>
        <time>2013-03-23T08:48:43Z</time>
      </trkpt>
      <trkpt lat="43.77797" lon="7.17575">
        <ele>401.8</ele>
        <time>2013-03-23T08:48:46Z</time>
      </trkpt>
      <trkpt lat="43.77805" lon="7.17576">
        <ele>401.9</ele>
        <time>2013-03-23T08:48:49Z</time>
      </trkpt>
      <trkpt lat="43.77814" lon="7.17577">
        <ele>402.5</ele>
        <time>2013-03-23T08:48:52Z</time>
      </trkpt>
      <trkpt lat="43.77822" lon="7.17579">
        <ele>402.8</ele>
        <time>2013-03-23T08:48:55Z</time>
      </trkpt>
      <trkpt lat="43.7783" lon="7.17581">
        <ele>402.9</ele>
        <time>2013-03-23T08:48:58Z</time>
      </trkpt>
      <trkpt lat="43.77838" lon="7.17583">
        <ele>402.8</ele>
        <time>2013-03-23T08:49:01Z</time>
      </trkpt>
      <trkpt lat="43.77846" lon="7.17584">
        <ele>402.5</ele>
        <time>2013-03-23T08:49:04Z</time>
      </trkpt>
      <trkpt lat="43.77853" lon="7.17586">
        <ele>402.9</ele>
        <time>2013-03-23T08:49:07Z</time>
      </trkpt>
      <trkpt lat="43.77859" lon="7.17588">
        <ele>403.6</ele>
        <time>2013-03-23T08:49:10Z</time>
      </trkpt>
      <trkpt lat="43.77867" lon="7.1759">
        <ele>403.2</ele>
        <time>2013-03-23T08:49:13Z</time>
      </trkpt>
      <trkpt lat="43.77869" lon="7.17591">
        <ele>403.5</ele>
        <time>2013-03-23T08:49:14Z</time>
      </trkpt>
      <trkpt lat="43.77881" lon="7.17594">
        <ele>403.6</ele>
        <time>2013-03-23T08:49:19Z</time>
      </trkpt>
      <trkpt lat="43.77888" lon="7.17595">
        <ele>404.1</ele>
        <time>2013-03-23T08:49:22Z</time>
      </trkpt>
      <trkpt lat="43.77896" lon="7.17597">
        <ele>404.3</ele>
        <time>2013-03-23T08:49:25Z</time>
      </trkpt>
      <trkpt lat="43.77903" lon="7.17599">
        <ele>405</ele>
        <time>2013-03-23T08:49:28Z</time>
      </trkpt>
      <trkpt lat="43.77911" lon="7.17599">
        <ele>405.6</ele>
        <time>2013-03-23T08:49:31Z</time>
      </trkpt>
      <trkpt lat="43.77918" lon="7.17601">
        <ele>405.5</ele>
        <time>2013-03-23T08:49:34Z</time>
      </trkpt>
      <trkpt lat="43.77926" lon="7.17603">
        <ele>405.9</ele>
        <time>2013-03-23T08:49:37Z</time>
      </trkpt>
      <trkpt lat="43.77933" lon="7.17605">
        <ele>406.8</ele>
        <time>2013-03-23T08:49:40Z</time>
      </trkpt>
      <trkpt lat="43.77941" lon="7.17607">
        <ele>407</ele>
        <time>2013-03-23T08:49:43Z</time>
      </trkpt>
      <trkpt lat="43.77947" lon="7.17607">
        <ele>407.4</ele>
        <time>2013-03-23T08:49:46Z</time>
      </trkpt>
      <trkpt lat="43.77955" lon="7.17609">
        <ele>407.6</ele>
        <time>2013-03-23T08:49:49Z</time>
      </trkpt>
      <trkpt lat="43.77962" lon="7.17611">
        <ele>407.6</ele>
        <time>2013-03-23T08:49:52Z</time>
      </trkpt>
      <trkpt lat="43.77971" lon="7.17613">
        <ele>408.2</ele>
        <time>2013-03-23T08:49:56Z</time>
      </trkpt>
      <trkpt lat="43.7798" lon="7.17615">
        <ele>408.9</ele>
        <time>2013-03-23T08:50:00Z</time>
      </trkpt>
      <trkpt lat="43.77987" lon="7.17617">
        <ele>408.8</ele>
        <time>2013-03-23T08:50:03Z</time>
      </trkpt>
      <trkpt lat="43.77994" lon="7.17619">
        <ele>409.5</ele>
        <time>2013-03-23T08:50:06Z</time>
      </trkpt>
      <trkpt lat="43.78001" lon="7.1762">
        <ele>410.8</ele>
        <time>2013-03-23T08:50:09Z</time>
      </trkpt>
      <trkpt lat="43.78008" lon="7.17619">
        <ele>411.5</ele>
        <time>2013-03-23T08:50:12Z</time>
      </trkpt>
      <trkpt lat="43.78017" lon="7.17616">
        <ele>411.5</ele>
        <time>2013-03-23T08:50:16Z</time>
      </trkpt>
      <trkpt lat="43.78018" lon="7.17615">
        <ele>411.4</ele>
        <time>2013-03-23T08:50:17Z</time>
      </trkpt>
      <trkpt lat="43.78021" lon="7.17596">
        <ele>411.8</ele>
        <time>2013-03-23T08:50:23Z</time>
      </trkpt>
      <trkpt lat="43.7802" lon="7.17585">
        <ele>412.2</ele>
        <time>2013-03-23T08:50:25Z</time>
      </trkpt>
      <trkpt lat="43.78019" lon="7.17578">
        <ele>412.3</ele>
        <time>2013-03-23T08:50:26Z</time>
      </trkpt>
      <trkpt lat="43.78017" lon="7.1757">
        <ele>411.8</ele>
        <time>2013-03-23T08:50:27Z</time>
      </trkpt>
      <trkpt lat="43.78017" lon="7.1756">
        <ele>411.4</ele>
        <time>2013-03-23T08:50:28Z</time>
      </trkpt>
      <trkpt lat="43.78015" lon="7.1755">
        <ele>411.1</ele>
        <time>2013-03-23T08:50:29Z</time>
      </trkpt>
      <trkpt lat="43.78015" lon="7.17539">
        <ele>410.7</ele>
        <time>2013-03-23T08:50:30Z</time>
      </trkpt>
      <trkpt lat="43.78014" lon="7.17528">
        <ele>410.5</ele>
        <time>2013-03-23T08:50:31Z</time>
      </trkpt>
      <trkpt lat="43.78015" lon="7.17516">
        <ele>410.3</ele>
        <time>2013-03-23T08:50:32Z</time>
      </trkpt>
      <trkpt lat="43.78016" lon="7.17503">
        <ele>410.1</ele>
        <time>2013-03-23T08:50:33Z</time>
      </trkpt>
      <trkpt lat="43.78017" lon="7.1749">
        <ele>409</ele>
        <time>2013-03-23T08:50:34Z</time>
      </trkpt>
      <trkpt lat="43.7802" lon="7.17478">
        <ele>408.1</ele>
        <time>2013-03-23T08:50:35Z</time>
      </trkpt>
      <trkpt lat="43.78023" lon="7.17466">
        <ele>407.5</ele>
        <time>2013-03-23T08:50:36Z</time>
      </trkpt>
      <trkpt lat="43.78027" lon="7.17455">
        <ele>406.8</ele>
        <time>2013-03-23T08:50:37Z</time>
      </trkpt>
      <trkpt lat="43.78033" lon="7.17446">
        <ele>406.3</ele>
        <time>2013-03-23T08:50:38Z</time>
      </trkpt>
      <trkpt lat="43.78038" lon="7.17437">
        <ele>405.9</ele>
        <time>2013-03-23T08:50:39Z</time>
      </trkpt>
      <trkpt lat="43.78043" lon="7.17429">
        <ele>405.8</ele>
        <time>2013-03-23T08:50:40Z</time>
      </trkpt>
      <trkpt lat="43.78049" lon="7.17422">
        <ele>405.8</ele>
        <time>2013-03-23T08:50:41Z</time>
      </trkpt>
      <trkpt lat="43.78055" lon="7.17417">
        <ele>405.8</ele>
        <time>2013-03-23T08:50:42Z</time>
      </trkpt>
      <trkpt lat="43.78062" lon="7.17413">
        <ele>405.2</ele>
        <time>2013-03-23T08:50:43Z</time>
      </trkpt>
      <trkpt lat="43.78068" lon="7.17409">
        <ele>404.9</ele>
        <time>2013-03-23T08:50:44Z</time>
      </trkpt>
      <trkpt lat="43.78074" lon="7.17405">
        <ele>404.6</ele>
        <time>2013-03-23T08:50:45Z</time>
      </trkpt>
      <trkpt lat="43.7808" lon="7.17401">
        <ele>404.7</ele>
        <time>2013-03-23T08:50:46Z</time>
      </trkpt>
      <trkpt lat="43.78086" lon="7.17397">
        <ele>404.8</ele>
        <time>2013-03-23T08:50:47Z</time>
      </trkpt>
      <trkpt lat="43.78092" lon="7.17392">
        <ele>404.9</ele>
        <time>2013-03-23T08:50:48Z</time>
      </trkpt>
      <trkpt lat="43.78099" lon="7.17387">
        <ele>405</ele>
        <time>2013-03-23T08:50:49Z</time>
      </trkpt>
      <trkpt lat="43.78106" lon="7.17382">
        <ele>404.3</ele>
        <time>2013-03-23T08:50:50Z</time>
      </trkpt>
      <trkpt lat="43.78113" lon="7.17377">
        <ele>403.9</ele>
        <time>2013-03-23T08:50:51Z</time>
      </trkpt>
      <trkpt lat="43.7812" lon="7.17371">
        <ele>403.5</ele>
        <time>2013-03-23T08:50:52Z</time>
      </trkpt>
      <trkpt lat="43.78127" lon="7.17366">
        <ele>402.8</ele>
        <time>2013-03-23T08:50:53Z</time>
      </trkpt>
      <trkpt lat="43.78135" lon="7.17359">
        <ele>402.2</ele>
        <time>2013-03-23T08:50:54Z</time>
      </trkpt>
      <trkpt lat="43.78141" lon="7.17353">
        <ele>401.8</ele>
        <time>2013-03-23T08:50:55Z</time>
      </trkpt>
      <trkpt lat="43.78148" lon="7.17347">
        <ele>401.2</ele>
        <time>2013-03-23T08:50:56Z</time>
      </trkpt>
      <trkpt lat="43.78154" lon="7.17342">
        <ele>400.7</ele>
        <time>2013-03-23T08:50:57Z</time>
      </trkpt>
      <trkpt lat="43.7816" lon="7.17337">
        <ele>400.4</ele>
        <time>2013-03-23T08:50:58Z</time>
      </trkpt>
      <trkpt lat="43.78166" lon="7.17333">
        <ele>400.1</ele>
        <time>2013-03-23T08:50:59Z</time>
      </trkpt>
      <trkpt lat="43.78171" lon="7.17329">
        <ele>399.9</ele>
        <time>2013-03-23T08:51:00Z</time>
      </trkpt>
      <trkpt lat="43.78176" lon="7.17324">
        <ele>399.8</ele>
        <time>2013-03-23T08:51:01Z</time>
      </trkpt>
      <trkpt lat="43.7818" lon="7.17321">
        <ele>399.8</ele>
        <time>2013-03-23T08:51:02Z</time>
      </trkpt>
      <trkpt lat="43.78184" lon="7.17318">
        <ele>399.8</ele>
        <time>2013-03-23T08:51:03Z</time>
      </trkpt>
      <trkpt lat="43.78192" lon="7.17313">
        <ele>400</ele>
        <time>2013-03-23T08:51:05Z</time>
      </trkpt>
      <trkpt lat="43.78199" lon="7.17308">
        <ele>400.3</ele>
        <time>2013-03-23T08:51:07Z</time>
      </trkpt>
      <trkpt lat="43.78206" lon="7.17303">
        <ele>400.4</ele>
        <time>2013-03-23T08:51:09Z</time>
      </trkpt>
      <trkpt lat="43.78213" lon="7.17299">
        <ele>400.4</ele>
        <time>2013-03-23T08:51:11Z</time>
      </trkpt>
      <trkpt lat="43.7822" lon="7.17297">
        <ele>400.1</ele>
        <time>2013-03-23T08:51:13Z</time>
      </trkpt>
      <trkpt lat="43.78227" lon="7.17299">
        <ele>399.8</ele>
        <time>2013-03-23T08:51:15Z</time>
      </trkpt>
      <trkpt lat="43.78235" lon="7.17304">
        <ele>399.7</ele>
        <time>2013-03-23T08:51:18Z</time>
      </trkpt>
      <trkpt lat="43.78237" lon="7.17306">
        <ele>399.9</ele>
        <time>2013-03-23T08:51:19Z</time>
      </trkpt>
      <trkpt lat="43.7825" lon="7.17316">
        <ele>401.9</ele>
        <time>2013-03-23T08:51:24Z</time>
      </trkpt>
      <trkpt lat="43.78255" lon="7.17321">
        <ele>401.5</ele>
        <time>2013-03-23T08:51:26Z</time>
      </trkpt>
      <trkpt lat="43.7826" lon="7.17327">
        <ele>401.5</ele>
        <time>2013-03-23T08:51:28Z</time>
      </trkpt>
      <trkpt lat="43.78265" lon="7.17332">
        <ele>401.5</ele>
        <time>2013-03-23T08:51:30Z</time>
      </trkpt>
      <trkpt lat="43.7827" lon="7.17337">
        <ele>401.8</ele>
        <time>2013-03-23T08:51:32Z</time>
      </trkpt>
      <trkpt lat="43.78275" lon="7.17343">
        <ele>402.2</ele>
        <time>2013-03-23T08:51:34Z</time>
      </trkpt>
      <trkpt lat="43.78282" lon="7.1735">
        <ele>402.7</ele>
        <time>2013-03-23T08:51:37Z</time>
      </trkpt>
      <trkpt lat="43.78289" lon="7.17356">
        <ele>402.6</ele>
        <time>2013-03-23T08:51:40Z</time>
      </trkpt>
      <trkpt lat="43.78296" lon="7.17364">
        <ele>403.1</ele>
        <time>2013-03-23T08:51:43Z</time>
      </trkpt>
      <trkpt lat="43.78303" lon="7.17371">
        <ele>402.5</ele>
        <time>2013-03-23T08:51:46Z</time>
      </trkpt>
      <trkpt lat="43.7831" lon="7.17378">
        <ele>402.6</ele>
        <time>2013-03-23T08:51:49Z</time>
      </trkpt>
      <trkpt lat="43.78315" lon="7.17383">
        <ele>402.3</ele>
        <time>2013-03-23T08:51:51Z</time>
      </trkpt>
      <trkpt lat="43.7832" lon="7.17388">
        <ele>402.3</ele>
        <time>2013-03-23T08:51:53Z</time>
      </trkpt>
      <trkpt lat="43.78325" lon="7.17394">
        <ele>402.3</ele>
        <time>2013-03-23T08:51:55Z</time>
      </trkpt>
      <trkpt lat="43.7833" lon="7.17398">
        <ele>401.8</ele>
        <time>2013-03-23T08:51:57Z</time>
      </trkpt>
      <trkpt lat="43.78338" lon="7.17405">
        <ele>401.2</ele>
        <time>2013-03-23T08:52:00Z</time>
      </trkpt>
      <trkpt lat="43.78346" lon="7.17411">
        <ele>401.3</ele>
        <time>2013-03-23T08:52:03Z</time>
      </trkpt>
      <trkpt lat="43.78352" lon="7.17416">
        <ele>401.2</ele>
        <time>2013-03-23T08:52:05Z</time>
      </trkpt>
      <trkpt lat="43.78359" lon="7.17422">
        <ele>401.6</ele>
        <time>2013-03-23T08:52:07Z</time>
      </trkpt>
      <trkpt lat="43.78363" lon="7.17425">
        <ele>401.7</ele>
        <time>2013-03-23T08:52:08Z</time>
      </trkpt>
      <trkpt lat="43.78367" lon="7.17428">
        <ele>401</ele>
        <time>2013-03-23T08:52:09Z</time>
      </trkpt>
      <trkpt lat="43.78371" lon="7.17433">
        <ele>400.5</ele>
        <time>2013-03-23T08:52:10Z</time>
      </trkpt>
      <trkpt lat="43.78376" lon="7.17437">
        <ele>400.1</ele>
        <time>2013-03-23T08:52:11Z</time>
      </trkpt>
      <trkpt lat="43.78382" lon="7.17441">
        <ele>399.8</ele>
        <time>2013-03-23T08:52:12Z</time>
      </trkpt>
      <trkpt lat="43.78388" lon="7.17445">
        <ele>399.3</ele>
        <time>2013-03-23T08:52:13Z</time>
      </trkpt>
      <trkpt lat="43.78395" lon="7.1745">
        <ele>398.9</ele>
        <time>2013-03-23T08:52:14Z</time>
      </trkpt>
      <trkpt lat="43.78401" lon="7.17455">
        <ele>398.6</ele>
        <time>2013-03-23T08:52:15Z</time>
      </trkpt>
      <trkpt lat="43.78408" lon="7.17461">
        <ele>398.5</ele>
        <time>2013-03-23T08:52:16Z</time>
      </trkpt>
      <trkpt lat="43.78415" lon="7.17466">
        <ele>398.4</ele>
        <time>2013-03-23T08:52:17Z</time>
      </trkpt>
      <trkpt lat="43.78422" lon="7.17471">
        <ele>398.4</ele>
        <time>2013-03-23T08:52:18Z</time>
      </trkpt>
      <trkpt lat="43.7843" lon="7.17476">
        <ele>398</ele>
        <time>2013-03-23T08:52:19Z</time>
      </trkpt>
      <trkpt lat="43.78437" lon="7.1748">
        <ele>397.7</ele>
        <time>2013-03-23T08:52:20Z</time>
      </trkpt>
      <trkpt lat="43.78445" lon="7.17484">
        <ele>397.5</ele>
        <time>2013-03-23T08:52:21Z</time>
      </trkpt>
      <trkpt lat="43.78454" lon="7.17487">
        <ele>396.9</ele>
        <time>2013-03-23T08:52:22Z</time>
      </trkpt>
      <trkpt lat="43.78462" lon="7.17491">
        <ele>396.4</ele>
        <time>2013-03-23T08:52:23Z</time>
      </trkpt>
      <trkpt lat="43.78469" lon="7.17494">
        <ele>396</ele>
        <time>2013-03-23T08:52:24Z</time>
      </trkpt>
      <trkpt lat="43.78477" lon="7.17497">
        <ele>395.2</ele>
        <time>2013-03-23T08:52:25Z</time>
      </trkpt>
      <trkpt lat="43.78484" lon="7.175">
        <ele>394.6</ele>
        <time>2013-03-23T08:52:26Z</time>
      </trkpt>
      <trkpt lat="43.78491" lon="7.17504">
        <ele>394.1</ele>
        <time>2013-03-23T08:52:27Z</time>
      </trkpt>
      <trkpt lat="43.78498" lon="7.17507">
        <ele>393.8</ele>
        <time>2013-03-23T08:52:28Z</time>
      </trkpt>
      <trkpt lat="43.78504" lon="7.1751">
        <ele>393.7</ele>
        <time>2013-03-23T08:52:29Z</time>
      </trkpt>
      <trkpt lat="43.78509" lon="7.17512">
        <ele>393.6</ele>
        <time>2013-03-23T08:52:30Z</time>
      </trkpt>
      <trkpt lat="43.78515" lon="7.17513">
        <ele>393.5</ele>
        <time>2013-03-23T08:52:31Z</time>
      </trkpt>
      <trkpt lat="43.7852" lon="7.17515">
        <ele>393.6</ele>
        <time>2013-03-23T08:52:32Z</time>
      </trkpt>
      <trkpt lat="43.78525" lon="7.17516">
        <ele>393.6</ele>
        <time>2013-03-23T08:52:33Z</time>
      </trkpt>
      <trkpt lat="43.7853" lon="7.17518">
        <ele>393.7</ele>
        <time>2013-03-23T08:52:34Z</time>
      </trkpt>
      <trkpt lat="43.78535" lon="7.17519">
        <ele>393.3</ele>
        <time>2013-03-23T08:52:35Z</time>
      </trkpt>
      <trkpt lat="43.7854" lon="7.1752">
        <ele>393</ele>
        <time>2013-03-23T08:52:36Z</time>
      </trkpt>
      <trkpt lat="43.78544" lon="7.1752">
        <ele>392.8</ele>
        <time>2013-03-23T08:52:37Z</time>
      </trkpt>
      <trkpt lat="43.78549" lon="7.17521">
        <ele>392.8</ele>
        <time>2013-03-23T08:52:38Z</time>
      </trkpt>
      <trkpt lat="43.78558" lon="7.17522">
        <ele>392.7</ele>
        <time>2013-03-23T08:52:40Z</time>
      </trkpt>
      <trkpt lat="43.78566" lon="7.17526">
        <ele>391.9</ele>
        <time>2013-03-23T08:52:42Z</time>
      </trkpt>
      <trkpt lat="43.7857" lon="7.17536">
        <ele>391.4</ele>
        <time>2013-03-23T08:52:44Z</time>
      </trkpt>
      <trkpt lat="43.78572" lon="7.17545">
        <ele>391.1</ele>
        <time>2013-03-23T08:52:46Z</time>
      </trkpt>
      <trkpt lat="43.78574" lon="7.17555">
        <ele>390.9</ele>
        <time>2013-03-23T08:52:48Z</time>
      </trkpt>
      <trkpt lat="43.78575" lon="7.17564">
        <ele>390.7</ele>
        <time>2013-03-23T08:52:50Z</time>
      </trkpt>
      <trkpt lat="43.78576" lon="7.17576">
        <ele>391.7</ele>
        <time>2013-03-23T08:52:53Z</time>
      </trkpt>
      <trkpt lat="43.78578" lon="7.17587">
        <ele>392.1</ele>
        <time>2013-03-23T08:52:56Z</time>
      </trkpt>
      <trkpt lat="43.78578" lon="7.17596">
        <ele>392.3</ele>
        <time>2013-03-23T08:52:58Z</time>
      </trkpt>
      <trkpt lat="43.78579" lon="7.17604">
        <ele>392.1</ele>
        <time>2013-03-23T08:53:00Z</time>
      </trkpt>
      <trkpt lat="43.78581" lon="7.17613">
        <ele>391.8</ele>
        <time>2013-03-23T08:53:02Z</time>
      </trkpt>
      <trkpt lat="43.78582" lon="7.17622">
        <ele>391.8</ele>
        <time>2013-03-23T08:53:04Z</time>
      </trkpt>
      <trkpt lat="43.78584" lon="7.17632">
        <ele>392</ele>
        <time>2013-03-23T08:53:06Z</time>
      </trkpt>
      <trkpt lat="43.78589" lon="7.17642">
        <ele>391.8</ele>
        <time>2013-03-23T08:53:08Z</time>
      </trkpt>
      <trkpt lat="43.78593" lon="7.17651">
        <ele>391.5</ele>
        <time>2013-03-23T08:53:10Z</time>
      </trkpt>
      <trkpt lat="43.78598" lon="7.1766">
        <ele>391.1</ele>
        <time>2013-03-23T08:53:12Z</time>
      </trkpt>
      <trkpt lat="43.78604" lon="7.17669">
        <ele>390.9</ele>
        <time>2013-03-23T08:53:14Z</time>
      </trkpt>
      <trkpt lat="43.78609" lon="7.17677">
        <ele>390.6</ele>
        <time>2013-03-23T08:53:16Z</time>
      </trkpt>
      <trkpt lat="43.78615" lon="7.17685">
        <ele>390.3</ele>
        <time>2013-03-23T08:53:18Z</time>
      </trkpt>
      <trkpt lat="43.78622" lon="7.17693">
        <ele>390.2</ele>
        <time>2013-03-23T08:53:20Z</time>
      </trkpt>
      <trkpt lat="43.78625" lon="7.17698">
        <ele>390.1</ele>
        <time>2013-03-23T08:53:21Z</time>
      </trkpt>
      <trkpt lat="43.78629" lon="7.17703">
        <ele>390.1</ele>
        <time>2013-03-23T08:53:22Z</time>
      </trkpt>
      <trkpt lat="43.78633" lon="7.17708">
        <ele>389.8</ele>
        <time>2013-03-23T08:53:23Z</time>
      </trkpt>
      <trkpt lat="43.78637" lon="7.17714">
        <ele>389.6</ele>
        <time>2013-03-23T08:53:24Z</time>
      </trkpt>
      <trkpt lat="43.78642" lon="7.1772">
        <ele>389.5</ele>
        <time>2013-03-23T08:53:25Z</time>
      </trkpt>
      <trkpt lat="43.78646" lon="7.17727">
        <ele>389.3</ele>
        <time>2013-03-23T08:53:26Z</time>
      </trkpt>
      <trkpt lat="43.78651" lon="7.17733">
        <ele>389.2</ele>
        <time>2013-03-23T08:53:27Z</time>
      </trkpt>
      <trkpt lat="43.78655" lon="7.1774">
        <ele>389.1</ele>
        <time>2013-03-23T08:53:28Z</time>
      </trkpt>
      <trkpt lat="43.7866" lon="7.17747">
        <ele>389.1</ele>
        <time>2013-03-23T08:53:29Z</time>
      </trkpt>
      <trkpt lat="43.78665" lon="7.17753">
        <ele>389.1</ele>
        <time>2013-03-23T08:53:30Z</time>
      </trkpt>
      <trkpt lat="43.7867" lon="7.1776">
        <ele>389.1</ele>
        <time>2013-03-23T08:53:31Z</time>
      </trkpt>
      <trkpt lat="43.78674" lon="7.17767">
        <ele>388.5</ele>
        <time>2013-03-23T08:53:32Z</time>
      </trkpt>
      <trkpt lat="43.78679" lon="7.17775">
        <ele>388.2</ele>
        <time>2013-03-23T08:53:33Z</time>
      </trkpt>
      <trkpt lat="43.78683" lon="7.17782">
        <ele>387.9</ele>
        <time>2013-03-23T08:53:34Z</time>
      </trkpt>
      <trkpt lat="43.78688" lon="7.17788">
        <ele>387.4</ele>
        <time>2013-03-23T08:53:35Z</time>
      </trkpt>
      <trkpt lat="43.78694" lon="7.17794">
        <ele>387.1</ele>
        <time>2013-03-23T08:53:36Z</time>
      </trkpt>
      <trkpt lat="43.78699" lon="7.178">
        <ele>386.9</ele>
        <time>2013-03-23T08:53:37Z</time>
      </trkpt>
      <trkpt lat="43.78705" lon="7.17806">
        <ele>386.7</ele>
        <time>2013-03-23T08:53:38Z</time>
      </trkpt>
      <trkpt lat="43.78709" lon="7.17813">
        <ele>386.3</ele>
        <time>2013-03-23T08:53:39Z</time>
      </trkpt>
      <trkpt lat="43.78714" lon="7.1782">
        <ele>385.9</ele>
        <time>2013-03-23T08:53:40Z</time>
      </trkpt>
      <trkpt lat="43.78718" lon="7.17828">
        <ele>385.7</ele>
        <time>2013-03-23T08:53:41Z</time>
      </trkpt>
      <trkpt lat="43.78722" lon="7.17835">
        <ele>385</ele>
        <time>2013-03-23T08:53:42Z</time>
      </trkpt>
      <trkpt lat="43.78726" lon="7.17843">
        <ele>384.5</ele>
        <time>2013-03-23T08:53:43Z</time>
      </trkpt>
      <trkpt lat="43.78729" lon="7.17851">
        <ele>384.1</ele>
        <time>2013-03-23T08:53:44Z</time>
      </trkpt>
      <trkpt lat="43.78731" lon="7.1786">
        <ele>383.6</ele>
        <time>2013-03-23T08:53:45Z</time>
      </trkpt>
      <trkpt lat="43.78732" lon="7.1787">
        <ele>383.2</ele>
        <time>2013-03-23T08:53:46Z</time>
      </trkpt>
      <trkpt lat="43.78733" lon="7.17879">
        <ele>382.9</ele>
        <time>2013-03-23T08:53:47Z</time>
      </trkpt>
      <trkpt lat="43.78735" lon="7.17889">
        <ele>382.6</ele>
        <time>2013-03-23T08:53:48Z</time>
      </trkpt>
      <trkpt lat="43.78735" lon="7.17898">
        <ele>382.3</ele>
        <time>2013-03-23T08:53:49Z</time>
      </trkpt>
      <trkpt lat="43.78735" lon="7.17907">
        <ele>382.1</ele>
        <time>2013-03-23T08:53:50Z</time>
      </trkpt>
      <trkpt lat="43.78735" lon="7.17917">
        <ele>381.4</ele>
        <time>2013-03-23T08:53:51Z</time>
      </trkpt>
      <trkpt lat="43.78736" lon="7.17927">
        <ele>380.9</ele>
        <time>2013-03-23T08:53:52Z</time>
      </trkpt>
      <trkpt lat="43.78735" lon="7.17938">
        <ele>380.5</ele>
        <time>2013-03-23T08:53:53Z</time>
      </trkpt>
      <trkpt lat="43.78735" lon="7.17949">
        <ele>380.2</ele>
        <time>2013-03-23T08:53:54Z</time>
      </trkpt>
      <trkpt lat="43.78737" lon="7.17959">
        <ele>379.8</ele>
        <time>2013-03-23T08:53:55Z</time>
      </trkpt>
      <trkpt lat="43.78739" lon="7.17969">
        <ele>379.5</ele>
        <time>2013-03-23T08:53:56Z</time>
      </trkpt>
      <trkpt lat="43.78741" lon="7.17979">
        <ele>379.3</ele>
        <time>2013-03-23T08:53:57Z</time>
      </trkpt>
      <trkpt lat="43.78742" lon="7.17988">
        <ele>378.7</ele>
        <time>2013-03-23T08:53:58Z</time>
      </trkpt>
      <trkpt lat="43.78744" lon="7.17997">
        <ele>378.3</ele>
        <time>2013-03-23T08:53:59Z</time>
      </trkpt>
      <trkpt lat="43.78747" lon="7.18005">
        <ele>378</ele>
        <time>2013-03-23T08:54:00Z</time>
      </trkpt>
      <trkpt lat="43.78749" lon="7.18011">
        <ele>377.8</ele>
        <time>2013-03-23T08:54:01Z</time>
      </trkpt>
      <trkpt lat="43.78752" lon="7.18017">
        <ele>377.6</ele>
        <time>2013-03-23T08:54:02Z</time>
      </trkpt>
      <trkpt lat="43.78756" lon="7.18027">
        <ele>377.6</ele>
        <time>2013-03-23T08:54:04Z</time>
      </trkpt>
      <trkpt lat="43.7876" lon="7.18035">
        <ele>377.7</ele>
        <time>2013-03-23T08:54:06Z</time>
      </trkpt>
      <trkpt lat="43.78764" lon="7.18043">
        <ele>378</ele>
        <time>2013-03-23T08:54:08Z</time>
      </trkpt>
      <trkpt lat="43.78769" lon="7.18053">
        <ele>378.5</ele>
        <time>2013-03-23T08:54:11Z</time>
      </trkpt>
      <trkpt lat="43.78772" lon="7.18064">
        <ele>379.4</ele>
        <time>2013-03-23T08:54:14Z</time>
      </trkpt>
      <trkpt lat="43.78777" lon="7.18074">
        <ele>379.9</ele>
        <time>2013-03-23T08:54:17Z</time>
      </trkpt>
      <trkpt lat="43.78781" lon="7.18082">
        <ele>379.9</ele>
        <time>2013-03-23T08:54:20Z</time>
      </trkpt>
      <trkpt lat="43.78785" lon="7.18091">
        <ele>380.4</ele>
        <time>2013-03-23T08:54:23Z</time>
      </trkpt>
      <trkpt lat="43.78786" lon="7.18094">
        <ele>381</ele>
        <time>2013-03-23T08:54:24Z</time>
      </trkpt>
      <trkpt lat="43.78793" lon="7.18108">
        <ele>381.3</ele>
        <time>2013-03-23T08:54:29Z</time>
      </trkpt>
      <trkpt lat="43.78796" lon="7.18117">
        <ele>380.7</ele>
        <time>2013-03-23T08:54:32Z</time>
      </trkpt>
      <trkpt lat="43.78799" lon="7.18126">
        <ele>382.7</ele>
        <time>2013-03-23T08:54:35Z</time>
      </trkpt>
      <trkpt lat="43.78802" lon="7.18136">
        <ele>382.6</ele>
        <time>2013-03-23T08:54:38Z</time>
      </trkpt>
      <trkpt lat="43.78806" lon="7.18145">
        <ele>383</ele>
        <time>2013-03-23T08:54:41Z</time>
      </trkpt>
      <trkpt lat="43.7881" lon="7.18154">
        <ele>383.7</ele>
        <time>2013-03-23T08:54:44Z</time>
      </trkpt>
      <trkpt lat="43.78813" lon="7.18162">
        <ele>384.7</ele>
        <time>2013-03-23T08:54:47Z</time>
      </trkpt>
      <trkpt lat="43.78816" lon="7.1817">
        <ele>385.2</ele>
        <time>2013-03-23T08:54:50Z</time>
      </trkpt>
      <trkpt lat="43.7882" lon="7.18179">
        <ele>385.3</ele>
        <time>2013-03-23T08:54:53Z</time>
      </trkpt>
      <trkpt lat="43.78824" lon="7.18187">
        <ele>386.2</ele>
        <time>2013-03-23T08:54:56Z</time>
      </trkpt>
      <trkpt lat="43.78829" lon="7.18196">
        <ele>386.4</ele>
        <time>2013-03-23T08:54:59Z</time>
      </trkpt>
      <trkpt lat="43.78834" lon="7.18205">
        <ele>386.1</ele>
        <time>2013-03-23T08:55:02Z</time>
      </trkpt>
      <trkpt lat="43.78838" lon="7.18213">
        <ele>386.2</ele>
        <time>2013-03-23T08:55:05Z</time>
      </trkpt>
      <trkpt lat="43.78842" lon="7.18221">
        <ele>386.1</ele>
        <time>2013-03-23T08:55:08Z</time>
      </trkpt>
      <trkpt lat="43.78847" lon="7.18229">
        <ele>386.1</ele>
        <time>2013-03-23T08:55:11Z</time>
      </trkpt>
      <trkpt lat="43.78851" lon="7.18237">
        <ele>386.3</ele>
        <time>2013-03-23T08:55:14Z</time>
      </trkpt>
      <trkpt lat="43.78856" lon="7.18246">
        <ele>386.8</ele>
        <time>2013-03-23T08:55:17Z</time>
      </trkpt>
      <trkpt lat="43.78859" lon="7.18253">
        <ele>386.8</ele>
        <time>2013-03-23T08:55:19Z</time>
      </trkpt>
      <trkpt lat="43.78864" lon="7.18258">
        <ele>386.9</ele>
        <time>2013-03-23T08:55:21Z</time>
      </trkpt>
      <trkpt lat="43.78871" lon="7.18265">
        <ele>386.7</ele>
        <time>2013-03-23T08:55:24Z</time>
      </trkpt>
      <trkpt lat="43.78874" lon="7.18267">
        <ele>386.6</ele>
        <time>2013-03-23T08:55:25Z</time>
      </trkpt>
      <trkpt lat="43.78886" lon="7.18272">
        <ele>386.5</ele>
        <time>2013-03-23T08:55:29Z</time>
      </trkpt>
      <trkpt lat="43.78892" lon="7.1828">
        <ele>386.4</ele>
        <time>2013-03-23T08:55:31Z</time>
      </trkpt>
      <trkpt lat="43.78895" lon="7.18284">
        <ele>386.4</ele>
        <time>2013-03-23T08:55:32Z</time>
      </trkpt>
      <trkpt lat="43.78899" lon="7.18289">
        <ele>386.4</ele>
        <time>2013-03-23T08:55:33Z</time>
      </trkpt>
      <trkpt lat="43.78902" lon="7.18294">
        <ele>386.1</ele>
        <time>2013-03-23T08:55:34Z</time>
      </trkpt>
      <trkpt lat="43.78906" lon="7.18298">
        <ele>385.8</ele>
        <time>2013-03-23T08:55:35Z</time>
      </trkpt>
      <trkpt lat="43.7891" lon="7.18303">
        <ele>385.7</ele>
        <time>2013-03-23T08:55:36Z</time>
      </trkpt>
      <trkpt lat="43.78913" lon="7.18308">
        <ele>385.8</ele>
        <time>2013-03-23T08:55:37Z</time>
      </trkpt>
      <trkpt lat="43.78916" lon="7.18313">
        <ele>385.8</ele>
        <time>2013-03-23T08:55:38Z</time>
      </trkpt>
      <trkpt lat="43.78919" lon="7.18318">
        <ele>385.9</ele>
        <time>2013-03-23T08:55:39Z</time>
      </trkpt>
      <trkpt lat="43.78925" lon="7.18327">
        <ele>385.4</ele>
        <time>2013-03-23T08:55:41Z</time>
      </trkpt>
      <trkpt lat="43.7893" lon="7.18335">
        <ele>385.2</ele>
        <time>2013-03-23T08:55:43Z</time>
      </trkpt>
      <trkpt lat="43.78935" lon="7.18341">
        <ele>385.2</ele>
        <time>2013-03-23T08:55:45Z</time>
      </trkpt>
      <trkpt lat="43.78941" lon="7.18346">
        <ele>386.3</ele>
        <time>2013-03-23T08:55:47Z</time>
      </trkpt>
      <trkpt lat="43.78946" lon="7.1835">
        <ele>386.9</ele>
        <time>2013-03-23T08:55:49Z</time>
      </trkpt>
      <trkpt lat="43.78954" lon="7.18354">
        <ele>388.8</ele>
        <time>2013-03-23T08:55:52Z</time>
      </trkpt>
      <trkpt lat="43.78962" lon="7.18358">
        <ele>387.5</ele>
        <time>2013-03-23T08:55:56Z</time>
      </trkpt>
      <trkpt lat="43.78969" lon="7.18362">
        <ele>387</ele>
        <time>2013-03-23T08:56:00Z</time>
      </trkpt>
      <trkpt lat="43.78977" lon="7.18365">
        <ele>387.4</ele>
        <time>2013-03-23T08:56:04Z</time>
      </trkpt>
      <trkpt lat="43.78983" lon="7.18368">
        <ele>388.1</ele>
        <time>2013-03-23T08:56:07Z</time>
      </trkpt>
      <trkpt lat="43.78992" lon="7.1837">
        <ele>387.4</ele>
        <time>2013-03-23T08:56:10Z</time>
      </trkpt>
      <trkpt lat="43.78999" lon="7.18372">
        <ele>387</ele>
        <time>2013-03-23T08:56:12Z</time>
      </trkpt>
      <trkpt lat="43.79006" lon="7.18376">
        <ele>386.8</ele>
        <time>2013-03-23T08:56:14Z</time>
      </trkpt>
      <trkpt lat="43.79015" lon="7.18378">
        <ele>386.5</ele>
        <time>2013-03-23T08:56:16Z</time>
      </trkpt>
      <trkpt lat="43.79019" lon="7.18379">
        <ele>386.4</ele>
        <time>2013-03-23T08:56:17Z</time>
      </trkpt>
      <trkpt lat="43.79024" lon="7.18381">
        <ele>386.1</ele>
        <time>2013-03-23T08:56:18Z</time>
      </trkpt>
      <trkpt lat="43.79029" lon="7.18382">
        <ele>385.9</ele>
        <time>2013-03-23T08:56:19Z</time>
      </trkpt>
      <trkpt lat="43.79033" lon="7.18384">
        <ele>385.8</ele>
        <time>2013-03-23T08:56:20Z</time>
      </trkpt>
      <trkpt lat="43.79038" lon="7.18386">
        <ele>385.8</ele>
        <time>2013-03-23T08:56:21Z</time>
      </trkpt>
      <trkpt lat="43.79044" lon="7.18387">
        <ele>385.9</ele>
        <time>2013-03-23T08:56:22Z</time>
      </trkpt>
      <trkpt lat="43.79049" lon="7.18389">
        <ele>385.9</ele>
        <time>2013-03-23T08:56:23Z</time>
      </trkpt>
      <trkpt lat="43.79054" lon="7.18391">
        <ele>385.9</ele>
        <time>2013-03-23T08:56:24Z</time>
      </trkpt>
      <trkpt lat="43.79059" lon="7.18393">
        <ele>385.7</ele>
        <time>2013-03-23T08:56:25Z</time>
      </trkpt>
      <trkpt lat="43.79064" lon="7.18395">
        <ele>385.6</ele>
        <time>2013-03-23T08:56:26Z</time>
      </trkpt>
      <trkpt lat="43.7907" lon="7.18397">
        <ele>385.5</ele>
        <time>2013-03-23T08:56:27Z</time>
      </trkpt>
      <trkpt lat="43.79075" lon="7.18399">
        <ele>384.6</ele>
        <time>2013-03-23T08:56:28Z</time>
      </trkpt>
      <trkpt lat="43.7908" lon="7.18402">
        <ele>384</ele>
        <time>2013-03-23T08:56:29Z</time>
      </trkpt>
      <trkpt lat="43.79085" lon="7.18405">
        <ele>383.5</ele>
        <time>2013-03-23T08:56:30Z</time>
      </trkpt>
      <trkpt lat="43.7909" lon="7.18408">
        <ele>383.7</ele>
        <time>2013-03-23T08:56:31Z</time>
      </trkpt>
      <trkpt lat="43.79094" lon="7.18411">
        <ele>383.9</ele>
        <time>2013-03-23T08:56:32Z</time>
      </trkpt>
      <trkpt lat="43.79099" lon="7.18413">
        <ele>384</ele>
        <time>2013-03-23T08:56:33Z</time>
      </trkpt>
      <trkpt lat="43.79104" lon="7.18416">
        <ele>383.7</ele>
        <time>2013-03-23T08:56:34Z</time>
      </trkpt>
      <trkpt lat="43.79108" lon="7.18419">
        <ele>383.6</ele>
        <time>2013-03-23T08:56:35Z</time>
      </trkpt>
      <trkpt lat="43.79113" lon="7.18421">
        <ele>383.4</ele>
        <time>2013-03-23T08:56:36Z</time>
      </trkpt>
      <trkpt lat="43.79117" lon="7.18424">
        <ele>383.2</ele>
        <time>2013-03-23T08:56:37Z</time>
      </trkpt>
      <trkpt lat="43.79122" lon="7.18426">
        <ele>383.1</ele>
        <time>2013-03-23T08:56:38Z</time>
      </trkpt>
      <trkpt lat="43.7913" lon="7.1843">
        <ele>382.9</ele>
        <time>2013-03-23T08:56:40Z</time>
      </trkpt>
      <trkpt lat="43.79138" lon="7.18435">
        <ele>383.1</ele>
        <time>2013-03-23T08:56:42Z</time>
      </trkpt>
      <trkpt lat="43.79145" lon="7.18437">
        <ele>383.5</ele>
        <time>2013-03-23T08:56:44Z</time>
      </trkpt>
      <trkpt lat="43.79154" lon="7.18438">
        <ele>384</ele>
        <time>2013-03-23T08:56:47Z</time>
      </trkpt>
      <trkpt lat="43.79161" lon="7.18438">
        <ele>384.4</ele>
        <time>2013-03-23T08:56:50Z</time>
      </trkpt>
      <trkpt lat="43.79169" lon="7.18437">
        <ele>384.8</ele>
        <time>2013-03-23T08:56:53Z</time>
      </trkpt>
      <trkpt lat="43.79177" lon="7.18434">
        <ele>385.1</ele>
        <time>2013-03-23T08:56:57Z</time>
      </trkpt>
      <trkpt lat="43.79185" lon="7.18433">
        <ele>386</ele>
        <time>2013-03-23T08:57:01Z</time>
      </trkpt>
      <trkpt lat="43.79193" lon="7.18431">
        <ele>386.8</ele>
        <time>2013-03-23T08:57:05Z</time>
      </trkpt>
      <trkpt lat="43.79202" lon="7.18429">
        <ele>386.9</ele>
        <time>2013-03-23T08:57:09Z</time>
      </trkpt>
      <trkpt lat="43.7921" lon="7.18428">
        <ele>387.2</ele>
        <time>2013-03-23T08:57:13Z</time>
      </trkpt>
      <trkpt lat="43.79219" lon="7.18427">
        <ele>387</ele>
        <time>2013-03-23T08:57:17Z</time>
      </trkpt>
      <trkpt lat="43.79227" lon="7.18425">
        <ele>388.4</ele>
        <time>2013-03-23T08:57:21Z</time>
      </trkpt>
      <trkpt lat="43.79235" lon="7.18423">
        <ele>388.6</ele>
        <time>2013-03-23T08:57:25Z</time>
      </trkpt>
      <trkpt lat="43.79243" lon="7.1842">
        <ele>389.1</ele>
        <time>2013-03-23T08:57:29Z</time>
      </trkpt>
      <trkpt lat="43.79245" lon="7.18419">
        <ele>388.9</ele>
        <time>2013-03-23T08:57:30Z</time>
      </trkpt>
      <trkpt lat="43.79257" lon="7.18411">
        <ele>391.2</ele>
        <time>2013-03-23T08:57:37Z</time>
      </trkpt>
      <trkpt lat="43.79264" lon="7.18406">
        <ele>391.3</ele>
        <time>2013-03-23T08:57:41Z</time>
      </trkpt>
      <trkpt lat="43.79271" lon="7.18401">
        <ele>392.1</ele>
        <time>2013-03-23T08:57:45Z</time>
      </trkpt>
      <trkpt lat="43.79278" lon="7.18394">
        <ele>393</ele>
        <time>2013-03-23T08:57:50Z</time>
      </trkpt>
      <trkpt lat="43.79286" lon="7.18388">
        <ele>392.3</ele>
        <time>2013-03-23T08:57:55Z</time>
      </trkpt>
      <trkpt lat="43.79293" lon="7.18384">
        <ele>393.4</ele>
        <time>2013-03-23T08:58:00Z</time>
      </trkpt>
      <trkpt lat="43.79302" lon="7.18382">
        <ele>393.9</ele>
        <time>2013-03-23T08:58:05Z</time>
      </trkpt>
      <trkpt lat="43.7931" lon="7.18379">
        <ele>395</ele>
        <time>2013-03-23T08:58:10Z</time>
      </trkpt>
      <trkpt lat="43.79318" lon="7.18375">
        <ele>395.3</ele>
        <time>2013-03-23T08:58:15Z</time>
      </trkpt>
      <trkpt lat="43.79326" lon="7.18373">
        <ele>396.2</ele>
        <time>2013-03-23T08:58:20Z</time>
      </trkpt>
      <trkpt lat="43.79335" lon="7.18369">
        <ele>396.7</ele>
        <time>2013-03-23T08:58:25Z</time>
      </trkpt>
      <trkpt lat="43.79342" lon="7.18364">
        <ele>398.4</ele>
        <time>2013-03-23T08:58:30Z</time>
      </trkpt>
      <trkpt lat="43.79344" lon="7.18363">
        <ele>398.5</ele>
        <time>2013-03-23T08:58:31Z</time>
      </trkpt>
      <trkpt lat="43.79357" lon="7.18355">
        <ele>399.3</ele>
        <time>2013-03-23T08:58:40Z</time>
      </trkpt>
      <trkpt lat="43.79365" lon="7.18351">
        <ele>401.6</ele>
        <time>2013-03-23T08:58:45Z</time>
      </trkpt>
      <trkpt lat="43.79372" lon="7.18348">
        <ele>401.8</ele>
        <time>2013-03-23T08:58:49Z</time>
      </trkpt>
      <trkpt lat="43.79379" lon="7.18343">
        <ele>401.8</ele>
        <time>2013-03-23T08:58:53Z</time>
      </trkpt>
      <trkpt lat="43.79384" lon="7.18337">
        <ele>402.3</ele>
        <time>2013-03-23T08:58:56Z</time>
      </trkpt>
      <trkpt lat="43.7939" lon="7.1833">
        <ele>402.9</ele>
        <time>2013-03-23T08:58:59Z</time>
      </trkpt>
      <trkpt lat="43.79395" lon="7.18322">
        <ele>403.7</ele>
        <time>2013-03-23T08:59:02Z</time>
      </trkpt>
      <trkpt lat="43.79401" lon="7.18314">
        <ele>403.4</ele>
        <time>2013-03-23T08:59:06Z</time>
      </trkpt>
      <trkpt lat="43.79408" lon="7.18306">
        <ele>403.8</ele>
        <time>2013-03-23T08:59:10Z</time>
      </trkpt>
      <trkpt lat="43.79413" lon="7.18299">
        <ele>404.3</ele>
        <time>2013-03-23T08:59:14Z</time>
      </trkpt>
      <trkpt lat="43.79419" lon="7.18293">
        <ele>405.7</ele>
        <time>2013-03-23T08:59:18Z</time>
      </trkpt>
      <trkpt lat="43.79427" lon="7.18285">
        <ele>406.8</ele>
        <time>2013-03-23T08:59:23Z</time>
      </trkpt>
      <trkpt lat="43.79433" lon="7.18278">
        <ele>407</ele>
        <time>2013-03-23T08:59:28Z</time>
      </trkpt>
      <trkpt lat="43.79439" lon="7.18271">
        <ele>407.9</ele>
        <time>2013-03-23T08:59:33Z</time>
      </trkpt>
      <trkpt lat="43.79441" lon="7.1827">
        <ele>408.3</ele>
        <time>2013-03-23T08:59:34Z</time>
      </trkpt>
      <trkpt lat="43.79452" lon="7.18259">
        <ele>409.5</ele>
        <time>2013-03-23T08:59:43Z</time>
      </trkpt>
      <trkpt lat="43.79458" lon="7.18252">
        <ele>409.8</ele>
        <time>2013-03-23T08:59:48Z</time>
      </trkpt>
      <trkpt lat="43.79464" lon="7.18246">
        <ele>411.4</ele>
        <time>2013-03-23T08:59:53Z</time>
      </trkpt>
      <trkpt lat="43.79471" lon="7.18239">
        <ele>411</ele>
        <time>2013-03-23T08:59:58Z</time>
      </trkpt>
      <trkpt lat="43.79477" lon="7.18234">
        <ele>411.5</ele>
        <time>2013-03-23T09:00:02Z</time>
      </trkpt>
      <trkpt lat="43.79484" lon="7.18228">
        <ele>412.4</ele>
        <time>2013-03-23T09:00:06Z</time>
      </trkpt>
      <trkpt lat="43.79491" lon="7.18222">
        <ele>413.1</ele>
        <time>2013-03-23T09:00:11Z</time>
      </trkpt>
      <trkpt lat="43.79498" lon="7.18218">
        <ele>413.9</ele>
        <time>2013-03-23T09:00:15Z</time>
      </trkpt>
      <trkpt lat="43.79505" lon="7.18213">
        <ele>414.7</ele>
        <time>2013-03-23T09:00:19Z</time>
      </trkpt>
      <trkpt lat="43.79512" lon="7.18209">
        <ele>414.7</ele>
        <time>2013-03-23T09:00:23Z</time>
      </trkpt>
      <trkpt lat="43.79519" lon="7.18204">
        <ele>414.9</ele>
        <time>2013-03-23T09:00:27Z</time>
      </trkpt>
      <trkpt lat="43.79525" lon="7.18199">
        <ele>416.3</ele>
        <time>2013-03-23T09:00:31Z</time>
      </trkpt>
      <trkpt lat="43.79532" lon="7.18193">
        <ele>417.5</ele>
        <time>2013-03-23T09:00:35Z</time>
      </trkpt>
      <trkpt lat="43.79534" lon="7.18192">
        <ele>417.8</ele>
        <time>2013-03-23T09:00:36Z</time>
      </trkpt>
      <trkpt lat="43.79547" lon="7.18184">
        <ele>418.5</ele>
        <time>2013-03-23T09:00:43Z</time>
      </trkpt>
      <trkpt lat="43.79554" lon="7.18179">
        <ele>418.6</ele>
        <time>2013-03-23T09:00:47Z</time>
      </trkpt>
      <trkpt lat="43.79562" lon="7.18173">
        <ele>419.4</ele>
        <time>2013-03-23T09:00:51Z</time>
      </trkpt>
      <trkpt lat="43.79569" lon="7.18167">
        <ele>420</ele>
        <time>2013-03-23T09:00:55Z</time>
      </trkpt>
      <trkpt lat="43.79576" lon="7.18161">
        <ele>420.2</ele>
        <time>2013-03-23T09:00:59Z</time>
      </trkpt>
      <trkpt lat="43.79582" lon="7.18155">
        <ele>420.7</ele>
        <time>2013-03-23T09:01:03Z</time>
      </trkpt>
      <trkpt lat="43.7959" lon="7.18151">
        <ele>421.4</ele>
        <time>2013-03-23T09:01:07Z</time>
      </trkpt>
      <trkpt lat="43.79597" lon="7.18149">
        <ele>422.5</ele>
        <time>2013-03-23T09:01:11Z</time>
      </trkpt>
      <trkpt lat="43.79605" lon="7.18148">
        <ele>422.2</ele>
        <time>2013-03-23T09:01:15Z</time>
      </trkpt>
      <trkpt lat="43.79614" lon="7.18148">
        <ele>423.3</ele>
        <time>2013-03-23T09:01:19Z</time>
      </trkpt>
      <trkpt lat="43.79621" lon="7.18149">
        <ele>423.7</ele>
        <time>2013-03-23T09:01:23Z</time>
      </trkpt>
      <trkpt lat="43.79629" lon="7.1815">
        <ele>423.6</ele>
        <time>2013-03-23T09:01:27Z</time>
      </trkpt>
      <trkpt lat="43.79637" lon="7.18151">
        <ele>424.5</ele>
        <time>2013-03-23T09:01:31Z</time>
      </trkpt>
      <trkpt lat="43.79645" lon="7.18151">
        <ele>425.5</ele>
        <time>2013-03-23T09:01:35Z</time>
      </trkpt>
      <trkpt lat="43.79653" lon="7.18153">
        <ele>425.2</ele>
        <time>2013-03-23T09:01:39Z</time>
      </trkpt>
      <trkpt lat="43.79655" lon="7.18153">
        <ele>425.1</ele>
        <time>2013-03-23T09:01:40Z</time>
      </trkpt>
      <trkpt lat="43.7967" lon="7.18157">
        <ele>427.1</ele>
        <time>2013-03-23T09:01:47Z</time>
      </trkpt>
      <trkpt lat="43.79678" lon="7.1816">
        <ele>427.8</ele>
        <time>2013-03-23T09:01:51Z</time>
      </trkpt>
      <trkpt lat="43.79687" lon="7.18162">
        <ele>428.5</ele>
        <time>2013-03-23T09:01:55Z</time>
      </trkpt>
      <trkpt lat="43.79694" lon="7.18165">
        <ele>428.8</ele>
        <time>2013-03-23T09:01:59Z</time>
      </trkpt>
      <trkpt lat="43.79702" lon="7.18167">
        <ele>429.6</ele>
        <time>2013-03-23T09:02:03Z</time>
      </trkpt>
      <trkpt lat="43.79709" lon="7.1817">
        <ele>429.9</ele>
        <time>2013-03-23T09:02:07Z</time>
      </trkpt>
      <trkpt lat="43.79716" lon="7.18172">
        <ele>430.5</ele>
        <time>2013-03-23T09:02:11Z</time>
      </trkpt>
      <trkpt lat="43.79723" lon="7.18174">
        <ele>431.1</ele>
        <time>2013-03-23T09:02:15Z</time>
      </trkpt>
      <trkpt lat="43.7973" lon="7.18175">
        <ele>432.3</ele>
        <time>2013-03-23T09:02:19Z</time>
      </trkpt>
      <trkpt lat="43.79738" lon="7.18174">
        <ele>433.2</ele>
        <time>2013-03-23T09:02:23Z</time>
      </trkpt>
      <trkpt lat="43.79746" lon="7.18172">
        <ele>434.9</ele>
        <time>2013-03-23T09:02:27Z</time>
      </trkpt>
      <trkpt lat="43.79753" lon="7.18169">
        <ele>434.9</ele>
        <time>2013-03-23T09:02:31Z</time>
      </trkpt>
      <trkpt lat="43.79759" lon="7.18163">
        <ele>435</ele>
        <time>2013-03-23T09:02:35Z</time>
      </trkpt>
      <trkpt lat="43.79765" lon="7.18156">
        <ele>435.4</ele>
        <time>2013-03-23T09:02:39Z</time>
      </trkpt>
      <trkpt lat="43.7977" lon="7.18147">
        <ele>437.3</ele>
        <time>2013-03-23T09:02:43Z</time>
      </trkpt>
      <trkpt lat="43.79771" lon="7.18144">
        <ele>437.6</ele>
        <time>2013-03-23T09:02:44Z</time>
      </trkpt>
      <trkpt lat="43.79774" lon="7.18126">
        <ele>438.1</ele>
        <time>2013-03-23T09:02:51Z</time>
      </trkpt>
      <trkpt lat="43.79776" lon="7.18114">
        <ele>438</ele>
        <time>2013-03-23T09:02:56Z</time>
      </trkpt>
      <trkpt lat="43.79776" lon="7.18103">
        <ele>438.2</ele>
        <time>2013-03-23T09:03:00Z</time>
      </trkpt>
      <trkpt lat="43.79777" lon="7.18092">
        <ele>438.8</ele>
        <time>2013-03-23T09:03:04Z</time>
      </trkpt>
      <trkpt lat="43.79779" lon="7.18081">
        <ele>439.4</ele>
        <time>2013-03-23T09:03:08Z</time>
      </trkpt>
      <trkpt lat="43.79785" lon="7.18072">
        <ele>439.4</ele>
        <time>2013-03-23T09:03:12Z</time>
      </trkpt>
      <trkpt lat="43.79794" lon="7.18071">
        <ele>440.6</ele>
        <time>2013-03-23T09:03:16Z</time>
      </trkpt>
      <trkpt lat="43.79801" lon="7.18074">
        <ele>441.3</ele>
        <time>2013-03-23T09:03:20Z</time>
      </trkpt>
      <trkpt lat="43.79809" lon="7.18076">
        <ele>442</ele>
        <time>2013-03-23T09:03:24Z</time>
      </trkpt>
      <trkpt lat="43.79816" lon="7.18078">
        <ele>442.7</ele>
        <time>2013-03-23T09:03:28Z</time>
      </trkpt>
      <trkpt lat="43.79824" lon="7.18079">
        <ele>443.9</ele>
        <time>2013-03-23T09:03:32Z</time>
      </trkpt>
      <trkpt lat="43.79832" lon="7.18079">
        <ele>443.8</ele>
        <time>2013-03-23T09:03:36Z</time>
      </trkpt>
      <trkpt lat="43.7984" lon="7.18079">
        <ele>443.9</ele>
        <time>2013-03-23T09:03:40Z</time>
      </trkpt>
      <trkpt lat="43.79848" lon="7.18082">
        <ele>444.4</ele>
        <time>2013-03-23T09:03:44Z</time>
      </trkpt>
      <trkpt lat="43.7985" lon="7.18083">
        <ele>444.8</ele>
        <time>2013-03-23T09:03:45Z</time>
      </trkpt>
      <trkpt lat="43.79863" lon="7.18093">
        <ele>447.1</ele>
        <time>2013-03-23T09:03:52Z</time>
      </trkpt>
      <trkpt lat="43.79869" lon="7.18101">
        <ele>447.5</ele>
        <time>2013-03-23T09:03:56Z</time>
      </trkpt>
      <trkpt lat="43.79874" lon="7.1811">
        <ele>448</ele>
        <time>2013-03-23T09:04:00Z</time>
      </trkpt>
      <trkpt lat="43.79878" lon="7.18119">
        <ele>448.8</ele>
        <time>2013-03-23T09:04:04Z</time>
      </trkpt>
      <trkpt lat="43.79883" lon="7.18127">
        <ele>448.7</ele>
        <time>2013-03-23T09:04:08Z</time>
      </trkpt>
      <trkpt lat="43.79888" lon="7.18137">
        <ele>449.5</ele>
        <time>2013-03-23T09:04:13Z</time>
      </trkpt>
      <trkpt lat="43.79893" lon="7.18144">
        <ele>450.9</ele>
        <time>2013-03-23T09:04:17Z</time>
      </trkpt>
      <trkpt lat="43.79897" lon="7.18153">
        <ele>451.3</ele>
        <time>2013-03-23T09:04:21Z</time>
      </trkpt>
      <trkpt lat="43.79903" lon="7.18161">
        <ele>451.9</ele>
        <time>2013-03-23T09:04:25Z</time>
      </trkpt>
      <trkpt lat="43.79909" lon="7.18168">
        <ele>451.7</ele>
        <time>2013-03-23T09:04:29Z</time>
      </trkpt>
      <trkpt lat="43.79917" lon="7.18169">
        <ele>453.3</ele>
        <time>2013-03-23T09:04:33Z</time>
      </trkpt>
      <trkpt lat="43.79925" lon="7.18164">
        <ele>454.4</ele>
        <time>2013-03-23T09:04:38Z</time>
      </trkpt>
      <trkpt lat="43.79929" lon="7.18155">
        <ele>453.4</ele>
        <time>2013-03-23T09:04:42Z</time>
      </trkpt>
      <trkpt lat="43.79932" lon="7.18144">
        <ele>454.6</ele>
        <time>2013-03-23T09:04:47Z</time>
      </trkpt>
      <trkpt lat="43.79933" lon="7.18142">
        <ele>454.8</ele>
        <time>2013-03-23T09:04:48Z</time>
      </trkpt>
      <trkpt lat="43.79939" lon="7.18125">
        <ele>456.3</ele>
        <time>2013-03-23T09:04:55Z</time>
      </trkpt>
      <trkpt lat="43.79941" lon="7.18115">
        <ele>456.5</ele>
        <time>2013-03-23T09:04:59Z</time>
      </trkpt>
      <trkpt lat="43.79944" lon="7.18105">
        <ele>457.2</ele>
        <time>2013-03-23T09:05:03Z</time>
      </trkpt>
      <trkpt lat="43.79948" lon="7.18094">
        <ele>457.4</ele>
        <time>2013-03-23T09:05:08Z</time>
      </trkpt>
      <trkpt lat="43.79951" lon="7.18085">
        <ele>457.3</ele>
        <time>2013-03-23T09:05:12Z</time>
      </trkpt>
      <trkpt lat="43.79954" lon="7.18076">
        <ele>457.2</ele>
        <time>2013-03-23T09:05:16Z</time>
      </trkpt>
      <trkpt lat="43.79957" lon="7.18066">
        <ele>458.3</ele>
        <time>2013-03-23T09:05:20Z</time>
      </trkpt>
      <trkpt lat="43.79962" lon="7.18055">
        <ele>458.7</ele>
        <time>2013-03-23T09:05:25Z</time>
      </trkpt>
      <trkpt lat="43.79966" lon="7.18047">
        <ele>459.6</ele>
        <time>2013-03-23T09:05:29Z</time>
      </trkpt>
      <trkpt lat="43.7997" lon="7.18038">
        <ele>460.4</ele>
        <time>2013-03-23T09:05:33Z</time>
      </trkpt>
      <trkpt lat="43.79975" lon="7.1803">
        <ele>460.4</ele>
        <time>2013-03-23T09:05:37Z</time>
      </trkpt>
      <trkpt lat="43.79979" lon="7.18021">
        <ele>461</ele>
        <time>2013-03-23T09:05:41Z</time>
      </trkpt>
      <trkpt lat="43.79984" lon="7.18013">
        <ele>461.7</ele>
        <time>2013-03-23T09:05:45Z</time>
      </trkpt>
      <trkpt lat="43.7999" lon="7.18007">
        <ele>462</ele>
        <time>2013-03-23T09:05:49Z</time>
      </trkpt>
      <trkpt lat="43.79992" lon="7.18005">
        <ele>461.9</ele>
        <time>2013-03-23T09:05:50Z</time>
      </trkpt>
      <trkpt lat="43.80004" lon="7.17996">
        <ele>464.3</ele>
        <time>2013-03-23T09:05:57Z</time>
      </trkpt>
      <trkpt lat="43.80011" lon="7.17992">
        <ele>464.5</ele>
        <time>2013-03-23T09:06:01Z</time>
      </trkpt>
      <trkpt lat="43.80019" lon="7.17988">
        <ele>465.5</ele>
        <time>2013-03-23T09:06:05Z</time>
      </trkpt>
      <trkpt lat="43.80027" lon="7.17984">
        <ele>466.5</ele>
        <time>2013-03-23T09:06:09Z</time>
      </trkpt>
      <trkpt lat="43.80034" lon="7.17981">
        <ele>467.5</ele>
        <time>2013-03-23T09:06:13Z</time>
      </trkpt>
      <trkpt lat="43.80042" lon="7.17979">
        <ele>468.5</ele>
        <time>2013-03-23T09:06:17Z</time>
      </trkpt>
      <trkpt lat="43.8005" lon="7.17976">
        <ele>469.8</ele>
        <time>2013-03-23T09:06:21Z</time>
      </trkpt>
      <trkpt lat="43.80058" lon="7.17974">
        <ele>469.8</ele>
        <time>2013-03-23T09:06:25Z</time>
      </trkpt>
      <trkpt lat="43.80065" lon="7.17972">
        <ele>470.6</ele>
        <time>2013-03-23T09:06:29Z</time>
      </trkpt>
      <trkpt lat="43.80073" lon="7.17969">
        <ele>471.5</ele>
        <time>2013-03-23T09:06:33Z</time>
      </trkpt>
      <trkpt lat="43.80081" lon="7.17967">
        <ele>471.1</ele>
        <time>2013-03-23T09:06:37Z</time>
      </trkpt>
      <trkpt lat="43.80088" lon="7.17964">
        <ele>471.4</ele>
        <time>2013-03-23T09:06:41Z</time>
      </trkpt>
      <trkpt lat="43.80095" lon="7.17961">
        <ele>472.3</ele>
        <time>2013-03-23T09:06:45Z</time>
      </trkpt>
      <trkpt lat="43.80103" lon="7.17956">
        <ele>473.6</ele>
        <time>2013-03-23T09:06:49Z</time>
      </trkpt>
      <trkpt lat="43.8011" lon="7.17951">
        <ele>473.8</ele>
        <time>2013-03-23T09:06:53Z</time>
      </trkpt>
      <trkpt lat="43.80112" lon="7.17949">
        <ele>474.2</ele>
        <time>2013-03-23T09:06:54Z</time>
      </trkpt>
      <trkpt lat="43.80123" lon="7.17938">
        <ele>474.9</ele>
        <time>2013-03-23T09:07:01Z</time>
      </trkpt>
      <trkpt lat="43.80128" lon="7.17929">
        <ele>475.5</ele>
        <time>2013-03-23T09:07:05Z</time>
      </trkpt>
      <trkpt lat="43.80131" lon="7.17918">
        <ele>475.9</ele>
        <time>2013-03-23T09:07:10Z</time>
      </trkpt>
      <trkpt lat="43.80131" lon="7.17908">
        <ele>476.2</ele>
        <time>2013-03-23T09:07:14Z</time>
      </trkpt>
      <trkpt lat="43.8013" lon="7.17898">
        <ele>478.1</ele>
        <time>2013-03-23T09:07:18Z</time>
      </trkpt>
      <trkpt lat="43.80129" lon="7.17889">
        <ele>477.5</ele>
        <time>2013-03-23T09:07:22Z</time>
      </trkpt>
      <trkpt lat="43.80128" lon="7.17878">
        <ele>478.1</ele>
        <time>2013-03-23T09:07:26Z</time>
      </trkpt>
      <trkpt lat="43.80127" lon="7.17866">
        <ele>478.1</ele>
        <time>2013-03-23T09:07:30Z</time>
      </trkpt>
      <trkpt lat="43.80127" lon="7.17857">
        <ele>478.4</ele>
        <time>2013-03-23T09:07:33Z</time>
      </trkpt>
      <trkpt lat="43.80127" lon="7.17847">
        <ele>478.5</ele>
        <time>2013-03-23T09:07:36Z</time>
      </trkpt>
      <trkpt lat="43.80129" lon="7.17835">
        <ele>478.5</ele>
        <time>2013-03-23T09:07:39Z</time>
      </trkpt>
      <trkpt lat="43.80129" lon="7.17824">
        <ele>477.9</ele>
        <time>2013-03-23T09:07:42Z</time>
      </trkpt>
      <trkpt lat="43.8013" lon="7.17811">
        <ele>477.6</ele>
        <time>2013-03-23T09:07:45Z</time>
      </trkpt>
      <trkpt lat="43.8013" lon="7.178">
        <ele>477.8</ele>
        <time>2013-03-23T09:07:48Z</time>
      </trkpt>
      <trkpt lat="43.80131" lon="7.17789">
        <ele>477.6</ele>
        <time>2013-03-23T09:07:51Z</time>
      </trkpt>
      <trkpt lat="43.80131" lon="7.17778">
        <ele>476.9</ele>
        <time>2013-03-23T09:07:54Z</time>
      </trkpt>
      <trkpt lat="43.80132" lon="7.17774">
        <ele>476.8</ele>
        <time>2013-03-23T09:07:55Z</time>
      </trkpt>
      <trkpt lat="43.80132" lon="7.17756">
        <ele>477</ele>
        <time>2013-03-23T09:08:00Z</time>
      </trkpt>
      <trkpt lat="43.80134" lon="7.17746">
        <ele>477.7</ele>
        <time>2013-03-23T09:08:03Z</time>
      </trkpt>
      <trkpt lat="43.80137" lon="7.17735">
        <ele>476.9</ele>
        <time>2013-03-23T09:08:06Z</time>
      </trkpt>
      <trkpt lat="43.8014" lon="7.17724">
        <ele>477.6</ele>
        <time>2013-03-23T09:08:09Z</time>
      </trkpt>
      <trkpt lat="43.80143" lon="7.17713">
        <ele>476.4</ele>
        <time>2013-03-23T09:08:12Z</time>
      </trkpt>
      <trkpt lat="43.80147" lon="7.17703">
        <ele>476.7</ele>
        <time>2013-03-23T09:08:15Z</time>
      </trkpt>
      <trkpt lat="43.80151" lon="7.17693">
        <ele>476.5</ele>
        <time>2013-03-23T09:08:18Z</time>
      </trkpt>
      <trkpt lat="43.80156" lon="7.17684">
        <ele>476.3</ele>
        <time>2013-03-23T09:08:21Z</time>
      </trkpt>
      <trkpt lat="43.80162" lon="7.17675">
        <ele>476</ele>
        <time>2013-03-23T09:08:24Z</time>
      </trkpt>
      <trkpt lat="43.80168" lon="7.17666">
        <ele>476.6</ele>
        <time>2013-03-23T09:08:27Z</time>
      </trkpt>
      <trkpt lat="43.80172" lon="7.1766">
        <ele>477</ele>
        <time>2013-03-23T09:08:29Z</time>
      </trkpt>
      <trkpt lat="43.80178" lon="7.17651">
        <ele>477.3</ele>
        <time>2013-03-23T09:08:32Z</time>
      </trkpt>
      <trkpt lat="43.80183" lon="7.17642">
        <ele>477.2</ele>
        <time>2013-03-23T09:08:35Z</time>
      </trkpt>
      <trkpt lat="43.80189" lon="7.17633">
        <ele>477.2</ele>
        <time>2013-03-23T09:08:38Z</time>
      </trkpt>
      <trkpt lat="43.80194" lon="7.17623">
        <ele>477.2</ele>
        <time>2013-03-23T09:08:41Z</time>
      </trkpt>
      <trkpt lat="43.802" lon="7.17614">
        <ele>477.4</ele>
        <time>2013-03-23T09:08:44Z</time>
      </trkpt>
      <trkpt lat="43.80203" lon="7.17607">
        <ele>477.1</ele>
        <time>2013-03-23T09:08:46Z</time>
      </trkpt>
      <trkpt lat="43.80206" lon="7.17599">
        <ele>477</ele>
        <time>2013-03-23T09:08:48Z</time>
      </trkpt>
      <trkpt lat="43.80209" lon="7.17591">
        <ele>476.9</ele>
        <time>2013-03-23T09:08:50Z</time>
      </trkpt>
      <trkpt lat="43.80212" lon="7.17584">
        <ele>477</ele>
        <time>2013-03-23T09:08:52Z</time>
      </trkpt>
      <trkpt lat="43.80215" lon="7.17576">
        <ele>477.1</ele>
        <time>2013-03-23T09:08:54Z</time>
      </trkpt>
      <trkpt lat="43.80217" lon="7.17567">
        <ele>477</ele>
        <time>2013-03-23T09:08:56Z</time>
      </trkpt>
      <trkpt lat="43.80218" lon="7.17563">
        <ele>477</ele>
        <time>2013-03-23T09:08:57Z</time>
      </trkpt>
      <trkpt lat="43.80222" lon="7.1755">
        <ele>475.2</ele>
        <time>2013-03-23T09:09:00Z</time>
      </trkpt>
      <trkpt lat="43.80225" lon="7.17542">
        <ele>475.8</ele>
        <time>2013-03-23T09:09:02Z</time>
      </trkpt>
      <trkpt lat="43.80228" lon="7.17533">
        <ele>476.1</ele>
        <time>2013-03-23T09:09:04Z</time>
      </trkpt>
      <trkpt lat="43.80232" lon="7.17524">
        <ele>476.3</ele>
        <time>2013-03-23T09:09:06Z</time>
      </trkpt>
      <trkpt lat="43.80236" lon="7.17515">
        <ele>476.1</ele>
        <time>2013-03-23T09:09:08Z</time>
      </trkpt>
      <trkpt lat="43.8024" lon="7.17507">
        <ele>475.8</ele>
        <time>2013-03-23T09:09:10Z</time>
      </trkpt>
      <trkpt lat="43.80245" lon="7.175">
        <ele>475.8</ele>
        <time>2013-03-23T09:09:12Z</time>
      </trkpt>
      <trkpt lat="43.80249" lon="7.17493">
        <ele>475.6</ele>
        <time>2013-03-23T09:09:14Z</time>
      </trkpt>
      <trkpt lat="43.80254" lon="7.17485">
        <ele>475.4</ele>
        <time>2013-03-23T09:09:16Z</time>
      </trkpt>
      <trkpt lat="43.80257" lon="7.17476">
        <ele>474.8</ele>
        <time>2013-03-23T09:09:18Z</time>
      </trkpt>
      <trkpt lat="43.8026" lon="7.17467">
        <ele>474.8</ele>
        <time>2013-03-23T09:09:20Z</time>
      </trkpt>
      <trkpt lat="43.80263" lon="7.17459">
        <ele>475</ele>
        <time>2013-03-23T09:09:22Z</time>
      </trkpt>
      <trkpt lat="43.80266" lon="7.1745">
        <ele>474.9</ele>
        <time>2013-03-23T09:09:24Z</time>
      </trkpt>
      <trkpt lat="43.8027" lon="7.17442">
        <ele>474.7</ele>
        <time>2013-03-23T09:09:26Z</time>
      </trkpt>
      <trkpt lat="43.80273" lon="7.17434">
        <ele>474.5</ele>
        <time>2013-03-23T09:09:28Z</time>
      </trkpt>
      <trkpt lat="43.80277" lon="7.17425">
        <ele>474.5</ele>
        <time>2013-03-23T09:09:30Z</time>
      </trkpt>
      <trkpt lat="43.80281" lon="7.17417">
        <ele>474.6</ele>
        <time>2013-03-23T09:09:32Z</time>
      </trkpt>
      <trkpt lat="43.80286" lon="7.1741">
        <ele>474.9</ele>
        <time>2013-03-23T09:09:34Z</time>
      </trkpt>
      <trkpt lat="43.8029" lon="7.17402">
        <ele>474.6</ele>
        <time>2013-03-23T09:09:36Z</time>
      </trkpt>
      <trkpt lat="43.80294" lon="7.17394">
        <ele>474.2</ele>
        <time>2013-03-23T09:09:38Z</time>
      </trkpt>
      <trkpt lat="43.80298" lon="7.17386">
        <ele>473.8</ele>
        <time>2013-03-23T09:09:40Z</time>
      </trkpt>
      <trkpt lat="43.80301" lon="7.17378">
        <ele>473.5</ele>
        <time>2013-03-23T09:09:42Z</time>
      </trkpt>
      <trkpt lat="43.80303" lon="7.17366">
        <ele>473.7</ele>
        <time>2013-03-23T09:09:56Z</time>
      </trkpt>
      <trkpt lat="43.80295" lon="7.1737">
        <ele>475.9</ele>
        <time>2013-03-23T09:14:41Z</time>
      </trkpt>
      <trkpt lat="43.80294" lon="7.17372">
        <ele>476</ele>
        <time>2013-03-23T09:14:42Z</time>
      </trkpt>
      <trkpt lat="43.80284" lon="7.17389">
        <ele>481.2</ele>
        <time>2013-03-23T09:15:04Z</time>
      </trkpt>
      <trkpt lat="43.80277" lon="7.17393">
        <ele>481.4</ele>
        <time>2013-03-23T09:15:59Z</time>
      </trkpt>
      <trkpt lat="43.80276" lon="7.17394">
        <ele>481.5</ele>
        <time>2013-03-23T09:16:00Z</time>
      </trkpt>
      <trkpt lat="43.80264" lon="7.17407">
        <ele>484</ele>
        <time>2013-03-23T09:16:12Z</time>
      </trkpt>
      <trkpt lat="43.80258" lon="7.17415">
        <ele>485.7</ele>
        <time>2013-03-23T09:16:19Z</time>
      </trkpt>
      <trkpt lat="43.80253" lon="7.17424">
        <ele>487.4</ele>
        <time>2013-03-23T09:16:25Z</time>
      </trkpt>
      <trkpt lat="43.80248" lon="7.17434">
        <ele>488.6</ele>
        <time>2013-03-23T09:16:32Z</time>
      </trkpt>
      <trkpt lat="43.80244" lon="7.17443">
        <ele>489.8</ele>
        <time>2013-03-23T09:16:39Z</time>
      </trkpt>
      <trkpt lat="43.80238" lon="7.17452">
        <ele>492.3</ele>
        <time>2013-03-23T09:16:46Z</time>
      </trkpt>
      <trkpt lat="43.80233" lon="7.1746">
        <ele>492.6</ele>
        <time>2013-03-23T09:16:52Z</time>
      </trkpt>
      <trkpt lat="43.80227" lon="7.17468">
        <ele>492.6</ele>
        <time>2013-03-23T09:16:58Z</time>
      </trkpt>
      <trkpt lat="43.80221" lon="7.17475">
        <ele>493.9</ele>
        <time>2013-03-23T09:17:04Z</time>
      </trkpt>
      <trkpt lat="43.8022" lon="7.17476">
        <ele>494.1</ele>
        <time>2013-03-23T09:17:05Z</time>
      </trkpt>
      <trkpt lat="43.80208" lon="7.17488">
        <ele>497.1</ele>
        <time>2013-03-23T09:17:18Z</time>
      </trkpt>
      <trkpt lat="43.80201" lon="7.17492">
        <ele>498.5</ele>
        <time>2013-03-23T09:17:24Z</time>
      </trkpt>
      <trkpt lat="43.80193" lon="7.17498">
        <ele>499.1</ele>
        <time>2013-03-23T09:17:30Z</time>
      </trkpt>
      <trkpt lat="43.80187" lon="7.17507">
        <ele>500.5</ele>
        <time>2013-03-23T09:17:37Z</time>
      </trkpt>
      <trkpt lat="43.80181" lon="7.17515">
        <ele>502.7</ele>
        <time>2013-03-23T09:17:45Z</time>
      </trkpt>
      <trkpt lat="43.80174" lon="7.17522">
        <ele>504.3</ele>
        <time>2013-03-23T09:17:52Z</time>
      </trkpt>
      <trkpt lat="43.80168" lon="7.1753">
        <ele>504.4</ele>
        <time>2013-03-23T09:17:59Z</time>
      </trkpt>
      <trkpt lat="43.80162" lon="7.17539">
        <ele>505.2</ele>
        <time>2013-03-23T09:18:06Z</time>
      </trkpt>
      <trkpt lat="43.80161" lon="7.1754">
        <ele>505.4</ele>
        <time>2013-03-23T09:18:07Z</time>
      </trkpt>
      <trkpt lat="43.80149" lon="7.17554">
        <ele>507.1</ele>
        <time>2013-03-23T09:18:20Z</time>
      </trkpt>
      <trkpt lat="43.80143" lon="7.1756">
        <ele>508.6</ele>
        <time>2013-03-23T09:18:26Z</time>
      </trkpt>
      <trkpt lat="43.80136" lon="7.17567">
        <ele>510.6</ele>
        <time>2013-03-23T09:18:33Z</time>
      </trkpt>
      <trkpt lat="43.80129" lon="7.17575">
        <ele>510.5</ele>
        <time>2013-03-23T09:18:40Z</time>
      </trkpt>
      <trkpt lat="43.80122" lon="7.17583">
        <ele>511.8</ele>
        <time>2013-03-23T09:18:46Z</time>
      </trkpt>
      <trkpt lat="43.80117" lon="7.1759">
        <ele>513.1</ele>
        <time>2013-03-23T09:18:51Z</time>
      </trkpt>
      <trkpt lat="43.80111" lon="7.17598">
        <ele>513.7</ele>
        <time>2013-03-23T09:18:56Z</time>
      </trkpt>
      <trkpt lat="43.80105" lon="7.17606">
        <ele>514.2</ele>
        <time>2013-03-23T09:19:01Z</time>
      </trkpt>
      <trkpt lat="43.801" lon="7.17613">
        <ele>514.8</ele>
        <time>2013-03-23T09:19:05Z</time>
      </trkpt>
      <trkpt lat="43.80094" lon="7.1762">
        <ele>515.7</ele>
        <time>2013-03-23T09:19:10Z</time>
      </trkpt>
      <trkpt lat="43.80092" lon="7.17622">
        <ele>515.9</ele>
        <time>2013-03-23T09:19:11Z</time>
      </trkpt>
      <trkpt lat="43.80082" lon="7.17635">
        <ele>516.6</ele>
        <time>2013-03-23T09:19:20Z</time>
      </trkpt>
      <trkpt lat="43.80076" lon="7.17644">
        <ele>517.9</ele>
        <time>2013-03-23T09:19:25Z</time>
      </trkpt>
      <trkpt lat="43.80072" lon="7.17656">
        <ele>517.8</ele>
        <time>2013-03-23T09:19:30Z</time>
      </trkpt>
      <trkpt lat="43.8007" lon="7.17665">
        <ele>517.8</ele>
        <time>2013-03-23T09:19:34Z</time>
      </trkpt>
      <trkpt lat="43.80068" lon="7.17675">
        <ele>517.9</ele>
        <time>2013-03-23T09:19:38Z</time>
      </trkpt>
      <trkpt lat="43.80065" lon="7.17685">
        <ele>517.8</ele>
        <time>2013-03-23T09:19:42Z</time>
      </trkpt>
      <trkpt lat="43.80062" lon="7.17695">
        <ele>519.5</ele>
        <time>2013-03-23T09:19:46Z</time>
      </trkpt>
      <trkpt lat="43.8006" lon="7.17705">
        <ele>520.1</ele>
        <time>2013-03-23T09:19:50Z</time>
      </trkpt>
      <trkpt lat="43.80057" lon="7.17714">
        <ele>521.4</ele>
        <time>2013-03-23T09:19:54Z</time>
      </trkpt>
      <trkpt lat="43.80055" lon="7.17724">
        <ele>521.6</ele>
        <time>2013-03-23T09:19:58Z</time>
      </trkpt>
      <trkpt lat="43.80052" lon="7.17735">
        <ele>523.8</ele>
        <time>2013-03-23T09:20:03Z</time>
      </trkpt>
      <trkpt lat="43.80049" lon="7.17746">
        <ele>525</ele>
        <time>2013-03-23T09:20:08Z</time>
      </trkpt>
      <trkpt lat="43.80046" lon="7.17756">
        <ele>526.5</ele>
        <time>2013-03-23T09:20:13Z</time>
      </trkpt>
      <trkpt lat="43.80046" lon="7.17758">
        <ele>526.7</ele>
        <time>2013-03-23T09:20:14Z</time>
      </trkpt>
      <trkpt lat="43.80036" lon="7.17774">
        <ele>530.4</ele>
        <time>2013-03-23T09:20:43Z</time>
      </trkpt>
      <trkpt lat="43.80031" lon="7.17783">
        <ele>531.6</ele>
        <time>2013-03-23T09:24:15Z</time>
      </trkpt>
      <trkpt lat="43.80029" lon="7.17783">
        <ele>531.6</ele>
        <time>2013-03-23T09:24:16Z</time>
      </trkpt>
      <trkpt lat="43.80017" lon="7.17796">
        <ele>532.2</ele>
        <time>2013-03-23T09:24:22Z</time>
      </trkpt>
      <trkpt lat="43.80011" lon="7.178">
        <ele>532.2</ele>
        <time>2013-03-23T09:24:24Z</time>
      </trkpt>
      <trkpt lat="43.80005" lon="7.17803">
        <ele>532.1</ele>
        <time>2013-03-23T09:24:26Z</time>
      </trkpt>
      <trkpt lat="43.79998" lon="7.17806">
        <ele>531.2</ele>
        <time>2013-03-23T09:24:28Z</time>
      </trkpt>
      <trkpt lat="43.79991" lon="7.17809">
        <ele>529.7</ele>
        <time>2013-03-23T09:24:31Z</time>
      </trkpt>
      <trkpt lat="43.79982" lon="7.17812">
        <ele>529.9</ele>
        <time>2013-03-23T09:24:35Z</time>
      </trkpt>
      <trkpt lat="43.79975" lon="7.17816">
        <ele>530.3</ele>
        <time>2013-03-23T09:24:38Z</time>
      </trkpt>
      <trkpt lat="43.79968" lon="7.17819">
        <ele>531.2</ele>
        <time>2013-03-23T09:24:41Z</time>
      </trkpt>
      <trkpt lat="43.79962" lon="7.17823">
        <ele>531.8</ele>
        <time>2013-03-23T09:24:44Z</time>
      </trkpt>
      <trkpt lat="43.79954" lon="7.17827">
        <ele>532.1</ele>
        <time>2013-03-23T09:24:47Z</time>
      </trkpt>
      <trkpt lat="43.79947" lon="7.17832">
        <ele>532.4</ele>
        <time>2013-03-23T09:24:50Z</time>
      </trkpt>
      <trkpt lat="43.79941" lon="7.17835">
        <ele>532.5</ele>
        <time>2013-03-23T09:24:52Z</time>
      </trkpt>
      <trkpt lat="43.79934" lon="7.17839">
        <ele>532.2</ele>
        <time>2013-03-23T09:24:54Z</time>
      </trkpt>
      <trkpt lat="43.79927" lon="7.17843">
        <ele>531.9</ele>
        <time>2013-03-23T09:24:56Z</time>
      </trkpt>
      <trkpt lat="43.7992" lon="7.17847">
        <ele>531.8</ele>
        <time>2013-03-23T09:24:58Z</time>
      </trkpt>
      <trkpt lat="43.79912" lon="7.17851">
        <ele>531.3</ele>
        <time>2013-03-23T09:25:00Z</time>
      </trkpt>
      <trkpt lat="43.79903" lon="7.17854">
        <ele>531.4</ele>
        <time>2013-03-23T09:25:02Z</time>
      </trkpt>
      <trkpt lat="43.79894" lon="7.17855">
        <ele>531.8</ele>
        <time>2013-03-23T09:25:04Z</time>
      </trkpt>
      <trkpt lat="43.79887" lon="7.17854">
        <ele>531.4</ele>
        <time>2013-03-23T09:25:06Z</time>
      </trkpt>
      <trkpt lat="43.79879" lon="7.17853">
        <ele>531.1</ele>
        <time>2013-03-23T09:25:08Z</time>
      </trkpt>
      <trkpt lat="43.79873" lon="7.17851">
        <ele>530.9</ele>
        <time>2013-03-23T09:25:10Z</time>
      </trkpt>
      <trkpt lat="43.79867" lon="7.17848">
        <ele>530.8</ele>
        <time>2013-03-23T09:25:12Z</time>
      </trkpt>
      <trkpt lat="43.7986" lon="7.17844">
        <ele>530.8</ele>
        <time>2013-03-23T09:25:14Z</time>
      </trkpt>
      <trkpt lat="43.79852" lon="7.17838">
        <ele>530.9</ele>
        <time>2013-03-23T09:25:16Z</time>
      </trkpt>
      <trkpt lat="43.79848" lon="7.17836">
        <ele>530.9</ele>
        <time>2013-03-23T09:25:17Z</time>
      </trkpt>
      <trkpt lat="43.79836" lon="7.17831">
        <ele>530.4</ele>
        <time>2013-03-23T09:25:20Z</time>
      </trkpt>
      <trkpt lat="43.79828" lon="7.1783">
        <ele>530.7</ele>
        <time>2013-03-23T09:25:22Z</time>
      </trkpt>
      <trkpt lat="43.79822" lon="7.17829">
        <ele>530.8</ele>
        <time>2013-03-23T09:25:24Z</time>
      </trkpt>
      <trkpt lat="43.79815" lon="7.17828">
        <ele>530.7</ele>
        <time>2013-03-23T09:25:26Z</time>
      </trkpt>
      <trkpt lat="43.79809" lon="7.17825">
        <ele>530.6</ele>
        <time>2013-03-23T09:25:28Z</time>
      </trkpt>
      <trkpt lat="43.79802" lon="7.17821">
        <ele>530.6</ele>
        <time>2013-03-23T09:25:30Z</time>
      </trkpt>
      <trkpt lat="43.79796" lon="7.17817">
        <ele>530.8</ele>
        <time>2013-03-23T09:25:32Z</time>
      </trkpt>
      <trkpt lat="43.79788" lon="7.17812">
        <ele>531.1</ele>
        <time>2013-03-23T09:25:35Z</time>
      </trkpt>
      <trkpt lat="43.79781" lon="7.17807">
        <ele>531.1</ele>
        <time>2013-03-23T09:25:38Z</time>
      </trkpt>
      <trkpt lat="43.79774" lon="7.17801">
        <ele>531.6</ele>
        <time>2013-03-23T09:25:41Z</time>
      </trkpt>
      <trkpt lat="43.79766" lon="7.17796">
        <ele>532.4</ele>
        <time>2013-03-23T09:25:44Z</time>
      </trkpt>
      <trkpt lat="43.79759" lon="7.17792">
        <ele>533.5</ele>
        <time>2013-03-23T09:25:47Z</time>
      </trkpt>
      <trkpt lat="43.79752" lon="7.17787">
        <ele>534.6</ele>
        <time>2013-03-23T09:25:50Z</time>
      </trkpt>
      <trkpt lat="43.79745" lon="7.17783">
        <ele>534.9</ele>
        <time>2013-03-23T09:25:53Z</time>
      </trkpt>
      <trkpt lat="43.79738" lon="7.17776">
        <ele>535.2</ele>
        <time>2013-03-23T09:25:56Z</time>
      </trkpt>
      <trkpt lat="43.79731" lon="7.17769">
        <ele>535.9</ele>
        <time>2013-03-23T09:25:59Z</time>
      </trkpt>
      <trkpt lat="43.79725" lon="7.17762">
        <ele>536.6</ele>
        <time>2013-03-23T09:26:02Z</time>
      </trkpt>
      <trkpt lat="43.79719" lon="7.17754">
        <ele>537</ele>
        <time>2013-03-23T09:26:05Z</time>
      </trkpt>
      <trkpt lat="43.79714" lon="7.17747">
        <ele>537.8</ele>
        <time>2013-03-23T09:26:08Z</time>
      </trkpt>
      <trkpt lat="43.79708" lon="7.17739">
        <ele>538.3</ele>
        <time>2013-03-23T09:26:12Z</time>
      </trkpt>
      <trkpt lat="43.79702" lon="7.1773">
        <ele>539.9</ele>
        <time>2013-03-23T09:26:17Z</time>
      </trkpt>
      <trkpt lat="43.79701" lon="7.17729">
        <ele>540</ele>
        <time>2013-03-23T09:26:18Z</time>
      </trkpt>
      <trkpt lat="43.79688" lon="7.17721">
        <ele>542.8</ele>
        <time>2013-03-23T09:26:27Z</time>
      </trkpt>
      <trkpt lat="43.7968" lon="7.17723">
        <ele>544.8</ele>
        <time>2013-03-23T09:26:33Z</time>
      </trkpt>
      <trkpt lat="43.79674" lon="7.17728">
        <ele>546.5</ele>
        <time>2013-03-23T09:26:39Z</time>
      </trkpt>
      <trkpt lat="43.79667" lon="7.17735">
        <ele>547.4</ele>
        <time>2013-03-23T09:26:45Z</time>
      </trkpt>
      <trkpt lat="43.7966" lon="7.17743">
        <ele>549</ele>
        <time>2013-03-23T09:26:52Z</time>
      </trkpt>
      <trkpt lat="43.79654" lon="7.1775">
        <ele>550.3</ele>
        <time>2013-03-23T09:26:59Z</time>
      </trkpt>
      <trkpt lat="43.79647" lon="7.17756">
        <ele>553.9</ele>
        <time>2013-03-23T09:27:06Z</time>
      </trkpt>
      <trkpt lat="43.7964" lon="7.17761">
        <ele>554.7</ele>
        <time>2013-03-23T09:27:13Z</time>
      </trkpt>
      <trkpt lat="43.79632" lon="7.17766">
        <ele>555.9</ele>
        <time>2013-03-23T09:27:20Z</time>
      </trkpt>
      <trkpt lat="43.79631" lon="7.17766">
        <ele>556</ele>
        <time>2013-03-23T09:27:21Z</time>
      </trkpt>
      <trkpt lat="43.79618" lon="7.17776">
        <ele>558.3</ele>
        <time>2013-03-23T09:27:33Z</time>
      </trkpt>
      <trkpt lat="43.7961" lon="7.17782">
        <ele>560.9</ele>
        <time>2013-03-23T09:27:41Z</time>
      </trkpt>
      <trkpt lat="43.79603" lon="7.17786">
        <ele>561.5</ele>
        <time>2013-03-23T09:27:48Z</time>
      </trkpt>
      <trkpt lat="43.79595" lon="7.17792">
        <ele>563.2</ele>
        <time>2013-03-23T09:27:56Z</time>
      </trkpt>
      <trkpt lat="43.79589" lon="7.178">
        <ele>564</ele>
        <time>2013-03-23T09:28:03Z</time>
      </trkpt>
      <trkpt lat="43.79581" lon="7.17797">
        <ele>565.5</ele>
        <time>2013-03-23T09:28:09Z</time>
      </trkpt>
      <trkpt lat="43.79581" lon="7.17784">
        <ele>566.5</ele>
        <time>2013-03-23T09:28:16Z</time>
      </trkpt>
      <trkpt lat="43.79584" lon="7.17773">
        <ele>568.6</ele>
        <time>2013-03-23T09:28:25Z</time>
      </trkpt>
      <trkpt lat="43.79584" lon="7.17772">
        <ele>569</ele>
        <time>2013-03-23T09:28:26Z</time>
      </trkpt>
      <trkpt lat="43.7959" lon="7.17752">
        <ele>572.2</ele>
        <time>2013-03-23T09:28:40Z</time>
      </trkpt>
      <trkpt lat="43.79593" lon="7.17742">
        <ele>572.7</ele>
        <time>2013-03-23T09:28:47Z</time>
      </trkpt>
      <trkpt lat="43.79598" lon="7.17732">
        <ele>573.8</ele>
        <time>2013-03-23T09:28:54Z</time>
      </trkpt>
      <trkpt lat="43.79602" lon="7.17722">
        <ele>575.2</ele>
        <time>2013-03-23T09:29:01Z</time>
      </trkpt>
      <trkpt lat="43.79606" lon="7.17711">
        <ele>577.4</ele>
        <time>2013-03-23T09:29:09Z</time>
      </trkpt>
      <trkpt lat="43.79607" lon="7.177">
        <ele>578.3</ele>
        <time>2013-03-23T09:29:16Z</time>
      </trkpt>
      <trkpt lat="43.7961" lon="7.17688">
        <ele>579.7</ele>
        <time>2013-03-23T09:29:23Z</time>
      </trkpt>
      <trkpt lat="43.79613" lon="7.17678">
        <ele>581</ele>
        <time>2013-03-23T09:29:30Z</time>
      </trkpt>
      <trkpt lat="43.79613" lon="7.17677">
        <ele>581.3</ele>
        <time>2013-03-23T09:29:31Z</time>
      </trkpt>
      <trkpt lat="43.79616" lon="7.17654">
        <ele>584.6</ele>
        <time>2013-03-23T09:29:45Z</time>
      </trkpt>
      <trkpt lat="43.79618" lon="7.17642">
        <ele>585.8</ele>
        <time>2013-03-23T09:29:52Z</time>
      </trkpt>
      <trkpt lat="43.7962" lon="7.17631">
        <ele>586.9</ele>
        <time>2013-03-23T09:29:59Z</time>
      </trkpt>
      <trkpt lat="43.79621" lon="7.17619">
        <ele>588.8</ele>
        <time>2013-03-23T09:30:06Z</time>
      </trkpt>
      <trkpt lat="43.79626" lon="7.17609">
        <ele>589.6</ele>
        <time>2013-03-23T09:30:13Z</time>
      </trkpt>
      <trkpt lat="43.79629" lon="7.17597">
        <ele>589.9</ele>
        <time>2013-03-23T09:30:20Z</time>
      </trkpt>
      <trkpt lat="43.79632" lon="7.17586">
        <ele>591.7</ele>
        <time>2013-03-23T09:30:27Z</time>
      </trkpt>
      <trkpt lat="43.79633" lon="7.17574">
        <ele>593.3</ele>
        <time>2013-03-23T09:30:33Z</time>
      </trkpt>
      <trkpt lat="43.79633" lon="7.17572">
        <ele>593.4</ele>
        <time>2013-03-23T09:30:34Z</time>
      </trkpt>
      <trkpt lat="43.79636" lon="7.1755">
        <ele>596.5</ele>
        <time>2013-03-23T09:30:47Z</time>
      </trkpt>
      <trkpt lat="43.79639" lon="7.17539">
        <ele>599.4</ele>
        <time>2013-03-23T09:30:55Z</time>
      </trkpt>
      <trkpt lat="43.79638" lon="7.17527">
        <ele>601.9</ele>
        <time>2013-03-23T09:31:04Z</time>
      </trkpt>
      <trkpt lat="43.79629" lon="7.17528">
        <ele>603.3</ele>
        <time>2013-03-23T09:32:01Z</time>
      </trkpt>
      <trkpt lat="43.79628" lon="7.17529">
        <ele>603.5</ele>
        <time>2013-03-23T09:32:02Z</time>
      </trkpt>
      <trkpt lat="43.79614" lon="7.17541">
        <ele>606.9</ele>
        <time>2013-03-23T09:32:13Z</time>
      </trkpt>
      <trkpt lat="43.79607" lon="7.17549">
        <ele>608</ele>
        <time>2013-03-23T09:32:20Z</time>
      </trkpt>
      <trkpt lat="43.79601" lon="7.17556">
        <ele>608.7</ele>
        <time>2013-03-23T09:32:27Z</time>
      </trkpt>
      <trkpt lat="43.79595" lon="7.17564">
        <ele>611</ele>
        <time>2013-03-23T09:32:34Z</time>
      </trkpt>
      <trkpt lat="43.79589" lon="7.17572">
        <ele>612</ele>
        <time>2013-03-23T09:32:41Z</time>
      </trkpt>
      <trkpt lat="43.79584" lon="7.17579">
        <ele>612.8</ele>
        <time>2013-03-23T09:32:48Z</time>
      </trkpt>
      <trkpt lat="43.79578" lon="7.17588">
        <ele>613.6</ele>
        <time>2013-03-23T09:32:55Z</time>
      </trkpt>
      <trkpt lat="43.79572" lon="7.17595">
        <ele>614.9</ele>
        <time>2013-03-23T09:33:03Z</time>
      </trkpt>
      <trkpt lat="43.79571" lon="7.17596">
        <ele>615.5</ele>
        <time>2013-03-23T09:33:04Z</time>
      </trkpt>
      <trkpt lat="43.79557" lon="7.17608">
        <ele>618.3</ele>
        <time>2013-03-23T09:33:19Z</time>
      </trkpt>
      <trkpt lat="43.7955" lon="7.17615">
        <ele>620.4</ele>
        <time>2013-03-23T09:33:27Z</time>
      </trkpt>
      <trkpt lat="43.79543" lon="7.17621">
        <ele>622.4</ele>
        <time>2013-03-23T09:33:35Z</time>
      </trkpt>
      <trkpt lat="43.79536" lon="7.17627">
        <ele>624.2</ele>
        <time>2013-03-23T09:33:43Z</time>
      </trkpt>
      <trkpt lat="43.79528" lon="7.17633">
        <ele>625.5</ele>
        <time>2013-03-23T09:33:51Z</time>
      </trkpt>
      <trkpt lat="43.79521" lon="7.17639">
        <ele>626.1</ele>
        <time>2013-03-23T09:33:58Z</time>
      </trkpt>
      <trkpt lat="43.79514" lon="7.17644">
        <ele>628.1</ele>
        <time>2013-03-23T09:34:05Z</time>
      </trkpt>
      <trkpt lat="43.79513" lon="7.17645">
        <ele>628.3</ele>
        <time>2013-03-23T09:34:06Z</time>
      </trkpt>
      <trkpt lat="43.79498" lon="7.17653">
        <ele>629.7</ele>
        <time>2013-03-23T09:34:20Z</time>
      </trkpt>
      <trkpt lat="43.79491" lon="7.17657">
        <ele>631.9</ele>
        <time>2013-03-23T09:34:27Z</time>
      </trkpt>
      <trkpt lat="43.79482" lon="7.17661">
        <ele>632.8</ele>
        <time>2013-03-23T09:34:34Z</time>
      </trkpt>
      <trkpt lat="43.79475" lon="7.17666">
        <ele>635.1</ele>
        <time>2013-03-23T09:34:41Z</time>
      </trkpt>
      <trkpt lat="43.79467" lon="7.17669">
        <ele>636.4</ele>
        <time>2013-03-23T09:34:48Z</time>
      </trkpt>
      <trkpt lat="43.7946" lon="7.17664">
        <ele>637.7</ele>
        <time>2013-03-23T09:34:56Z</time>
      </trkpt>
      <trkpt lat="43.79463" lon="7.17653">
        <ele>638</ele>
        <time>2013-03-23T09:35:03Z</time>
      </trkpt>
      <trkpt lat="43.7947" lon="7.17646">
        <ele>639.1</ele>
        <time>2013-03-23T09:35:10Z</time>
      </trkpt>
      <trkpt lat="43.79471" lon="7.17645">
        <ele>639.2</ele>
        <time>2013-03-23T09:35:11Z</time>
      </trkpt>
      <trkpt lat="43.79485" lon="7.17634">
        <ele>640.5</ele>
        <time>2013-03-23T09:35:22Z</time>
      </trkpt>
      <trkpt lat="43.7949" lon="7.17627">
        <ele>641.3</ele>
        <time>2013-03-23T09:35:28Z</time>
      </trkpt>
      <trkpt lat="43.79496" lon="7.17617">
        <ele>642.2</ele>
        <time>2013-03-23T09:35:35Z</time>
      </trkpt>
      <trkpt lat="43.79499" lon="7.17607">
        <ele>644.2</ele>
        <time>2013-03-23T09:35:41Z</time>
      </trkpt>
      <trkpt lat="43.79503" lon="7.17596">
        <ele>645.1</ele>
        <time>2013-03-23T09:35:47Z</time>
      </trkpt>
      <trkpt lat="43.79506" lon="7.17585">
        <ele>646.4</ele>
        <time>2013-03-23T09:35:54Z</time>
      </trkpt>
      <trkpt lat="43.79508" lon="7.17574">
        <ele>648.5</ele>
        <time>2013-03-23T09:36:01Z</time>
      </trkpt>
      <trkpt lat="43.79509" lon="7.17562">
        <ele>649.4</ele>
        <time>2013-03-23T09:36:08Z</time>
      </trkpt>
      <trkpt lat="43.79509" lon="7.17551">
        <ele>650.9</ele>
        <time>2013-03-23T09:36:14Z</time>
      </trkpt>
      <trkpt lat="43.7951" lon="7.17549">
        <ele>651</ele>
        <time>2013-03-23T09:36:15Z</time>
      </trkpt>
      <trkpt lat="43.79511" lon="7.17528">
        <ele>653.3</ele>
        <time>2013-03-23T09:36:27Z</time>
      </trkpt>
      <trkpt lat="43.79513" lon="7.17516">
        <ele>654.9</ele>
        <time>2013-03-23T09:36:33Z</time>
      </trkpt>
      <trkpt lat="43.79515" lon="7.17506">
        <ele>655.8</ele>
        <time>2013-03-23T09:36:39Z</time>
      </trkpt>
      <trkpt lat="43.79516" lon="7.17493">
        <ele>656.3</ele>
        <time>2013-03-23T09:36:46Z</time>
      </trkpt>
      <trkpt lat="43.79518" lon="7.17482">
        <ele>658.2</ele>
        <time>2013-03-23T09:36:52Z</time>
      </trkpt>
      <trkpt lat="43.7952" lon="7.1747">
        <ele>660.2</ele>
        <time>2013-03-23T09:36:59Z</time>
      </trkpt>
      <trkpt lat="43.79522" lon="7.1746">
        <ele>661.3</ele>
        <time>2013-03-23T09:37:05Z</time>
      </trkpt>
      <trkpt lat="43.79523" lon="7.17448">
        <ele>663.2</ele>
        <time>2013-03-23T09:37:12Z</time>
      </trkpt>
      <trkpt lat="43.79523" lon="7.17436">
        <ele>665.5</ele>
        <time>2013-03-23T09:37:20Z</time>
      </trkpt>
      <trkpt lat="43.79523" lon="7.17435">
        <ele>665.8</ele>
        <time>2013-03-23T09:37:21Z</time>
      </trkpt>
      <trkpt lat="43.79523" lon="7.17412">
        <ele>669.2</ele>
        <time>2013-03-23T09:37:36Z</time>
      </trkpt>
      <trkpt lat="43.79525" lon="7.17401">
        <ele>670.3</ele>
        <time>2013-03-23T09:37:44Z</time>
      </trkpt>
      <trkpt lat="43.79529" lon="7.1739">
        <ele>671.1</ele>
        <time>2013-03-23T09:37:51Z</time>
      </trkpt>
      <trkpt lat="43.79533" lon="7.17381">
        <ele>673.1</ele>
        <time>2013-03-23T09:37:58Z</time>
      </trkpt>
      <trkpt lat="43.79538" lon="7.17372">
        <ele>674.7</ele>
        <time>2013-03-23T09:38:05Z</time>
      </trkpt>
      <trkpt lat="43.79542" lon="7.17362">
        <ele>675.9</ele>
        <time>2013-03-23T09:38:12Z</time>
      </trkpt>
      <trkpt lat="43.79547" lon="7.17352">
        <ele>677.5</ele>
        <time>2013-03-23T09:38:19Z</time>
      </trkpt>
      <trkpt lat="43.79552" lon="7.17343">
        <ele>679.2</ele>
        <time>2013-03-23T09:38:26Z</time>
      </trkpt>
      <trkpt lat="43.79552" lon="7.17342">
        <ele>679.2</ele>
        <time>2013-03-23T09:38:27Z</time>
      </trkpt>
      <trkpt lat="43.79564" lon="7.17326">
        <ele>682.3</ele>
        <time>2013-03-23T09:38:40Z</time>
      </trkpt>
      <trkpt lat="43.79569" lon="7.17317">
        <ele>684.3</ele>
        <time>2013-03-23T09:38:47Z</time>
      </trkpt>
      <trkpt lat="43.79566" lon="7.17305">
        <ele>685.8</ele>
        <time>2013-03-23T09:39:46Z</time>
      </trkpt>
      <trkpt lat="43.79566" lon="7.17305">
        <ele>685.5</ele>
        <time>2013-03-23T09:39:47Z</time>
      </trkpt>
      <trkpt lat="43.79567" lon="7.17304">
        <ele>685.2</ele>
        <time>2013-03-23T09:40:26Z</time>
      </trkpt>
      <trkpt lat="43.79574" lon="7.17308">
        <ele>686</ele>
        <time>2013-03-23T09:41:14Z</time>
      </trkpt>
      <trkpt lat="43.79575" lon="7.17309">
        <ele>686</ele>
        <time>2013-03-23T09:41:15Z</time>
      </trkpt>
      <trkpt lat="43.79575" lon="7.17306">
        <ele>685.2</ele>
        <time>2013-03-23T09:43:31Z</time>
      </trkpt>
      <trkpt lat="43.79574" lon="7.17306">
        <ele>685.1</ele>
        <time>2013-03-23T09:43:32Z</time>
      </trkpt>
      <trkpt lat="43.79566" lon="7.17302">
        <ele>685.9</ele>
        <time>2013-03-23T09:44:43Z</time>
      </trkpt>
      <trkpt lat="43.79559" lon="7.17293">
        <ele>685.9</ele>
        <time>2013-03-23T09:48:48Z</time>
      </trkpt>
      <trkpt lat="43.79566" lon="7.17302">
        <ele>685</ele>
        <time>2013-03-23T09:50:01Z</time>
      </trkpt>
      <trkpt lat="43.7957" lon="7.17313">
        <ele>683.8</ele>
        <time>2013-03-23T09:57:11Z</time>
      </trkpt>
      <trkpt lat="43.79561" lon="7.1732">
        <ele>684.9</ele>
        <time>2013-03-23T09:58:28Z</time>
      </trkpt>
      <trkpt lat="43.7955" lon="7.17331">
        <ele>685.6</ele>
        <time>2013-03-23T09:58:35Z</time>
      </trkpt>
      <trkpt lat="43.79544" lon="7.17338">
        <ele>684.7</ele>
        <time>2013-03-23T09:58:39Z</time>
      </trkpt>
      <trkpt lat="43.79538" lon="7.17345">
        <ele>685.2</ele>
        <time>2013-03-23T09:58:43Z</time>
      </trkpt>
      <trkpt lat="43.79532" lon="7.17352">
        <ele>685.3</ele>
        <time>2013-03-23T09:58:47Z</time>
      </trkpt>
      <trkpt lat="43.79527" lon="7.17359">
        <ele>685.4</ele>
        <time>2013-03-23T09:58:51Z</time>
      </trkpt>
      <trkpt lat="43.79521" lon="7.17366">
        <ele>685.4</ele>
        <time>2013-03-23T09:58:56Z</time>
      </trkpt>
      <trkpt lat="43.79516" lon="7.17374">
        <ele>685.5</ele>
        <time>2013-03-23T09:59:00Z</time>
      </trkpt>
      <trkpt lat="43.79511" lon="7.17381">
        <ele>685.1</ele>
        <time>2013-03-23T09:59:03Z</time>
      </trkpt>
      <trkpt lat="43.79506" lon="7.1739">
        <ele>685.2</ele>
        <time>2013-03-23T09:59:07Z</time>
      </trkpt>
      <trkpt lat="43.79501" lon="7.17399">
        <ele>685.2</ele>
        <time>2013-03-23T09:59:11Z</time>
      </trkpt>
      <trkpt lat="43.79496" lon="7.17408">
        <ele>685.2</ele>
        <time>2013-03-23T09:59:15Z</time>
      </trkpt>
      <trkpt lat="43.79492" lon="7.17417">
        <ele>684.9</ele>
        <time>2013-03-23T09:59:18Z</time>
      </trkpt>
      <trkpt lat="43.79488" lon="7.17426">
        <ele>684.8</ele>
        <time>2013-03-23T09:59:21Z</time>
      </trkpt>
      <trkpt lat="43.79484" lon="7.17436">
        <ele>685</ele>
        <time>2013-03-23T09:59:24Z</time>
      </trkpt>
      <trkpt lat="43.7948" lon="7.17445">
        <ele>684.5</ele>
        <time>2013-03-23T09:59:27Z</time>
      </trkpt>
      <trkpt lat="43.79476" lon="7.17454">
        <ele>684.3</ele>
        <time>2013-03-23T09:59:30Z</time>
      </trkpt>
      <trkpt lat="43.79474" lon="7.17457">
        <ele>684.5</ele>
        <time>2013-03-23T09:59:31Z</time>
      </trkpt>
      <trkpt lat="43.79468" lon="7.17473">
        <ele>685.4</ele>
        <time>2013-03-23T09:59:36Z</time>
      </trkpt>
      <trkpt lat="43.79464" lon="7.17482">
        <ele>684.6</ele>
        <time>2013-03-23T09:59:39Z</time>
      </trkpt>
      <trkpt lat="43.7946" lon="7.17491">
        <ele>684.1</ele>
        <time>2013-03-23T09:59:42Z</time>
      </trkpt>
      <trkpt lat="43.79456" lon="7.175">
        <ele>683.8</ele>
        <time>2013-03-23T09:59:45Z</time>
      </trkpt>
      <trkpt lat="43.79452" lon="7.1751">
        <ele>683.7</ele>
        <time>2013-03-23T09:59:48Z</time>
      </trkpt>
      <trkpt lat="43.79448" lon="7.17518">
        <ele>683.1</ele>
        <time>2013-03-23T09:59:51Z</time>
      </trkpt>
      <trkpt lat="43.79444" lon="7.17527">
        <ele>683.4</ele>
        <time>2013-03-23T09:59:54Z</time>
      </trkpt>
      <trkpt lat="43.79439" lon="7.17535">
        <ele>684</ele>
        <time>2013-03-23T09:59:57Z</time>
      </trkpt>
      <trkpt lat="43.79435" lon="7.17542">
        <ele>684.5</ele>
        <time>2013-03-23T10:00:00Z</time>
      </trkpt>
      <trkpt lat="43.79429" lon="7.17549">
        <ele>684</ele>
        <time>2013-03-23T10:00:03Z</time>
      </trkpt>
      <trkpt lat="43.79423" lon="7.17556">
        <ele>682.8</ele>
        <time>2013-03-23T10:00:06Z</time>
      </trkpt>
      <trkpt lat="43.79416" lon="7.17561">
        <ele>682.8</ele>
        <time>2013-03-23T10:00:09Z</time>
      </trkpt>
      <trkpt lat="43.79409" lon="7.17566">
        <ele>683.4</ele>
        <time>2013-03-23T10:00:12Z</time>
      </trkpt>
      <trkpt lat="43.79402" lon="7.17568">
        <ele>683.5</ele>
        <time>2013-03-23T10:00:15Z</time>
      </trkpt>
      <trkpt lat="43.79394" lon="7.17569">
        <ele>683.1</ele>
        <time>2013-03-23T10:00:19Z</time>
      </trkpt>
      <trkpt lat="43.79386" lon="7.17568">
        <ele>683.6</ele>
        <time>2013-03-23T10:00:23Z</time>
      </trkpt>
      <trkpt lat="43.79378" lon="7.17566">
        <ele>683.9</ele>
        <time>2013-03-23T10:00:27Z</time>
      </trkpt>
      <trkpt lat="43.7937" lon="7.17566">
        <ele>683.3</ele>
        <time>2013-03-23T10:00:30Z</time>
      </trkpt>
      <trkpt lat="43.79363" lon="7.17559">
        <ele>682.8</ele>
        <time>2013-03-23T10:00:54Z</time>
      </trkpt>
      <trkpt lat="43.79362" lon="7.17557">
        <ele>682.7</ele>
        <time>2013-03-23T10:00:55Z</time>
      </trkpt>
      <trkpt lat="43.79357" lon="7.17539">
        <ele>685.5</ele>
        <time>2013-03-23T10:01:03Z</time>
      </trkpt>
      <trkpt lat="43.79364" lon="7.1753">
        <ele>687.9</ele>
        <time>2013-03-23T10:01:09Z</time>
      </trkpt>
      <trkpt lat="43.7937" lon="7.17523">
        <ele>689.7</ele>
        <time>2013-03-23T10:01:14Z</time>
      </trkpt>
      <trkpt lat="43.79377" lon="7.17516">
        <ele>692.7</ele>
        <time>2013-03-23T10:01:20Z</time>
      </trkpt>
      <trkpt lat="43.79382" lon="7.17506">
        <ele>693.5</ele>
        <time>2013-03-23T10:01:26Z</time>
      </trkpt>
      <trkpt lat="43.79386" lon="7.17495">
        <ele>696</ele>
        <time>2013-03-23T10:01:33Z</time>
      </trkpt>
      <trkpt lat="43.79391" lon="7.17487">
        <ele>696.9</ele>
        <time>2013-03-23T10:01:39Z</time>
      </trkpt>
      <trkpt lat="43.79399" lon="7.1748">
        <ele>697.3</ele>
        <time>2013-03-23T10:01:47Z</time>
      </trkpt>
      <trkpt lat="43.79405" lon="7.17473">
        <ele>699.1</ele>
        <time>2013-03-23T10:01:54Z</time>
      </trkpt>
      <trkpt lat="43.79412" lon="7.17466">
        <ele>700.5</ele>
        <time>2013-03-23T10:02:00Z</time>
      </trkpt>
      <trkpt lat="43.79412" lon="7.17465">
        <ele>700.8</ele>
        <time>2013-03-23T10:02:01Z</time>
      </trkpt>
      <trkpt lat="43.79421" lon="7.17446">
        <ele>703.6</ele>
        <time>2013-03-23T10:02:14Z</time>
      </trkpt>
      <trkpt lat="43.7942" lon="7.17434">
        <ele>705</ele>
        <time>2013-03-23T10:02:22Z</time>
      </trkpt>
      <trkpt lat="43.7941" lon="7.17433">
        <ele>707</ele>
        <time>2013-03-23T10:02:30Z</time>
      </trkpt>
      <trkpt lat="43.79402" lon="7.17432">
        <ele>709</ele>
        <time>2013-03-23T10:02:36Z</time>
      </trkpt>
      <trkpt lat="43.79394" lon="7.17431">
        <ele>710.7</ele>
        <time>2013-03-23T10:02:43Z</time>
      </trkpt>
      <trkpt lat="43.79387" lon="7.17425">
        <ele>712.9</ele>
        <time>2013-03-23T10:02:51Z</time>
      </trkpt>
      <trkpt lat="43.79394" lon="7.17418">
        <ele>714.6</ele>
        <time>2013-03-23T10:04:03Z</time>
      </trkpt>
      <trkpt lat="43.79394" lon="7.17418">
        <ele>714.5</ele>
        <time>2013-03-23T10:04:04Z</time>
      </trkpt>
      <trkpt lat="43.79403" lon="7.17399">
        <ele>715.9</ele>
        <time>2013-03-23T10:04:18Z</time>
      </trkpt>
      <trkpt lat="43.79407" lon="7.17388">
        <ele>718.6</ele>
        <time>2013-03-23T10:04:25Z</time>
      </trkpt>
      <trkpt lat="43.79412" lon="7.17379">
        <ele>720.4</ele>
        <time>2013-03-23T10:04:32Z</time>
      </trkpt>
      <trkpt lat="43.79412" lon="7.17367">
        <ele>723.7</ele>
        <time>2013-03-23T10:05:03Z</time>
      </trkpt>
      <trkpt lat="43.79412" lon="7.17354">
        <ele>725.9</ele>
        <time>2013-03-23T10:05:25Z</time>
      </trkpt>
      <trkpt lat="43.79412" lon="7.17354">
        <ele>726.1</ele>
        <time>2013-03-23T10:05:26Z</time>
      </trkpt>
      <trkpt lat="43.79414" lon="7.17331">
        <ele>731.1</ele>
        <time>2013-03-23T10:05:58Z</time>
      </trkpt>
      <trkpt lat="43.79417" lon="7.1732">
        <ele>734.4</ele>
        <time>2013-03-23T10:06:12Z</time>
      </trkpt>
      <trkpt lat="43.7942" lon="7.17309">
        <ele>737.8</ele>
        <time>2013-03-23T10:06:26Z</time>
      </trkpt>
      <trkpt lat="43.7942" lon="7.17308">
        <ele>738</ele>
        <time>2013-03-23T10:06:27Z</time>
      </trkpt>
      <trkpt lat="43.79424" lon="7.17286">
        <ele>742.7</ele>
        <time>2013-03-23T10:06:56Z</time>
      </trkpt>
      <trkpt lat="43.79425" lon="7.17274">
        <ele>746.1</ele>
        <time>2013-03-23T10:07:13Z</time>
      </trkpt>
      <trkpt lat="43.79427" lon="7.17261">
        <ele>749.5</ele>
        <time>2013-03-23T10:07:42Z</time>
      </trkpt>
      <trkpt lat="43.79427" lon="7.1726">
        <ele>749.5</ele>
        <time>2013-03-23T10:07:43Z</time>
      </trkpt>
      <trkpt lat="43.79432" lon="7.17239">
        <ele>754</ele>
        <time>2013-03-23T10:08:08Z</time>
      </trkpt>
      <trkpt lat="43.79437" lon="7.17229">
        <ele>756.7</ele>
        <time>2013-03-23T10:08:24Z</time>
      </trkpt>
      <trkpt lat="43.79442" lon="7.17219">
        <ele>759.9</ele>
        <time>2013-03-23T10:08:39Z</time>
      </trkpt>
      <trkpt lat="43.79442" lon="7.17207">
        <ele>761.6</ele>
        <time>2013-03-23T10:08:58Z</time>
      </trkpt>
      <trkpt lat="43.79442" lon="7.17207">
        <ele>761.5</ele>
        <time>2013-03-23T10:08:59Z</time>
      </trkpt>
      <trkpt lat="43.79438" lon="7.17184">
        <ele>767.2</ele>
        <time>2013-03-23T10:09:30Z</time>
      </trkpt>
      <trkpt lat="43.79438" lon="7.17171">
        <ele>769.7</ele>
        <time>2013-03-23T10:09:44Z</time>
      </trkpt>
      <trkpt lat="43.79437" lon="7.17159">
        <ele>773.2</ele>
        <time>2013-03-23T10:09:59Z</time>
      </trkpt>
      <trkpt lat="43.79437" lon="7.17158">
        <ele>773.3</ele>
        <time>2013-03-23T10:10:00Z</time>
      </trkpt>
      <trkpt lat="43.79436" lon="7.17135">
        <ele>778.5</ele>
        <time>2013-03-23T10:10:33Z</time>
      </trkpt>
      <trkpt lat="43.79434" lon="7.17123">
        <ele>780.5</ele>
        <time>2013-03-23T10:10:58Z</time>
      </trkpt>
      <trkpt lat="43.79433" lon="7.17111">
        <ele>784.7</ele>
        <time>2013-03-23T10:11:32Z</time>
      </trkpt>
      <trkpt lat="43.79433" lon="7.1711">
        <ele>784.8</ele>
        <time>2013-03-23T10:11:33Z</time>
      </trkpt>
      <trkpt lat="43.79434" lon="7.17088">
        <ele>787.3</ele>
        <time>2013-03-23T10:11:55Z</time>
      </trkpt>
      <trkpt lat="43.79434" lon="7.17076">
        <ele>790.3</ele>
        <time>2013-03-23T10:12:08Z</time>
      </trkpt>
      <trkpt lat="43.79434" lon="7.17064">
        <ele>791.7</ele>
        <time>2013-03-23T10:12:20Z</time>
      </trkpt>
      <trkpt lat="43.79433" lon="7.17052">
        <ele>793.5</ele>
        <time>2013-03-23T10:12:33Z</time>
      </trkpt>
      <trkpt lat="43.79433" lon="7.17051">
        <ele>793.6</ele>
        <time>2013-03-23T10:12:34Z</time>
      </trkpt>
      <trkpt lat="43.79431" lon="7.17029">
        <ele>797.5</ele>
        <time>2013-03-23T10:13:00Z</time>
      </trkpt>
      <trkpt lat="43.79427" lon="7.17018">
        <ele>799.7</ele>
        <time>2013-03-23T10:13:12Z</time>
      </trkpt>
      <trkpt lat="43.79428" lon="7.17006">
        <ele>800.7</ele>
        <time>2013-03-23T10:13:24Z</time>
      </trkpt>
      <trkpt lat="43.79428" lon="7.16994">
        <ele>801.9</ele>
        <time>2013-03-23T10:13:35Z</time>
      </trkpt>
      <trkpt lat="43.79428" lon="7.16993">
        <ele>802.1</ele>
        <time>2013-03-23T10:13:36Z</time>
      </trkpt>
      <trkpt lat="43.79418" lon="7.16976">
        <ele>805.8</ele>
        <time>2013-03-23T10:14:00Z</time>
      </trkpt>
      <trkpt lat="43.79414" lon="7.16965">
        <ele>806.9</ele>
        <time>2013-03-23T10:14:12Z</time>
      </trkpt>
      <trkpt lat="43.79412" lon="7.16953">
        <ele>809.4</ele>
        <time>2013-03-23T10:14:24Z</time>
      </trkpt>
      <trkpt lat="43.79409" lon="7.16942">
        <ele>811.3</ele>
        <time>2013-03-23T10:14:35Z</time>
      </trkpt>
      <trkpt lat="43.79407" lon="7.16931">
        <ele>812.2</ele>
        <time>2013-03-23T10:14:45Z</time>
      </trkpt>
      <trkpt lat="43.79406" lon="7.1693">
        <ele>812.1</ele>
        <time>2013-03-23T10:14:46Z</time>
      </trkpt>
      <trkpt lat="43.79407" lon="7.16908">
        <ele>815.6</ele>
        <time>2013-03-23T10:15:07Z</time>
      </trkpt>
      <trkpt lat="43.79411" lon="7.16898">
        <ele>818</ele>
        <time>2013-03-23T10:15:20Z</time>
      </trkpt>
      <trkpt lat="43.79415" lon="7.16887">
        <ele>818.9</ele>
        <time>2013-03-23T10:15:34Z</time>
      </trkpt>
      <trkpt lat="43.7942" lon="7.16878">
        <ele>822</ele>
        <time>2013-03-23T10:15:48Z</time>
      </trkpt>
      <trkpt lat="43.79421" lon="7.16878">
        <ele>822.3</ele>
        <time>2013-03-23T10:15:49Z</time>
      </trkpt>
      <trkpt lat="43.79437" lon="7.16878">
        <ele>825.4</ele>
        <time>2013-03-23T10:16:11Z</time>
      </trkpt>
      <trkpt lat="43.79445" lon="7.16881">
        <ele>826.8</ele>
        <time>2013-03-23T10:16:22Z</time>
      </trkpt>
      <trkpt lat="43.79454" lon="7.16879">
        <ele>827.9</ele>
        <time>2013-03-23T10:16:32Z</time>
      </trkpt>
      <trkpt lat="43.79462" lon="7.16879">
        <ele>829.6</ele>
        <time>2013-03-23T10:16:41Z</time>
      </trkpt>
      <trkpt lat="43.79471" lon="7.16877">
        <ele>829.9</ele>
        <time>2013-03-23T10:16:50Z</time>
      </trkpt>
      <trkpt lat="43.79471" lon="7.16876">
        <ele>830</ele>
        <time>2013-03-23T10:16:51Z</time>
      </trkpt>
      <trkpt lat="43.79477" lon="7.16857">
        <ele>834</ele>
        <time>2013-03-23T10:17:14Z</time>
      </trkpt>
      <trkpt lat="43.79474" lon="7.16845">
        <ele>835.8</ele>
        <time>2013-03-23T10:17:26Z</time>
      </trkpt>
      <trkpt lat="43.7947" lon="7.16834">
        <ele>837.8</ele>
        <time>2013-03-23T10:17:38Z</time>
      </trkpt>
      <trkpt lat="43.79465" lon="7.16825">
        <ele>838.6</ele>
        <time>2013-03-23T10:17:49Z</time>
      </trkpt>
      <trkpt lat="43.7946" lon="7.16815">
        <ele>840.2</ele>
        <time>2013-03-23T10:17:58Z</time>
      </trkpt>
      <trkpt lat="43.7946" lon="7.16814">
        <ele>840.1</ele>
        <time>2013-03-23T10:17:59Z</time>
      </trkpt>
      <trkpt lat="43.79454" lon="7.16792">
        <ele>843.1</ele>
        <time>2013-03-23T10:18:25Z</time>
      </trkpt>
      <trkpt lat="43.79448" lon="7.16784">
        <ele>843.2</ele>
        <time>2013-03-23T10:19:01Z</time>
      </trkpt>
      <trkpt lat="43.79448" lon="7.16783">
        <ele>843.2</ele>
        <time>2013-03-23T10:19:02Z</time>
      </trkpt>
      <trkpt lat="43.79443" lon="7.16762">
        <ele>846</ele>
        <time>2013-03-23T10:19:23Z</time>
      </trkpt>
      <trkpt lat="43.79437" lon="7.16753">
        <ele>848.5</ele>
        <time>2013-03-23T10:19:35Z</time>
      </trkpt>
      <trkpt lat="43.79432" lon="7.16743">
        <ele>851</ele>
        <time>2013-03-23T10:19:47Z</time>
      </trkpt>
      <trkpt lat="43.79428" lon="7.16732">
        <ele>852.7</ele>
        <time>2013-03-23T10:19:59Z</time>
      </trkpt>
      <trkpt lat="43.79424" lon="7.16721">
        <ele>854.6</ele>
        <time>2013-03-23T10:20:11Z</time>
      </trkpt>
      <trkpt lat="43.79424" lon="7.1672">
        <ele>855</ele>
        <time>2013-03-23T10:20:12Z</time>
      </trkpt>
      <trkpt lat="43.79418" lon="7.16699">
        <ele>859.1</ele>
        <time>2013-03-23T10:20:35Z</time>
      </trkpt>
      <trkpt lat="43.79416" lon="7.16688">
        <ele>861.5</ele>
        <time>2013-03-23T10:20:47Z</time>
      </trkpt>
      <trkpt lat="43.79417" lon="7.16676">
        <ele>863.7</ele>
        <time>2013-03-23T10:20:58Z</time>
      </trkpt>
      <trkpt lat="43.79416" lon="7.16664">
        <ele>865.4</ele>
        <time>2013-03-23T10:21:11Z</time>
      </trkpt>
      <trkpt lat="43.79413" lon="7.16653">
        <ele>866.9</ele>
        <time>2013-03-23T10:21:22Z</time>
      </trkpt>
      <trkpt lat="43.79413" lon="7.16651">
        <ele>867.1</ele>
        <time>2013-03-23T10:21:23Z</time>
      </trkpt>
      <trkpt lat="43.79408" lon="7.1663">
        <ele>870.5</ele>
        <time>2013-03-23T10:21:44Z</time>
      </trkpt>
      <trkpt lat="43.79409" lon="7.16617">
        <ele>871.7</ele>
        <time>2013-03-23T10:21:55Z</time>
      </trkpt>
      <trkpt lat="43.79412" lon="7.16607">
        <ele>873.7</ele>
        <time>2013-03-23T10:22:06Z</time>
      </trkpt>
      <trkpt lat="43.7941" lon="7.16595">
        <ele>876.6</ele>
        <time>2013-03-23T10:22:18Z</time>
      </trkpt>
      <trkpt lat="43.79403" lon="7.16588">
        <ele>878.4</ele>
        <time>2013-03-23T10:22:39Z</time>
      </trkpt>
      <trkpt lat="43.79402" lon="7.16587">
        <ele>878.4</ele>
        <time>2013-03-23T10:22:40Z</time>
      </trkpt>
      <trkpt lat="43.79399" lon="7.16564">
        <ele>880</ele>
        <time>2013-03-23T10:22:59Z</time>
      </trkpt>
      <trkpt lat="43.79399" lon="7.16552">
        <ele>880.5</ele>
        <time>2013-03-23T10:23:07Z</time>
      </trkpt>
      <trkpt lat="43.79397" lon="7.16541">
        <ele>881.7</ele>
        <time>2013-03-23T10:23:14Z</time>
      </trkpt>
      <trkpt lat="43.79396" lon="7.16529">
        <ele>882.7</ele>
        <time>2013-03-23T10:23:21Z</time>
      </trkpt>
      <trkpt lat="43.79395" lon="7.16518">
        <ele>883.2</ele>
        <time>2013-03-23T10:23:28Z</time>
      </trkpt>
      <trkpt lat="43.79393" lon="7.16507">
        <ele>884.3</ele>
        <time>2013-03-23T10:23:35Z</time>
      </trkpt>
      <trkpt lat="43.79392" lon="7.16496">
        <ele>885</ele>
        <time>2013-03-23T10:23:42Z</time>
      </trkpt>
      <trkpt lat="43.79392" lon="7.16495">
        <ele>885.3</ele>
        <time>2013-03-23T10:23:43Z</time>
      </trkpt>
      <trkpt lat="43.7939" lon="7.16474">
        <ele>887.4</ele>
        <time>2013-03-23T10:23:56Z</time>
      </trkpt>
      <trkpt lat="43.7939" lon="7.16462">
        <ele>889.3</ele>
        <time>2013-03-23T10:24:04Z</time>
      </trkpt>
      <trkpt lat="43.79388" lon="7.16451">
        <ele>890.8</ele>
        <time>2013-03-23T10:24:12Z</time>
      </trkpt>
      <trkpt lat="43.79384" lon="7.16441">
        <ele>892.8</ele>
        <time>2013-03-23T10:24:19Z</time>
      </trkpt>
      <trkpt lat="43.79379" lon="7.16433">
        <ele>893</ele>
        <time>2013-03-23T10:24:25Z</time>
      </trkpt>
      <trkpt lat="43.79373" lon="7.16426">
        <ele>894.1</ele>
        <time>2013-03-23T10:24:31Z</time>
      </trkpt>
      <trkpt lat="43.79366" lon="7.16419">
        <ele>893.7</ele>
        <time>2013-03-23T10:24:36Z</time>
      </trkpt>
      <trkpt lat="43.7936" lon="7.16416">
        <ele>893.6</ele>
        <time>2013-03-23T10:24:40Z</time>
      </trkpt>
      <trkpt lat="43.79353" lon="7.16409">
        <ele>893.2</ele>
        <time>2013-03-23T10:24:43Z</time>
      </trkpt>
      <trkpt lat="43.79351" lon="7.16406">
        <ele>893</ele>
        <time>2013-03-23T10:24:44Z</time>
      </trkpt>
      <trkpt lat="43.79345" lon="7.1639">
        <ele>892.5</ele>
        <time>2013-03-23T10:24:51Z</time>
      </trkpt>
      <trkpt lat="43.79343" lon="7.16378">
        <ele>892.9</ele>
        <time>2013-03-23T10:24:56Z</time>
      </trkpt>
      <trkpt lat="43.79341" lon="7.16367">
        <ele>893.6</ele>
        <time>2013-03-23T10:25:01Z</time>
      </trkpt>
      <trkpt lat="43.7934" lon="7.16355">
        <ele>893.3</ele>
        <time>2013-03-23T10:25:06Z</time>
      </trkpt>
      <trkpt lat="43.79341" lon="7.16344">
        <ele>894.6</ele>
        <time>2013-03-23T10:25:11Z</time>
      </trkpt>
      <trkpt lat="43.79345" lon="7.16334">
        <ele>896.1</ele>
        <time>2013-03-23T10:25:17Z</time>
      </trkpt>
      <trkpt lat="43.79349" lon="7.16325">
        <ele>898.2</ele>
        <time>2013-03-23T10:25:23Z</time>
      </trkpt>
      <trkpt lat="43.79356" lon="7.16317">
        <ele>898</ele>
        <time>2013-03-23T10:26:19Z</time>
      </trkpt>
      <trkpt lat="43.79357" lon="7.16317">
        <ele>897.9</ele>
        <time>2013-03-23T10:26:20Z</time>
      </trkpt>
      <trkpt lat="43.79348" lon="7.16311">
        <ele>898</ele>
        <time>2013-03-23T10:35:21Z</time>
      </trkpt>
      <trkpt lat="43.79342" lon="7.16293">
        <ele>897.8</ele>
        <time>2013-03-23T10:35:25Z</time>
      </trkpt>
      <trkpt lat="43.7934" lon="7.16284">
        <ele>897.4</ele>
        <time>2013-03-23T10:35:27Z</time>
      </trkpt>
      <trkpt lat="43.79338" lon="7.16274">
        <ele>897.1</ele>
        <time>2013-03-23T10:35:29Z</time>
      </trkpt>
      <trkpt lat="43.79338" lon="7.16262">
        <ele>897.4</ele>
        <time>2013-03-23T10:35:32Z</time>
      </trkpt>
      <trkpt lat="43.7934" lon="7.16252">
        <ele>897.9</ele>
        <time>2013-03-23T10:35:35Z</time>
      </trkpt>
      <trkpt lat="43.79343" lon="7.16241">
        <ele>897.5</ele>
        <time>2013-03-23T10:35:38Z</time>
      </trkpt>
      <trkpt lat="43.79346" lon="7.16231">
        <ele>897.4</ele>
        <time>2013-03-23T10:35:41Z</time>
      </trkpt>
      <trkpt lat="43.79351" lon="7.16223">
        <ele>897.2</ele>
        <time>2013-03-23T10:35:44Z</time>
      </trkpt>
      <trkpt lat="43.79355" lon="7.16214">
        <ele>897.1</ele>
        <time>2013-03-23T10:35:47Z</time>
      </trkpt>
      <trkpt lat="43.79358" lon="7.16203">
        <ele>897.3</ele>
        <time>2013-03-23T10:35:50Z</time>
      </trkpt>
      <trkpt lat="43.79359" lon="7.16191">
        <ele>897.7</ele>
        <time>2013-03-23T10:35:53Z</time>
      </trkpt>
      <trkpt lat="43.79357" lon="7.1618">
        <ele>897.6</ele>
        <time>2013-03-23T10:35:56Z</time>
      </trkpt>
      <trkpt lat="43.79355" lon="7.16169">
        <ele>897.2</ele>
        <time>2013-03-23T10:35:59Z</time>
      </trkpt>
      <trkpt lat="43.7935" lon="7.1616">
        <ele>897</ele>
        <time>2013-03-23T10:36:02Z</time>
      </trkpt>
      <trkpt lat="43.79343" lon="7.16152">
        <ele>897.1</ele>
        <time>2013-03-23T10:36:05Z</time>
      </trkpt>
      <trkpt lat="43.79338" lon="7.16144">
        <ele>897</ele>
        <time>2013-03-23T10:36:08Z</time>
      </trkpt>
      <trkpt lat="43.79332" lon="7.16136">
        <ele>896.7</ele>
        <time>2013-03-23T10:36:11Z</time>
      </trkpt>
      <trkpt lat="43.79327" lon="7.1613">
        <ele>896.7</ele>
        <time>2013-03-23T10:36:13Z</time>
      </trkpt>
      <trkpt lat="43.79323" lon="7.16124">
        <ele>896.7</ele>
        <time>2013-03-23T10:36:15Z</time>
      </trkpt>
      <trkpt lat="43.79319" lon="7.16118">
        <ele>896.8</ele>
        <time>2013-03-23T10:36:17Z</time>
      </trkpt>
      <trkpt lat="43.79314" lon="7.16112">
        <ele>896.7</ele>
        <time>2013-03-23T10:36:19Z</time>
      </trkpt>
      <trkpt lat="43.7931" lon="7.16106">
        <ele>896.6</ele>
        <time>2013-03-23T10:36:21Z</time>
      </trkpt>
      <trkpt lat="43.79307" lon="7.16103">
        <ele>896.8</ele>
        <time>2013-03-23T10:36:22Z</time>
      </trkpt>
      <trkpt lat="43.79301" lon="7.16094">
        <ele>896.9</ele>
        <time>2013-03-23T10:36:25Z</time>
      </trkpt>
      <trkpt lat="43.79296" lon="7.16088">
        <ele>896.8</ele>
        <time>2013-03-23T10:36:27Z</time>
      </trkpt>
      <trkpt lat="43.79292" lon="7.16081">
        <ele>897.3</ele>
        <time>2013-03-23T10:36:29Z</time>
      </trkpt>
      <trkpt lat="43.79286" lon="7.16072">
        <ele>897.8</ele>
        <time>2013-03-23T10:36:32Z</time>
      </trkpt>
      <trkpt lat="43.79281" lon="7.16064">
        <ele>898.2</ele>
        <time>2013-03-23T10:36:35Z</time>
      </trkpt>
      <trkpt lat="43.79277" lon="7.16057">
        <ele>898.5</ele>
        <time>2013-03-23T10:36:37Z</time>
      </trkpt>
      <trkpt lat="43.79272" lon="7.1605">
        <ele>897.9</ele>
        <time>2013-03-23T10:36:39Z</time>
      </trkpt>
      <trkpt lat="43.79267" lon="7.16043">
        <ele>897.3</ele>
        <time>2013-03-23T10:36:41Z</time>
      </trkpt>
      <trkpt lat="43.79261" lon="7.16035">
        <ele>896.8</ele>
        <time>2013-03-23T10:36:43Z</time>
      </trkpt>
      <trkpt lat="43.79259" lon="7.1603">
        <ele>896.5</ele>
        <time>2013-03-23T10:36:44Z</time>
      </trkpt>
      <trkpt lat="43.79256" lon="7.16024">
        <ele>896.2</ele>
        <time>2013-03-23T10:36:45Z</time>
      </trkpt>
      <trkpt lat="43.79254" lon="7.16019">
        <ele>896</ele>
        <time>2013-03-23T10:36:46Z</time>
      </trkpt>
      <trkpt lat="43.79252" lon="7.16013">
        <ele>895.6</ele>
        <time>2013-03-23T10:36:47Z</time>
      </trkpt>
      <trkpt lat="43.79249" lon="7.16007">
        <ele>895.3</ele>
        <time>2013-03-23T10:36:48Z</time>
      </trkpt>
      <trkpt lat="43.79247" lon="7.16001">
        <ele>895.1</ele>
        <time>2013-03-23T10:36:49Z</time>
      </trkpt>
      <trkpt lat="43.79243" lon="7.15991">
        <ele>895</ele>
        <time>2013-03-23T10:36:51Z</time>
      </trkpt>
      <trkpt lat="43.79237" lon="7.15984">
        <ele>895.3</ele>
        <time>2013-03-23T10:36:53Z</time>
      </trkpt>
      <trkpt lat="43.79232" lon="7.15981">
        <ele>894.6</ele>
        <time>2013-03-23T10:36:55Z</time>
      </trkpt>
      <trkpt lat="43.79226" lon="7.15977">
        <ele>894.4</ele>
        <time>2013-03-23T10:36:57Z</time>
      </trkpt>
      <trkpt lat="43.7922" lon="7.15974">
        <ele>894.5</ele>
        <time>2013-03-23T10:36:59Z</time>
      </trkpt>
      <trkpt lat="43.79214" lon="7.15971">
        <ele>895.6</ele>
        <time>2013-03-23T10:37:01Z</time>
      </trkpt>
      <trkpt lat="43.79207" lon="7.15966">
        <ele>896.1</ele>
        <time>2013-03-23T10:37:04Z</time>
      </trkpt>
      <trkpt lat="43.792" lon="7.1596">
        <ele>896</ele>
        <time>2013-03-23T10:37:07Z</time>
      </trkpt>
      <trkpt lat="43.79194" lon="7.15953">
        <ele>896.2</ele>
        <time>2013-03-23T10:37:10Z</time>
      </trkpt>
      <trkpt lat="43.7919" lon="7.15944">
        <ele>896.7</ele>
        <time>2013-03-23T10:37:13Z</time>
      </trkpt>
      <trkpt lat="43.79187" lon="7.15935">
        <ele>897.1</ele>
        <time>2013-03-23T10:37:16Z</time>
      </trkpt>
      <trkpt lat="43.79182" lon="7.15925">
        <ele>897.7</ele>
        <time>2013-03-23T10:37:19Z</time>
      </trkpt>
      <trkpt lat="43.79175" lon="7.15918">
        <ele>897.9</ele>
        <time>2013-03-23T10:37:22Z</time>
      </trkpt>
      <trkpt lat="43.79173" lon="7.15916">
        <ele>897.9</ele>
        <time>2013-03-23T10:37:23Z</time>
      </trkpt>
      <trkpt lat="43.79163" lon="7.15907">
        <ele>898.4</ele>
        <time>2013-03-23T10:37:28Z</time>
      </trkpt>
      <trkpt lat="43.79158" lon="7.159">
        <ele>899.3</ele>
        <time>2013-03-23T10:37:31Z</time>
      </trkpt>
      <trkpt lat="43.79154" lon="7.1589">
        <ele>899.7</ele>
        <time>2013-03-23T10:37:34Z</time>
      </trkpt>
      <trkpt lat="43.79153" lon="7.1588">
        <ele>900.1</ele>
        <time>2013-03-23T10:37:37Z</time>
      </trkpt>
      <trkpt lat="43.79151" lon="7.15869">
        <ele>900.5</ele>
        <time>2013-03-23T10:37:41Z</time>
      </trkpt>
      <trkpt lat="43.79151" lon="7.15858">
        <ele>901.1</ele>
        <time>2013-03-23T10:37:45Z</time>
      </trkpt>
      <trkpt lat="43.79152" lon="7.15848">
        <ele>901.7</ele>
        <time>2013-03-23T10:37:48Z</time>
      </trkpt>
      <trkpt lat="43.79151" lon="7.15837">
        <ele>901.8</ele>
        <time>2013-03-23T10:37:51Z</time>
      </trkpt>
      <trkpt lat="43.7915" lon="7.15826">
        <ele>901.7</ele>
        <time>2013-03-23T10:37:54Z</time>
      </trkpt>
      <trkpt lat="43.7915" lon="7.15815">
        <ele>901.6</ele>
        <time>2013-03-23T10:37:57Z</time>
      </trkpt>
      <trkpt lat="43.79151" lon="7.15804">
        <ele>901.5</ele>
        <time>2013-03-23T10:38:00Z</time>
      </trkpt>
      <trkpt lat="43.79153" lon="7.15793">
        <ele>901.5</ele>
        <time>2013-03-23T10:38:03Z</time>
      </trkpt>
      <trkpt lat="43.79153" lon="7.15783">
        <ele>901.8</ele>
        <time>2013-03-23T10:38:06Z</time>
      </trkpt>
      <trkpt lat="43.79153" lon="7.15773">
        <ele>902.4</ele>
        <time>2013-03-23T10:38:09Z</time>
      </trkpt>
      <trkpt lat="43.79152" lon="7.15762">
        <ele>903.4</ele>
        <time>2013-03-23T10:38:12Z</time>
      </trkpt>
      <trkpt lat="43.7915" lon="7.15752">
        <ele>903.3</ele>
        <time>2013-03-23T10:38:15Z</time>
      </trkpt>
      <trkpt lat="43.79148" lon="7.15742">
        <ele>903.7</ele>
        <time>2013-03-23T10:38:18Z</time>
      </trkpt>
      <trkpt lat="43.79147" lon="7.15731">
        <ele>904.4</ele>
        <time>2013-03-23T10:38:22Z</time>
      </trkpt>
      <trkpt lat="43.79147" lon="7.15721">
        <ele>905.4</ele>
        <time>2013-03-23T10:38:26Z</time>
      </trkpt>
      <trkpt lat="43.79148" lon="7.15718">
        <ele>905.5</ele>
        <time>2013-03-23T10:38:27Z</time>
      </trkpt>
      <trkpt lat="43.79152" lon="7.15699">
        <ele>905.8</ele>
        <time>2013-03-23T10:39:58Z</time>
      </trkpt>
      <trkpt lat="43.79153" lon="7.15696">
        <ele>906.1</ele>
        <time>2013-03-23T10:39:59Z</time>
      </trkpt>
      <trkpt lat="43.79154" lon="7.15679">
        <ele>907.3</ele>
        <time>2013-03-23T10:40:03Z</time>
      </trkpt>
      <trkpt lat="43.79155" lon="7.1567">
        <ele>907.1</ele>
        <time>2013-03-23T10:40:05Z</time>
      </trkpt>
      <trkpt lat="43.79155" lon="7.15659">
        <ele>906.2</ele>
        <time>2013-03-23T10:40:08Z</time>
      </trkpt>
      <trkpt lat="43.79152" lon="7.15649">
        <ele>906.2</ele>
        <time>2013-03-23T10:40:12Z</time>
      </trkpt>
      <trkpt lat="43.79147" lon="7.15641">
        <ele>906.8</ele>
        <time>2013-03-23T10:40:14Z</time>
      </trkpt>
      <trkpt lat="43.79144" lon="7.15636">
        <ele>906.8</ele>
        <time>2013-03-23T10:40:15Z</time>
      </trkpt>
      <trkpt lat="43.79141" lon="7.1563">
        <ele>906.8</ele>
        <time>2013-03-23T10:40:16Z</time>
      </trkpt>
      <trkpt lat="43.79138" lon="7.15624">
        <ele>906.8</ele>
        <time>2013-03-23T10:40:17Z</time>
      </trkpt>
      <trkpt lat="43.79134" lon="7.15618">
        <ele>906.4</ele>
        <time>2013-03-23T10:40:18Z</time>
      </trkpt>
      <trkpt lat="43.79131" lon="7.15611">
        <ele>906.1</ele>
        <time>2013-03-23T10:40:19Z</time>
      </trkpt>
      <trkpt lat="43.79127" lon="7.15604">
        <ele>905.9</ele>
        <time>2013-03-23T10:40:20Z</time>
      </trkpt>
      <trkpt lat="43.79124" lon="7.15597">
        <ele>905.7</ele>
        <time>2013-03-23T10:40:21Z</time>
      </trkpt>
      <trkpt lat="43.79121" lon="7.1559">
        <ele>905.6</ele>
        <time>2013-03-23T10:40:22Z</time>
      </trkpt>
      <trkpt lat="43.79118" lon="7.15583">
        <ele>905.5</ele>
        <time>2013-03-23T10:40:23Z</time>
      </trkpt>
      <trkpt lat="43.79116" lon="7.15576">
        <ele>905.4</ele>
        <time>2013-03-23T10:40:24Z</time>
      </trkpt>
      <trkpt lat="43.79113" lon="7.1557">
        <ele>905.3</ele>
        <time>2013-03-23T10:40:25Z</time>
      </trkpt>
      <trkpt lat="43.79111" lon="7.15564">
        <ele>905.2</ele>
        <time>2013-03-23T10:40:26Z</time>
      </trkpt>
      <trkpt lat="43.79108" lon="7.15558">
        <ele>905.1</ele>
        <time>2013-03-23T10:40:27Z</time>
      </trkpt>
      <trkpt lat="43.79105" lon="7.15552">
        <ele>905.4</ele>
        <time>2013-03-23T10:40:28Z</time>
      </trkpt>
      <trkpt lat="43.79103" lon="7.15546">
        <ele>905.6</ele>
        <time>2013-03-23T10:40:29Z</time>
      </trkpt>
      <trkpt lat="43.791" lon="7.15539">
        <ele>905.7</ele>
        <time>2013-03-23T10:40:30Z</time>
      </trkpt>
      <trkpt lat="43.79097" lon="7.15533">
        <ele>905.6</ele>
        <time>2013-03-23T10:40:31Z</time>
      </trkpt>
      <trkpt lat="43.79095" lon="7.15526">
        <ele>905.5</ele>
        <time>2013-03-23T10:40:32Z</time>
      </trkpt>
      <trkpt lat="43.79092" lon="7.15519">
        <ele>905.4</ele>
        <time>2013-03-23T10:40:33Z</time>
      </trkpt>
      <trkpt lat="43.79089" lon="7.15512">
        <ele>905.6</ele>
        <time>2013-03-23T10:40:34Z</time>
      </trkpt>
      <trkpt lat="43.79087" lon="7.15505">
        <ele>905.8</ele>
        <time>2013-03-23T10:40:35Z</time>
      </trkpt>
      <trkpt lat="43.79084" lon="7.15498">
        <ele>905.9</ele>
        <time>2013-03-23T10:40:36Z</time>
      </trkpt>
      <trkpt lat="43.79081" lon="7.15491">
        <ele>906.2</ele>
        <time>2013-03-23T10:40:37Z</time>
      </trkpt>
      <trkpt lat="43.79079" lon="7.15484">
        <ele>906.5</ele>
        <time>2013-03-23T10:40:38Z</time>
      </trkpt>
      <trkpt lat="43.79076" lon="7.15476">
        <ele>906.7</ele>
        <time>2013-03-23T10:40:39Z</time>
      </trkpt>
      <trkpt lat="43.79074" lon="7.15469">
        <ele>906.2</ele>
        <time>2013-03-23T10:40:40Z</time>
      </trkpt>
      <trkpt lat="43.79071" lon="7.15462">
        <ele>905.8</ele>
        <time>2013-03-23T10:40:41Z</time>
      </trkpt>
      <trkpt lat="43.79068" lon="7.15455">
        <ele>905.5</ele>
        <time>2013-03-23T10:40:42Z</time>
      </trkpt>
      <trkpt lat="43.79066" lon="7.15448">
        <ele>905.3</ele>
        <time>2013-03-23T10:40:43Z</time>
      </trkpt>
      <trkpt lat="43.79063" lon="7.1544">
        <ele>905.2</ele>
        <time>2013-03-23T10:40:44Z</time>
      </trkpt>
      <trkpt lat="43.79061" lon="7.15433">
        <ele>905.2</ele>
        <time>2013-03-23T10:40:45Z</time>
      </trkpt>
      <trkpt lat="43.79058" lon="7.15425">
        <ele>905.1</ele>
        <time>2013-03-23T10:40:46Z</time>
      </trkpt>
      <trkpt lat="43.79056" lon="7.15418">
        <ele>904.9</ele>
        <time>2013-03-23T10:40:47Z</time>
      </trkpt>
      <trkpt lat="43.79053" lon="7.15409">
        <ele>904.7</ele>
        <time>2013-03-23T10:40:48Z</time>
      </trkpt>
      <trkpt lat="43.79051" lon="7.15401">
        <ele>904.6</ele>
        <time>2013-03-23T10:40:49Z</time>
      </trkpt>
      <trkpt lat="43.79049" lon="7.15392">
        <ele>904.1</ele>
        <time>2013-03-23T10:40:50Z</time>
      </trkpt>
      <trkpt lat="43.79047" lon="7.15383">
        <ele>903.8</ele>
        <time>2013-03-23T10:40:51Z</time>
      </trkpt>
      <trkpt lat="43.79045" lon="7.15374">
        <ele>903.5</ele>
        <time>2013-03-23T10:40:52Z</time>
      </trkpt>
      <trkpt lat="43.79043" lon="7.15366">
        <ele>903.5</ele>
        <time>2013-03-23T10:40:53Z</time>
      </trkpt>
      <trkpt lat="43.7904" lon="7.15358">
        <ele>903.5</ele>
        <time>2013-03-23T10:40:54Z</time>
      </trkpt>
      <trkpt lat="43.79038" lon="7.15349">
        <ele>903.5</ele>
        <time>2013-03-23T10:40:55Z</time>
      </trkpt>
      <trkpt lat="43.79035" lon="7.1534">
        <ele>902.8</ele>
        <time>2013-03-23T10:40:56Z</time>
      </trkpt>
      <trkpt lat="43.79032" lon="7.15332">
        <ele>902.3</ele>
        <time>2013-03-23T10:40:57Z</time>
      </trkpt>
      <trkpt lat="43.79028" lon="7.15324">
        <ele>902</ele>
        <time>2013-03-23T10:40:58Z</time>
      </trkpt>
      <trkpt lat="43.79025" lon="7.15316">
        <ele>901.7</ele>
        <time>2013-03-23T10:40:59Z</time>
      </trkpt>
      <trkpt lat="43.79021" lon="7.15309">
        <ele>900.8</ele>
        <time>2013-03-23T10:41:00Z</time>
      </trkpt>
      <trkpt lat="43.79017" lon="7.15301">
        <ele>900.2</ele>
        <time>2013-03-23T10:41:01Z</time>
      </trkpt>
      <trkpt lat="43.79013" lon="7.15294">
        <ele>899.7</ele>
        <time>2013-03-23T10:41:02Z</time>
      </trkpt>
      <trkpt lat="43.79008" lon="7.15286">
        <ele>899.1</ele>
        <time>2013-03-23T10:41:03Z</time>
      </trkpt>
      <trkpt lat="43.79004" lon="7.15279">
        <ele>898.7</ele>
        <time>2013-03-23T10:41:04Z</time>
      </trkpt>
      <trkpt lat="43.78999" lon="7.15272">
        <ele>898.4</ele>
        <time>2013-03-23T10:41:05Z</time>
      </trkpt>
      <trkpt lat="43.78994" lon="7.15264">
        <ele>898</ele>
        <time>2013-03-23T10:41:06Z</time>
      </trkpt>
      <trkpt lat="43.78989" lon="7.15257">
        <ele>897.8</ele>
        <time>2013-03-23T10:41:07Z</time>
      </trkpt>
      <trkpt lat="43.78984" lon="7.15249">
        <ele>897.6</ele>
        <time>2013-03-23T10:41:08Z</time>
      </trkpt>
      <trkpt lat="43.78981" lon="7.15242">
        <ele>897.2</ele>
        <time>2013-03-23T10:41:09Z</time>
      </trkpt>
      <trkpt lat="43.78976" lon="7.15235">
        <ele>896.9</ele>
        <time>2013-03-23T10:41:10Z</time>
      </trkpt>
      <trkpt lat="43.78972" lon="7.15227">
        <ele>896.6</ele>
        <time>2013-03-23T10:41:11Z</time>
      </trkpt>
      <trkpt lat="43.78967" lon="7.15219">
        <ele>896</ele>
        <time>2013-03-23T10:41:12Z</time>
      </trkpt>
      <trkpt lat="43.78962" lon="7.15212">
        <ele>895.5</ele>
        <time>2013-03-23T10:41:13Z</time>
      </trkpt>
      <trkpt lat="43.78956" lon="7.15204">
        <ele>895.1</ele>
        <time>2013-03-23T10:41:14Z</time>
      </trkpt>
      <trkpt lat="43.78951" lon="7.15197">
        <ele>894.8</ele>
        <time>2013-03-23T10:41:15Z</time>
      </trkpt>
      <trkpt lat="43.78946" lon="7.1519">
        <ele>894.1</ele>
        <time>2013-03-23T10:41:16Z</time>
      </trkpt>
      <trkpt lat="43.78942" lon="7.15183">
        <ele>893.6</ele>
        <time>2013-03-23T10:41:17Z</time>
      </trkpt>
      <trkpt lat="43.78937" lon="7.15177">
        <ele>893.2</ele>
        <time>2013-03-23T10:41:18Z</time>
      </trkpt>
      <trkpt lat="43.78932" lon="7.15171">
        <ele>892.6</ele>
        <time>2013-03-23T10:41:19Z</time>
      </trkpt>
      <trkpt lat="43.78928" lon="7.15164">
        <ele>892.2</ele>
        <time>2013-03-23T10:41:20Z</time>
      </trkpt>
      <trkpt lat="43.78923" lon="7.15156">
        <ele>891.8</ele>
        <time>2013-03-23T10:41:21Z</time>
      </trkpt>
      <trkpt lat="43.78919" lon="7.15148">
        <ele>891</ele>
        <time>2013-03-23T10:41:22Z</time>
      </trkpt>
      <trkpt lat="43.78913" lon="7.1514">
        <ele>890.4</ele>
        <time>2013-03-23T10:41:23Z</time>
      </trkpt>
      <trkpt lat="43.78908" lon="7.15132">
        <ele>890</ele>
        <time>2013-03-23T10:41:24Z</time>
      </trkpt>
      <trkpt lat="43.78903" lon="7.15123">
        <ele>889.8</ele>
        <time>2013-03-23T10:41:25Z</time>
      </trkpt>
      <trkpt lat="43.78897" lon="7.15115">
        <ele>889.6</ele>
        <time>2013-03-23T10:41:26Z</time>
      </trkpt>
      <trkpt lat="43.78891" lon="7.15106">
        <ele>889.5</ele>
        <time>2013-03-23T10:41:27Z</time>
      </trkpt>
      <trkpt lat="43.78885" lon="7.15098">
        <ele>887.8</ele>
        <time>2013-03-23T10:41:28Z</time>
      </trkpt>
      <trkpt lat="43.78879" lon="7.15089">
        <ele>886.6</ele>
        <time>2013-03-23T10:41:29Z</time>
      </trkpt>
      <trkpt lat="43.78874" lon="7.15079">
        <ele>885.6</ele>
        <time>2013-03-23T10:41:30Z</time>
      </trkpt>
      <trkpt lat="43.78868" lon="7.15071">
        <ele>884.4</ele>
        <time>2013-03-23T10:41:31Z</time>
      </trkpt>
      <trkpt lat="43.78863" lon="7.15062">
        <ele>883.4</ele>
        <time>2013-03-23T10:41:32Z</time>
      </trkpt>
      <trkpt lat="43.78857" lon="7.15054">
        <ele>882.7</ele>
        <time>2013-03-23T10:41:33Z</time>
      </trkpt>
      <trkpt lat="43.78851" lon="7.15046">
        <ele>882.2</ele>
        <time>2013-03-23T10:41:34Z</time>
      </trkpt>
      <trkpt lat="43.78845" lon="7.1504">
        <ele>880.8</ele>
        <time>2013-03-23T10:41:35Z</time>
      </trkpt>
      <trkpt lat="43.78839" lon="7.15035">
        <ele>879.7</ele>
        <time>2013-03-23T10:41:36Z</time>
      </trkpt>
      <trkpt lat="43.78833" lon="7.15029">
        <ele>879</ele>
        <time>2013-03-23T10:41:37Z</time>
      </trkpt>
      <trkpt lat="43.78827" lon="7.15023">
        <ele>877.3</ele>
        <time>2013-03-23T10:41:38Z</time>
      </trkpt>
      <trkpt lat="43.78822" lon="7.15016">
        <ele>876.1</ele>
        <time>2013-03-23T10:41:39Z</time>
      </trkpt>
      <trkpt lat="43.78818" lon="7.15008">
        <ele>875.1</ele>
        <time>2013-03-23T10:41:40Z</time>
      </trkpt>
      <trkpt lat="43.78814" lon="7.15001">
        <ele>873.7</ele>
        <time>2013-03-23T10:41:41Z</time>
      </trkpt>
      <trkpt lat="43.78809" lon="7.14994">
        <ele>872.7</ele>
        <time>2013-03-23T10:41:42Z</time>
      </trkpt>
      <trkpt lat="43.78805" lon="7.14988">
        <ele>871.9</ele>
        <time>2013-03-23T10:41:43Z</time>
      </trkpt>
      <trkpt lat="43.788" lon="7.14983">
        <ele>871.3</ele>
        <time>2013-03-23T10:41:44Z</time>
      </trkpt>
      <trkpt lat="43.78795" lon="7.14978">
        <ele>870.8</ele>
        <time>2013-03-23T10:41:45Z</time>
      </trkpt>
      <trkpt lat="43.78791" lon="7.14972">
        <ele>870.5</ele>
        <time>2013-03-23T10:41:46Z</time>
      </trkpt>
      <trkpt lat="43.78787" lon="7.14966">
        <ele>870</ele>
        <time>2013-03-23T10:41:47Z</time>
      </trkpt>
      <trkpt lat="43.78784" lon="7.14958">
        <ele>869.6</ele>
        <time>2013-03-23T10:41:48Z</time>
      </trkpt>
      <trkpt lat="43.78781" lon="7.1495">
        <ele>869.4</ele>
        <time>2013-03-23T10:41:49Z</time>
      </trkpt>
      <trkpt lat="43.78778" lon="7.14942">
        <ele>869.2</ele>
        <time>2013-03-23T10:41:50Z</time>
      </trkpt>
      <trkpt lat="43.78776" lon="7.14935">
        <ele>867.6</ele>
        <time>2013-03-23T10:41:51Z</time>
      </trkpt>
      <trkpt lat="43.78771" lon="7.14928">
        <ele>866.4</ele>
        <time>2013-03-23T10:41:52Z</time>
      </trkpt>
      <trkpt lat="43.78767" lon="7.14921">
        <ele>865.5</ele>
        <time>2013-03-23T10:41:53Z</time>
      </trkpt>
      <trkpt lat="43.78763" lon="7.14914">
        <ele>864.2</ele>
        <time>2013-03-23T10:41:54Z</time>
      </trkpt>
      <trkpt lat="43.78759" lon="7.14905">
        <ele>863.3</ele>
        <time>2013-03-23T10:41:55Z</time>
      </trkpt>
      <trkpt lat="43.78755" lon="7.14896">
        <ele>862.5</ele>
        <time>2013-03-23T10:41:56Z</time>
      </trkpt>
      <trkpt lat="43.78751" lon="7.14887">
        <ele>861.2</ele>
        <time>2013-03-23T10:41:57Z</time>
      </trkpt>
      <trkpt lat="43.78748" lon="7.14878">
        <ele>860.3</ele>
        <time>2013-03-23T10:41:58Z</time>
      </trkpt>
      <trkpt lat="43.78744" lon="7.1487">
        <ele>859.5</ele>
        <time>2013-03-23T10:41:59Z</time>
      </trkpt>
      <trkpt lat="43.7874" lon="7.1486">
        <ele>857.9</ele>
        <time>2013-03-23T10:42:00Z</time>
      </trkpt>
      <trkpt lat="43.78736" lon="7.1485">
        <ele>856.7</ele>
        <time>2013-03-23T10:42:01Z</time>
      </trkpt>
      <trkpt lat="43.78731" lon="7.1484">
        <ele>855.8</ele>
        <time>2013-03-23T10:42:02Z</time>
      </trkpt>
      <trkpt lat="43.78725" lon="7.14831">
        <ele>854.7</ele>
        <time>2013-03-23T10:42:03Z</time>
      </trkpt>
      <trkpt lat="43.7872" lon="7.14822">
        <ele>853.9</ele>
        <time>2013-03-23T10:42:04Z</time>
      </trkpt>
      <trkpt lat="43.78715" lon="7.14812">
        <ele>853.2</ele>
        <time>2013-03-23T10:42:05Z</time>
      </trkpt>
      <trkpt lat="43.7871" lon="7.14803">
        <ele>852.8</ele>
        <time>2013-03-23T10:42:06Z</time>
      </trkpt>
      <trkpt lat="43.78707" lon="7.14796">
        <ele>850.9</ele>
        <time>2013-03-23T10:42:07Z</time>
      </trkpt>
      <trkpt lat="43.78703" lon="7.14788">
        <ele>849.5</ele>
        <time>2013-03-23T10:42:08Z</time>
      </trkpt>
      <trkpt lat="43.78699" lon="7.14781">
        <ele>848.5</ele>
        <time>2013-03-23T10:42:09Z</time>
      </trkpt>
      <trkpt lat="43.78696" lon="7.14773">
        <ele>846.8</ele>
        <time>2013-03-23T10:42:10Z</time>
      </trkpt>
      <trkpt lat="43.78693" lon="7.14764">
        <ele>845.5</ele>
        <time>2013-03-23T10:42:11Z</time>
      </trkpt>
      <trkpt lat="43.7869" lon="7.14754">
        <ele>844.5</ele>
        <time>2013-03-23T10:42:12Z</time>
      </trkpt>
      <trkpt lat="43.78688" lon="7.14744">
        <ele>842.7</ele>
        <time>2013-03-23T10:42:13Z</time>
      </trkpt>
      <trkpt lat="43.78684" lon="7.14734">
        <ele>841.3</ele>
        <time>2013-03-23T10:42:14Z</time>
      </trkpt>
      <trkpt lat="43.7868" lon="7.14724">
        <ele>840.3</ele>
        <time>2013-03-23T10:42:15Z</time>
      </trkpt>
      <trkpt lat="43.78676" lon="7.14713">
        <ele>838.3</ele>
        <time>2013-03-23T10:42:16Z</time>
      </trkpt>
      <trkpt lat="43.78672" lon="7.14702">
        <ele>836.9</ele>
        <time>2013-03-23T10:42:17Z</time>
      </trkpt>
      <trkpt lat="43.78669" lon="7.14691">
        <ele>835.8</ele>
        <time>2013-03-23T10:42:18Z</time>
      </trkpt>
      <trkpt lat="43.78668" lon="7.14683">
        <ele>833.9</ele>
        <time>2013-03-23T10:42:19Z</time>
      </trkpt>
      <trkpt lat="43.78667" lon="7.14675">
        <ele>832.5</ele>
        <time>2013-03-23T10:42:20Z</time>
      </trkpt>
      <trkpt lat="43.78667" lon="7.14667">
        <ele>831.5</ele>
        <time>2013-03-23T10:42:21Z</time>
      </trkpt>
      <trkpt lat="43.7866" lon="7.1466">
        <ele>825.4</ele>
        <time>2013-03-23T10:44:19Z</time>
      </trkpt>
      <trkpt lat="43.78658" lon="7.14659">
        <ele>825.4</ele>
        <time>2013-03-23T10:44:20Z</time>
      </trkpt>
      <trkpt lat="43.78646" lon="7.14656">
        <ele>824.6</ele>
        <time>2013-03-23T10:44:25Z</time>
      </trkpt>
      <trkpt lat="43.78638" lon="7.14655">
        <ele>824.2</ele>
        <time>2013-03-23T10:44:31Z</time>
      </trkpt>
      <trkpt lat="43.7863" lon="7.14655">
        <ele>824.5</ele>
        <time>2013-03-23T10:44:36Z</time>
      </trkpt>
      <trkpt lat="43.78622" lon="7.14653">
        <ele>824.2</ele>
        <time>2013-03-23T10:44:40Z</time>
      </trkpt>
      <trkpt lat="43.78614" lon="7.1465">
        <ele>824.2</ele>
        <time>2013-03-23T10:44:44Z</time>
      </trkpt>
      <trkpt lat="43.78608" lon="7.14646">
        <ele>823.9</ele>
        <time>2013-03-23T10:44:47Z</time>
      </trkpt>
      <trkpt lat="43.78603" lon="7.1464">
        <ele>823.2</ele>
        <time>2013-03-23T10:44:49Z</time>
      </trkpt>
      <trkpt lat="43.78596" lon="7.14635">
        <ele>822</ele>
        <time>2013-03-23T10:44:53Z</time>
      </trkpt>
      <trkpt lat="43.78588" lon="7.14632">
        <ele>821.4</ele>
        <time>2013-03-23T10:44:58Z</time>
      </trkpt>
      <trkpt lat="43.78579" lon="7.14631">
        <ele>821.6</ele>
        <time>2013-03-23T10:45:05Z</time>
      </trkpt>
      <trkpt lat="43.78572" lon="7.14629">
        <ele>822.5</ele>
        <time>2013-03-23T10:45:09Z</time>
      </trkpt>
      <trkpt lat="43.78565" lon="7.14624">
        <ele>822.8</ele>
        <time>2013-03-23T10:45:13Z</time>
      </trkpt>
      <trkpt lat="43.78557" lon="7.14619">
        <ele>823.2</ele>
        <time>2013-03-23T10:45:17Z</time>
      </trkpt>
      <trkpt lat="43.78551" lon="7.14612">
        <ele>823.4</ele>
        <time>2013-03-23T10:45:21Z</time>
      </trkpt>
      <trkpt lat="43.7855" lon="7.14611">
        <ele>823.6</ele>
        <time>2013-03-23T10:45:22Z</time>
      </trkpt>
      <trkpt lat="43.78537" lon="7.146">
        <ele>822.9</ele>
        <time>2013-03-23T10:45:29Z</time>
      </trkpt>
      <trkpt lat="43.78529" lon="7.14594">
        <ele>823.4</ele>
        <time>2013-03-23T10:45:33Z</time>
      </trkpt>
      <trkpt lat="43.78522" lon="7.14589">
        <ele>824.2</ele>
        <time>2013-03-23T10:45:36Z</time>
      </trkpt>
      <trkpt lat="43.78516" lon="7.14585">
        <ele>824.3</ele>
        <time>2013-03-23T10:45:39Z</time>
      </trkpt>
      <trkpt lat="43.7851" lon="7.14579">
        <ele>824.4</ele>
        <time>2013-03-23T10:45:42Z</time>
      </trkpt>
      <trkpt lat="43.78504" lon="7.14574">
        <ele>824.3</ele>
        <time>2013-03-23T10:45:45Z</time>
      </trkpt>
      <trkpt lat="43.78499" lon="7.14567">
        <ele>824.3</ele>
        <time>2013-03-23T10:45:48Z</time>
      </trkpt>
      <trkpt lat="43.78494" lon="7.1456">
        <ele>824.4</ele>
        <time>2013-03-23T10:45:51Z</time>
      </trkpt>
      <trkpt lat="43.78488" lon="7.14554">
        <ele>824.6</ele>
        <time>2013-03-23T10:45:54Z</time>
      </trkpt>
      <trkpt lat="43.7848" lon="7.14545">
        <ele>825</ele>
        <time>2013-03-23T10:46:02Z</time>
      </trkpt>
      <trkpt lat="43.78474" lon="7.14539">
        <ele>825.3</ele>
        <time>2013-03-23T10:46:09Z</time>
      </trkpt>
      <trkpt lat="43.78463" lon="7.14529">
        <ele>825</ele>
        <time>2013-03-23T10:46:14Z</time>
      </trkpt>
      <trkpt lat="43.78456" lon="7.14521">
        <ele>825.6</ele>
        <time>2013-03-23T10:46:18Z</time>
      </trkpt>
      <trkpt lat="43.78451" lon="7.14514">
        <ele>824.8</ele>
        <time>2013-03-23T10:46:21Z</time>
      </trkpt>
      <trkpt lat="43.78446" lon="7.14508">
        <ele>825.3</ele>
        <time>2013-03-23T10:46:24Z</time>
      </trkpt>
      <trkpt lat="43.78444" lon="7.14506">
        <ele>825.6</ele>
        <time>2013-03-23T10:46:25Z</time>
      </trkpt>
      <trkpt lat="43.78435" lon="7.14496">
        <ele>826.7</ele>
        <time>2013-03-23T10:46:30Z</time>
      </trkpt>
      <trkpt lat="43.78432" lon="7.14486">
        <ele>826.9</ele>
        <time>2013-03-23T10:46:33Z</time>
      </trkpt>
      <trkpt lat="43.78429" lon="7.14474">
        <ele>826.4</ele>
        <time>2013-03-23T10:46:36Z</time>
      </trkpt>
      <trkpt lat="43.78426" lon="7.14467">
        <ele>826.4</ele>
        <time>2013-03-23T10:46:38Z</time>
      </trkpt>
      <trkpt lat="43.7842" lon="7.14459">
        <ele>826.8</ele>
        <time>2013-03-23T10:46:41Z</time>
      </trkpt>
      <trkpt lat="43.78413" lon="7.14452">
        <ele>827.6</ele>
        <time>2013-03-23T10:46:45Z</time>
      </trkpt>
      <trkpt lat="43.78406" lon="7.14445">
        <ele>827.8</ele>
        <time>2013-03-23T10:46:48Z</time>
      </trkpt>
      <trkpt lat="43.78401" lon="7.14437">
        <ele>827.8</ele>
        <time>2013-03-23T10:46:51Z</time>
      </trkpt>
      <trkpt lat="43.78398" lon="7.14427">
        <ele>827.9</ele>
        <time>2013-03-23T10:46:54Z</time>
      </trkpt>
      <trkpt lat="43.78393" lon="7.14419">
        <ele>828.9</ele>
        <time>2013-03-23T10:46:58Z</time>
      </trkpt>
      <trkpt lat="43.78387" lon="7.14411">
        <ele>829.5</ele>
        <time>2013-03-23T10:47:02Z</time>
      </trkpt>
      <trkpt lat="43.78382" lon="7.14401">
        <ele>829.6</ele>
        <time>2013-03-23T10:47:09Z</time>
      </trkpt>
      <trkpt lat="43.78376" lon="7.14392">
        <ele>830.8</ele>
        <time>2013-03-23T10:47:18Z</time>
      </trkpt>
      <trkpt lat="43.78368" lon="7.14388">
        <ele>832.4</ele>
        <time>2013-03-23T10:47:27Z</time>
      </trkpt>
      <trkpt lat="43.78367" lon="7.14387">
        <ele>832.7</ele>
        <time>2013-03-23T10:47:28Z</time>
      </trkpt>
      <trkpt lat="43.78352" lon="7.14379">
        <ele>834.6</ele>
        <time>2013-03-23T10:47:46Z</time>
      </trkpt>
      <trkpt lat="43.78346" lon="7.14372">
        <ele>837.6</ele>
        <time>2013-03-23T10:48:26Z</time>
      </trkpt>
      <trkpt lat="43.7834" lon="7.14364">
        <ele>836.8</ele>
        <time>2013-03-23T10:48:32Z</time>
      </trkpt>
      <trkpt lat="43.78339" lon="7.14362">
        <ele>836.5</ele>
        <time>2013-03-23T10:48:33Z</time>
      </trkpt>
      <trkpt lat="43.78326" lon="7.14358">
        <ele>837.9</ele>
        <time>2013-03-23T10:48:41Z</time>
      </trkpt>
      <trkpt lat="43.78319" lon="7.14356">
        <ele>838.4</ele>
        <time>2013-03-23T10:48:45Z</time>
      </trkpt>
      <trkpt lat="43.78311" lon="7.14356">
        <ele>838.3</ele>
        <time>2013-03-23T10:48:49Z</time>
      </trkpt>
      <trkpt lat="43.78304" lon="7.14355">
        <ele>838.7</ele>
        <time>2013-03-23T10:48:52Z</time>
      </trkpt>
      <trkpt lat="43.78297" lon="7.14356">
        <ele>838.7</ele>
        <time>2013-03-23T10:48:55Z</time>
      </trkpt>
      <trkpt lat="43.78291" lon="7.1436">
        <ele>838.5</ele>
        <time>2013-03-23T10:48:58Z</time>
      </trkpt>
      <trkpt lat="43.78284" lon="7.14365">
        <ele>838.5</ele>
        <time>2013-03-23T10:49:02Z</time>
      </trkpt>
      <trkpt lat="43.78276" lon="7.14364">
        <ele>839.2</ele>
        <time>2013-03-23T10:49:06Z</time>
      </trkpt>
      <trkpt lat="43.78268" lon="7.14365">
        <ele>840.2</ele>
        <time>2013-03-23T10:49:12Z</time>
      </trkpt>
      <trkpt lat="43.7826" lon="7.14361">
        <ele>840.5</ele>
        <time>2013-03-23T10:49:17Z</time>
      </trkpt>
      <trkpt lat="43.78254" lon="7.14351">
        <ele>839.9</ele>
        <time>2013-03-23T10:49:21Z</time>
      </trkpt>
      <trkpt lat="43.78249" lon="7.14342">
        <ele>840.7</ele>
        <time>2013-03-23T10:49:25Z</time>
      </trkpt>
      <trkpt lat="43.78244" lon="7.14332">
        <ele>841.6</ele>
        <time>2013-03-23T10:49:29Z</time>
      </trkpt>
      <trkpt lat="43.78237" lon="7.14326">
        <ele>841.8</ele>
        <time>2013-03-23T10:49:34Z</time>
      </trkpt>
      <trkpt lat="43.78235" lon="7.14325">
        <ele>841.9</ele>
        <time>2013-03-23T10:49:35Z</time>
      </trkpt>
      <trkpt lat="43.7822" lon="7.14329">
        <ele>845.1</ele>
        <time>2013-03-23T10:49:56Z</time>
      </trkpt>
      <trkpt lat="43.78214" lon="7.14322">
        <ele>845.1</ele>
        <time>2013-03-23T10:50:05Z</time>
      </trkpt>
      <trkpt lat="43.78206" lon="7.14317">
        <ele>847.3</ele>
        <time>2013-03-23T10:50:14Z</time>
      </trkpt>
      <trkpt lat="43.782" lon="7.1431">
        <ele>847.3</ele>
        <time>2013-03-23T10:50:36Z</time>
      </trkpt>
      <trkpt lat="43.78199" lon="7.14309">
        <ele>847.7</ele>
        <time>2013-03-23T10:50:37Z</time>
      </trkpt>
      <trkpt lat="43.78186" lon="7.14294">
        <ele>849.7</ele>
        <time>2013-03-23T10:50:52Z</time>
      </trkpt>
      <trkpt lat="43.7818" lon="7.14288">
        <ele>850.1</ele>
        <time>2013-03-23T10:51:00Z</time>
      </trkpt>
      <trkpt lat="43.78173" lon="7.14282">
        <ele>851</ele>
        <time>2013-03-23T10:51:04Z</time>
      </trkpt>
      <trkpt lat="43.78167" lon="7.14275">
        <ele>850.5</ele>
        <time>2013-03-23T10:51:08Z</time>
      </trkpt>
      <trkpt lat="43.78159" lon="7.14272">
        <ele>852.9</ele>
        <time>2013-03-23T10:51:20Z</time>
      </trkpt>
      <trkpt lat="43.78152" lon="7.14265">
        <ele>852.5</ele>
        <time>2013-03-23T10:51:30Z</time>
      </trkpt>
      <trkpt lat="43.78144" lon="7.14261">
        <ele>852.4</ele>
        <time>2013-03-23T10:51:37Z</time>
      </trkpt>
      <trkpt lat="43.78143" lon="7.14261">
        <ele>852.1</ele>
        <time>2013-03-23T10:51:38Z</time>
      </trkpt>
      <trkpt lat="43.78129" lon="7.14252">
        <ele>852.9</ele>
        <time>2013-03-23T10:51:55Z</time>
      </trkpt>
      <trkpt lat="43.78121" lon="7.14246">
        <ele>854.5</ele>
        <time>2013-03-23T10:52:05Z</time>
      </trkpt>
      <trkpt lat="43.78114" lon="7.1424">
        <ele>853.8</ele>
        <time>2013-03-23T10:52:10Z</time>
      </trkpt>
      <trkpt lat="43.78107" lon="7.14235">
        <ele>854.6</ele>
        <time>2013-03-23T10:52:14Z</time>
      </trkpt>
      <trkpt lat="43.78099" lon="7.14233">
        <ele>855.1</ele>
        <time>2013-03-23T10:52:18Z</time>
      </trkpt>
      <trkpt lat="43.7809" lon="7.14232">
        <ele>855.5</ele>
        <time>2013-03-23T10:52:22Z</time>
      </trkpt>
      <trkpt lat="43.78083" lon="7.14234">
        <ele>856.3</ele>
        <time>2013-03-23T10:52:26Z</time>
      </trkpt>
      <trkpt lat="43.78075" lon="7.14235">
        <ele>855.8</ele>
        <time>2013-03-23T10:52:30Z</time>
      </trkpt>
      <trkpt lat="43.78067" lon="7.14236">
        <ele>856.4</ele>
        <time>2013-03-23T10:52:35Z</time>
      </trkpt>
      <trkpt lat="43.78059" lon="7.14242">
        <ele>857.9</ele>
        <time>2013-03-23T10:52:46Z</time>
      </trkpt>
      <trkpt lat="43.78058" lon="7.14242">
        <ele>857.9</ele>
        <time>2013-03-23T10:52:47Z</time>
      </trkpt>
      <trkpt lat="43.78044" lon="7.14248">
        <ele>857.7</ele>
        <time>2013-03-23T10:53:02Z</time>
      </trkpt>
      <trkpt lat="43.78036" lon="7.14248">
        <ele>858.4</ele>
        <time>2013-03-23T10:53:06Z</time>
      </trkpt>
      <trkpt lat="43.78028" lon="7.1425">
        <ele>857.4</ele>
        <time>2013-03-23T10:53:10Z</time>
      </trkpt>
      <trkpt lat="43.7802" lon="7.14252">
        <ele>857.3</ele>
        <time>2013-03-23T10:53:14Z</time>
      </trkpt>
      <trkpt lat="43.78012" lon="7.14253">
        <ele>857.4</ele>
        <time>2013-03-23T10:53:20Z</time>
      </trkpt>
      <trkpt lat="43.78004" lon="7.14256">
        <ele>856.2</ele>
        <time>2013-03-23T10:53:25Z</time>
      </trkpt>
      <trkpt lat="43.77995" lon="7.14256">
        <ele>858.8</ele>
        <time>2013-03-23T10:53:33Z</time>
      </trkpt>
      <trkpt lat="43.77988" lon="7.14257">
        <ele>858.7</ele>
        <time>2013-03-23T10:53:37Z</time>
      </trkpt>
      <trkpt lat="43.7798" lon="7.14254">
        <ele>858.3</ele>
        <time>2013-03-23T10:53:41Z</time>
      </trkpt>
      <trkpt lat="43.77972" lon="7.14251">
        <ele>860.8</ele>
        <time>2013-03-23T10:53:46Z</time>
      </trkpt>
      <trkpt lat="43.77965" lon="7.1425">
        <ele>861.9</ele>
        <time>2013-03-23T10:53:50Z</time>
      </trkpt>
      <trkpt lat="43.77963" lon="7.1425">
        <ele>862</ele>
        <time>2013-03-23T10:53:51Z</time>
      </trkpt>
      <trkpt lat="43.7795" lon="7.14253">
        <ele>862.7</ele>
        <time>2013-03-23T10:54:05Z</time>
      </trkpt>
      <trkpt lat="43.77943" lon="7.14253">
        <ele>863.3</ele>
        <time>2013-03-23T10:54:09Z</time>
      </trkpt>
      <trkpt lat="43.77934" lon="7.14251">
        <ele>863.5</ele>
        <time>2013-03-23T10:54:24Z</time>
      </trkpt>
      <trkpt lat="43.77925" lon="7.1425">
        <ele>862.8</ele>
        <time>2013-03-23T10:56:31Z</time>
      </trkpt>
      <trkpt lat="43.77923" lon="7.14249">
        <ele>862.5</ele>
        <time>2013-03-23T10:56:32Z</time>
      </trkpt>
      <trkpt lat="43.7791" lon="7.14244">
        <ele>862.8</ele>
        <time>2013-03-23T10:56:37Z</time>
      </trkpt>
      <trkpt lat="43.77904" lon="7.14243">
        <ele>861.8</ele>
        <time>2013-03-23T10:56:39Z</time>
      </trkpt>
      <trkpt lat="43.77897" lon="7.14244">
        <ele>861.6</ele>
        <time>2013-03-23T10:56:41Z</time>
      </trkpt>
      <trkpt lat="43.77891" lon="7.14245">
        <ele>861.7</ele>
        <time>2013-03-23T10:56:43Z</time>
      </trkpt>
      <trkpt lat="43.77884" lon="7.14245">
        <ele>862.5</ele>
        <time>2013-03-23T10:56:45Z</time>
      </trkpt>
      <trkpt lat="43.77878" lon="7.14245">
        <ele>862.9</ele>
        <time>2013-03-23T10:56:47Z</time>
      </trkpt>
      <trkpt lat="43.77871" lon="7.14242">
        <ele>862.6</ele>
        <time>2013-03-23T10:56:49Z</time>
      </trkpt>
      <trkpt lat="43.77864" lon="7.14239">
        <ele>862.8</ele>
        <time>2013-03-23T10:56:51Z</time>
      </trkpt>
      <trkpt lat="43.77857" lon="7.14236">
        <ele>863.2</ele>
        <time>2013-03-23T10:56:53Z</time>
      </trkpt>
      <trkpt lat="43.77851" lon="7.1423">
        <ele>862.1</ele>
        <time>2013-03-23T10:56:55Z</time>
      </trkpt>
      <trkpt lat="43.77846" lon="7.14224">
        <ele>861.5</ele>
        <time>2013-03-23T10:56:57Z</time>
      </trkpt>
      <trkpt lat="43.7784" lon="7.14217">
        <ele>861</ele>
        <time>2013-03-23T10:56:59Z</time>
      </trkpt>
      <trkpt lat="43.77835" lon="7.14211">
        <ele>861.2</ele>
        <time>2013-03-23T10:57:01Z</time>
      </trkpt>
      <trkpt lat="43.77829" lon="7.14206">
        <ele>861.3</ele>
        <time>2013-03-23T10:57:03Z</time>
      </trkpt>
      <trkpt lat="43.77823" lon="7.14203">
        <ele>861.4</ele>
        <time>2013-03-23T10:57:05Z</time>
      </trkpt>
      <trkpt lat="43.77816" lon="7.14196">
        <ele>861.6</ele>
        <time>2013-03-23T10:57:09Z</time>
      </trkpt>
      <trkpt lat="43.77808" lon="7.142">
        <ele>861.4</ele>
        <time>2013-03-23T10:57:14Z</time>
      </trkpt>
      <trkpt lat="43.778" lon="7.14201">
        <ele>862.5</ele>
        <time>2013-03-23T10:57:18Z</time>
      </trkpt>
      <trkpt lat="43.77793" lon="7.14198">
        <ele>863.6</ele>
        <time>2013-03-23T10:57:22Z</time>
      </trkpt>
      <trkpt lat="43.77784" lon="7.14194">
        <ele>864.6</ele>
        <time>2013-03-23T10:57:27Z</time>
      </trkpt>
      <trkpt lat="43.77777" lon="7.1419">
        <ele>864.3</ele>
        <time>2013-03-23T10:57:32Z</time>
      </trkpt>
      <trkpt lat="43.77775" lon="7.14189">
        <ele>864.1</ele>
        <time>2013-03-23T10:57:33Z</time>
      </trkpt>
      <trkpt lat="43.77762" lon="7.14186">
        <ele>863.4</ele>
        <time>2013-03-23T10:57:39Z</time>
      </trkpt>
      <trkpt lat="43.77754" lon="7.14183">
        <ele>863.7</ele>
        <time>2013-03-23T10:57:42Z</time>
      </trkpt>
      <trkpt lat="43.77748" lon="7.1418">
        <ele>864</ele>
        <time>2013-03-23T10:57:44Z</time>
      </trkpt>
      <trkpt lat="43.77741" lon="7.14176">
        <ele>863</ele>
        <time>2013-03-23T10:57:46Z</time>
      </trkpt>
      <trkpt lat="43.77732" lon="7.14177">
        <ele>861.7</ele>
        <time>2013-03-23T10:57:49Z</time>
      </trkpt>
      <trkpt lat="43.77726" lon="7.14174">
        <ele>860.8</ele>
        <time>2013-03-23T10:57:51Z</time>
      </trkpt>
      <trkpt lat="43.7772" lon="7.14169">
        <ele>860</ele>
        <time>2013-03-23T10:57:53Z</time>
      </trkpt>
      <trkpt lat="43.77713" lon="7.14162">
        <ele>859.9</ele>
        <time>2013-03-23T10:57:56Z</time>
      </trkpt>
      <trkpt lat="43.77707" lon="7.14158">
        <ele>858.8</ele>
        <time>2013-03-23T10:57:58Z</time>
      </trkpt>
      <trkpt lat="43.77701" lon="7.14155">
        <ele>857.3</ele>
        <time>2013-03-23T10:58:00Z</time>
      </trkpt>
      <trkpt lat="43.77694" lon="7.1415">
        <ele>856.3</ele>
        <time>2013-03-23T10:58:02Z</time>
      </trkpt>
      <trkpt lat="43.77689" lon="7.14145">
        <ele>855.1</ele>
        <time>2013-03-23T10:58:04Z</time>
      </trkpt>
      <trkpt lat="43.77684" lon="7.1414">
        <ele>853.8</ele>
        <time>2013-03-23T10:58:06Z</time>
      </trkpt>
      <trkpt lat="43.77681" lon="7.14132">
        <ele>852.8</ele>
        <time>2013-03-23T10:58:08Z</time>
      </trkpt>
      <trkpt lat="43.77678" lon="7.14123">
        <ele>852.2</ele>
        <time>2013-03-23T10:58:10Z</time>
      </trkpt>
      <trkpt lat="43.7767" lon="7.14117">
        <ele>849.8</ele>
        <time>2013-03-23T10:58:14Z</time>
      </trkpt>
      <trkpt lat="43.77665" lon="7.1411">
        <ele>848.6</ele>
        <time>2013-03-23T10:58:16Z</time>
      </trkpt>
      <trkpt lat="43.77662" lon="7.14105">
        <ele>848.4</ele>
        <time>2013-03-23T10:58:17Z</time>
      </trkpt>
      <trkpt lat="43.77655" lon="7.14098">
        <ele>848.1</ele>
        <time>2013-03-23T10:58:19Z</time>
      </trkpt>
      <trkpt lat="43.77647" lon="7.14092">
        <ele>848</ele>
        <time>2013-03-23T10:58:21Z</time>
      </trkpt>
      <trkpt lat="43.7764" lon="7.14084">
        <ele>847.8</ele>
        <time>2013-03-23T10:58:23Z</time>
      </trkpt>
      <trkpt lat="43.77636" lon="7.14076">
        <ele>847.5</ele>
        <time>2013-03-23T10:58:25Z</time>
      </trkpt>
      <trkpt lat="43.77631" lon="7.14069">
        <ele>847.4</ele>
        <time>2013-03-23T10:58:28Z</time>
      </trkpt>
      <trkpt lat="43.77624" lon="7.14063">
        <ele>846.5</ele>
        <time>2013-03-23T10:58:31Z</time>
      </trkpt>
      <trkpt lat="43.77616" lon="7.14058">
        <ele>846.1</ele>
        <time>2013-03-23T10:58:34Z</time>
      </trkpt>
      <trkpt lat="43.77614" lon="7.14056">
        <ele>846.1</ele>
        <time>2013-03-23T10:58:35Z</time>
      </trkpt>
      <trkpt lat="43.77602" lon="7.14049">
        <ele>843.3</ele>
        <time>2013-03-23T10:58:41Z</time>
      </trkpt>
      <trkpt lat="43.77595" lon="7.14047">
        <ele>842.4</ele>
        <time>2013-03-23T10:58:44Z</time>
      </trkpt>
      <trkpt lat="43.77587" lon="7.1405">
        <ele>840.7</ele>
        <time>2013-03-23T10:58:50Z</time>
      </trkpt>
      <trkpt lat="43.77582" lon="7.14052">
        <ele>839.8</ele>
        <time>2013-03-23T10:58:52Z</time>
      </trkpt>
      <trkpt lat="43.77574" lon="7.14053">
        <ele>839.2</ele>
        <time>2013-03-23T10:58:54Z</time>
      </trkpt>
      <trkpt lat="43.77567" lon="7.14049">
        <ele>837.9</ele>
        <time>2013-03-23T10:58:56Z</time>
      </trkpt>
      <trkpt lat="43.77565" lon="7.14039">
        <ele>837</ele>
        <time>2013-03-23T10:58:58Z</time>
      </trkpt>
      <trkpt lat="43.77558" lon="7.14034">
        <ele>836.2</ele>
        <time>2013-03-23T10:59:01Z</time>
      </trkpt>
      <trkpt lat="43.77551" lon="7.14033">
        <ele>834.9</ele>
        <time>2013-03-23T10:59:03Z</time>
      </trkpt>
      <trkpt lat="43.77544" lon="7.14032">
        <ele>834.1</ele>
        <time>2013-03-23T10:59:05Z</time>
      </trkpt>
      <trkpt lat="43.77538" lon="7.14027">
        <ele>831.6</ele>
        <time>2013-03-23T10:59:09Z</time>
      </trkpt>
      <trkpt lat="43.77534" lon="7.14016">
        <ele>828.4</ele>
        <time>2013-03-23T10:59:13Z</time>
      </trkpt>
      <trkpt lat="43.7753" lon="7.14006">
        <ele>827.5</ele>
        <time>2013-03-23T10:59:18Z</time>
      </trkpt>
      <trkpt lat="43.77523" lon="7.14003">
        <ele>825.8</ele>
        <time>2013-03-23T10:59:21Z</time>
      </trkpt>
      <trkpt lat="43.77518" lon="7.13997">
        <ele>824.5</ele>
        <time>2013-03-23T10:59:23Z</time>
      </trkpt>
      <trkpt lat="43.7751" lon="7.13992">
        <ele>822.4</ele>
        <time>2013-03-23T10:59:26Z</time>
      </trkpt>
      <trkpt lat="43.77504" lon="7.13984">
        <ele>820.4</ele>
        <time>2013-03-23T10:59:28Z</time>
      </trkpt>
      <trkpt lat="43.77501" lon="7.1398">
        <ele>819.8</ele>
        <time>2013-03-23T10:59:29Z</time>
      </trkpt>
      <trkpt lat="43.77497" lon="7.13976">
        <ele>818.6</ele>
        <time>2013-03-23T10:59:30Z</time>
      </trkpt>
      <trkpt lat="43.77493" lon="7.13973">
        <ele>817.6</ele>
        <time>2013-03-23T10:59:31Z</time>
      </trkpt>
      <trkpt lat="43.77495" lon="7.13961">
        <ele>811.5</ele>
        <time>2013-03-23T11:00:45Z</time>
      </trkpt>
      <trkpt lat="43.77495" lon="7.13961">
        <ele>811.3</ele>
        <time>2013-03-23T11:00:46Z</time>
      </trkpt>
      <trkpt lat="43.77503" lon="7.13955">
        <ele>812.2</ele>
        <time>2013-03-23T11:02:19Z</time>
      </trkpt>
      <trkpt lat="43.77494" lon="7.13959">
        <ele>812.3</ele>
        <time>2013-03-23T11:05:25Z</time>
      </trkpt>
      <trkpt lat="43.77503" lon="7.13957">
        <ele>812.5</ele>
        <time>2013-03-23T11:06:29Z</time>
      </trkpt>
      <trkpt lat="43.77494" lon="7.13959">
        <ele>813.1</ele>
        <time>2013-03-23T11:30:49Z</time>
      </trkpt>
      <trkpt lat="43.77492" lon="7.13946">
        <ele>812.9</ele>
        <time>2013-03-23T11:32:01Z</time>
      </trkpt>
      <trkpt lat="43.77501" lon="7.13928">
        <ele>814.9</ele>
        <time>2013-03-23T11:32:13Z</time>
      </trkpt>
      <trkpt lat="43.77505" lon="7.13919">
        <ele>815.6</ele>
        <time>2013-03-23T11:32:19Z</time>
      </trkpt>
      <trkpt lat="43.77509" lon="7.13908">
        <ele>817.3</ele>
        <time>2013-03-23T11:32:26Z</time>
      </trkpt>
      <trkpt lat="43.77511" lon="7.13897">
        <ele>819.1</ele>
        <time>2013-03-23T11:32:34Z</time>
      </trkpt>
      <trkpt lat="43.77515" lon="7.13885">
        <ele>822.8</ele>
        <time>2013-03-23T11:33:00Z</time>
      </trkpt>
      <trkpt lat="43.77519" lon="7.13875">
        <ele>823.3</ele>
        <time>2013-03-23T11:33:09Z</time>
      </trkpt>
      <trkpt lat="43.7752" lon="7.13874">
        <ele>823.5</ele>
        <time>2013-03-23T11:33:10Z</time>
      </trkpt>
      <trkpt lat="43.77523" lon="7.13852">
        <ele>825.9</ele>
        <time>2013-03-23T11:33:25Z</time>
      </trkpt>
      <trkpt lat="43.77521" lon="7.1384">
        <ele>825.6</ele>
        <time>2013-03-23T11:33:31Z</time>
      </trkpt>
      <trkpt lat="43.77514" lon="7.13833">
        <ele>825.5</ele>
        <time>2013-03-23T11:33:37Z</time>
      </trkpt>
      <trkpt lat="43.77507" lon="7.13828">
        <ele>827.4</ele>
        <time>2013-03-23T11:33:44Z</time>
      </trkpt>
      <trkpt lat="43.77498" lon="7.13826">
        <ele>827.6</ele>
        <time>2013-03-23T11:33:51Z</time>
      </trkpt>
      <trkpt lat="43.77489" lon="7.13825">
        <ele>829.3</ele>
        <time>2013-03-23T11:33:58Z</time>
      </trkpt>
      <trkpt lat="43.77481" lon="7.13823">
        <ele>829.7</ele>
        <time>2013-03-23T11:34:05Z</time>
      </trkpt>
      <trkpt lat="43.77472" lon="7.13824">
        <ele>831.6</ele>
        <time>2013-03-23T11:34:13Z</time>
      </trkpt>
      <trkpt lat="43.77471" lon="7.13824">
        <ele>831.9</ele>
        <time>2013-03-23T11:34:14Z</time>
      </trkpt>
      <trkpt lat="43.77456" lon="7.13822">
        <ele>835.1</ele>
        <time>2013-03-23T11:34:28Z</time>
      </trkpt>
      <trkpt lat="43.77447" lon="7.13821">
        <ele>835.8</ele>
        <time>2013-03-23T11:34:35Z</time>
      </trkpt>
      <trkpt lat="43.77439" lon="7.13819">
        <ele>836.5</ele>
        <time>2013-03-23T11:34:42Z</time>
      </trkpt>
      <trkpt lat="43.77431" lon="7.13817">
        <ele>838</ele>
        <time>2013-03-23T11:34:49Z</time>
      </trkpt>
      <trkpt lat="43.77422" lon="7.13816">
        <ele>839.5</ele>
        <time>2013-03-23T11:34:57Z</time>
      </trkpt>
      <trkpt lat="43.77414" lon="7.13816">
        <ele>841.8</ele>
        <time>2013-03-23T11:35:05Z</time>
      </trkpt>
      <trkpt lat="43.77405" lon="7.13814">
        <ele>843</ele>
        <time>2013-03-23T11:35:13Z</time>
      </trkpt>
      <trkpt lat="43.77397" lon="7.1381">
        <ele>845.6</ele>
        <time>2013-03-23T11:35:22Z</time>
      </trkpt>
      <trkpt lat="43.77396" lon="7.13809">
        <ele>845.9</ele>
        <time>2013-03-23T11:35:23Z</time>
      </trkpt>
      <trkpt lat="43.77381" lon="7.13811">
        <ele>847.7</ele>
        <time>2013-03-23T11:35:35Z</time>
      </trkpt>
      <trkpt lat="43.77373" lon="7.13812">
        <ele>848.1</ele>
        <time>2013-03-23T11:35:40Z</time>
      </trkpt>
      <trkpt lat="43.77365" lon="7.13809">
        <ele>849.1</ele>
        <time>2013-03-23T11:35:47Z</time>
      </trkpt>
      <trkpt lat="43.77356" lon="7.13807">
        <ele>849.5</ele>
        <time>2013-03-23T11:35:55Z</time>
      </trkpt>
      <trkpt lat="43.77348" lon="7.13811">
        <ele>849.9</ele>
        <time>2013-03-23T11:36:00Z</time>
      </trkpt>
      <trkpt lat="43.77341" lon="7.13811">
        <ele>850.1</ele>
        <time>2013-03-23T11:36:04Z</time>
      </trkpt>
      <trkpt lat="43.77333" lon="7.13809">
        <ele>849.6</ele>
        <time>2013-03-23T11:36:09Z</time>
      </trkpt>
      <trkpt lat="43.77325" lon="7.13807">
        <ele>849.4</ele>
        <time>2013-03-23T11:36:13Z</time>
      </trkpt>
      <trkpt lat="43.77317" lon="7.13806">
        <ele>849.3</ele>
        <time>2013-03-23T11:36:17Z</time>
      </trkpt>
      <trkpt lat="43.77311" lon="7.13802">
        <ele>849.4</ele>
        <time>2013-03-23T11:36:20Z</time>
      </trkpt>
      <trkpt lat="43.77303" lon="7.13796">
        <ele>849.5</ele>
        <time>2013-03-23T11:36:24Z</time>
      </trkpt>
      <trkpt lat="43.77302" lon="7.13794">
        <ele>849.6</ele>
        <time>2013-03-23T11:36:25Z</time>
      </trkpt>
      <trkpt lat="43.7729" lon="7.13785">
        <ele>849.4</ele>
        <time>2013-03-23T11:36:32Z</time>
      </trkpt>
      <trkpt lat="43.77285" lon="7.13777">
        <ele>850.4</ele>
        <time>2013-03-23T11:37:50Z</time>
      </trkpt>
      <trkpt lat="43.77284" lon="7.13776">
        <ele>850.4</ele>
        <time>2013-03-23T11:37:51Z</time>
      </trkpt>
      <trkpt lat="43.77272" lon="7.13764">
        <ele>850.7</ele>
        <time>2013-03-23T11:37:56Z</time>
      </trkpt>
      <trkpt lat="43.77266" lon="7.1376">
        <ele>850.6</ele>
        <time>2013-03-23T11:37:59Z</time>
      </trkpt>
      <trkpt lat="43.77259" lon="7.1376">
        <ele>850.9</ele>
        <time>2013-03-23T11:38:02Z</time>
      </trkpt>
      <trkpt lat="43.77251" lon="7.13765">
        <ele>850.9</ele>
        <time>2013-03-23T11:38:05Z</time>
      </trkpt>
      <trkpt lat="43.77244" lon="7.13771">
        <ele>850.3</ele>
        <time>2013-03-23T11:38:08Z</time>
      </trkpt>
      <trkpt lat="43.77238" lon="7.13777">
        <ele>849.9</ele>
        <time>2013-03-23T11:38:10Z</time>
      </trkpt>
      <trkpt lat="43.77233" lon="7.13782">
        <ele>849.3</ele>
        <time>2013-03-23T11:38:12Z</time>
      </trkpt>
      <trkpt lat="43.77229" lon="7.1379">
        <ele>849</ele>
        <time>2013-03-23T11:38:15Z</time>
      </trkpt>
      <trkpt lat="43.77225" lon="7.13801">
        <ele>848.2</ele>
        <time>2013-03-23T11:38:25Z</time>
      </trkpt>
      <trkpt lat="43.77219" lon="7.13809">
        <ele>847.2</ele>
        <time>2013-03-23T11:38:31Z</time>
      </trkpt>
      <trkpt lat="43.77214" lon="7.13812">
        <ele>847.7</ele>
        <time>2013-03-23T11:38:34Z</time>
      </trkpt>
      <trkpt lat="43.77209" lon="7.13817">
        <ele>848</ele>
        <time>2013-03-23T11:38:36Z</time>
      </trkpt>
      <trkpt lat="43.77201" lon="7.13822">
        <ele>847.8</ele>
        <time>2013-03-23T11:38:39Z</time>
      </trkpt>
      <trkpt lat="43.77194" lon="7.13825">
        <ele>847.2</ele>
        <time>2013-03-23T11:38:41Z</time>
      </trkpt>
      <trkpt lat="43.77186" lon="7.13829">
        <ele>847.2</ele>
        <time>2013-03-23T11:38:43Z</time>
      </trkpt>
      <trkpt lat="43.77182" lon="7.13831">
        <ele>847.3</ele>
        <time>2013-03-23T11:38:44Z</time>
      </trkpt>
      <trkpt lat="43.77178" lon="7.13835">
        <ele>847.4</ele>
        <time>2013-03-23T11:38:45Z</time>
      </trkpt>
      <trkpt lat="43.77172" lon="7.13844">
        <ele>846.7</ele>
        <time>2013-03-23T11:38:47Z</time>
      </trkpt>
      <trkpt lat="43.77168" lon="7.13848">
        <ele>846.5</ele>
        <time>2013-03-23T11:38:48Z</time>
      </trkpt>
      <trkpt lat="43.77165" lon="7.13852">
        <ele>845.7</ele>
        <time>2013-03-23T11:38:49Z</time>
      </trkpt>
      <trkpt lat="43.77157" lon="7.13859">
        <ele>844.8</ele>
        <time>2013-03-23T11:38:51Z</time>
      </trkpt>
      <trkpt lat="43.77153" lon="7.13861">
        <ele>844.5</ele>
        <time>2013-03-23T11:38:52Z</time>
      </trkpt>
      <trkpt lat="43.77142" lon="7.13867">
        <ele>844</ele>
        <time>2013-03-23T11:38:57Z</time>
      </trkpt>
      <trkpt lat="43.77136" lon="7.1387">
        <ele>843.1</ele>
        <time>2013-03-23T11:39:00Z</time>
      </trkpt>
      <trkpt lat="43.77129" lon="7.1387">
        <ele>843.2</ele>
        <time>2013-03-23T11:39:03Z</time>
      </trkpt>
      <trkpt lat="43.77121" lon="7.13867">
        <ele>843</ele>
        <time>2013-03-23T11:39:06Z</time>
      </trkpt>
      <trkpt lat="43.77113" lon="7.13867">
        <ele>842.7</ele>
        <time>2013-03-23T11:39:09Z</time>
      </trkpt>
      <trkpt lat="43.77106" lon="7.13867">
        <ele>843.1</ele>
        <time>2013-03-23T11:39:12Z</time>
      </trkpt>
      <trkpt lat="43.77098" lon="7.13865">
        <ele>843.8</ele>
        <time>2013-03-23T11:39:15Z</time>
      </trkpt>
      <trkpt lat="43.77091" lon="7.13864">
        <ele>843.9</ele>
        <time>2013-03-23T11:39:18Z</time>
      </trkpt>
      <trkpt lat="43.77084" lon="7.13865">
        <ele>843.8</ele>
        <time>2013-03-23T11:39:21Z</time>
      </trkpt>
      <trkpt lat="43.77077" lon="7.13863">
        <ele>844</ele>
        <time>2013-03-23T11:39:24Z</time>
      </trkpt>
      <trkpt lat="43.77069" lon="7.1386">
        <ele>844</ele>
        <time>2013-03-23T11:39:27Z</time>
      </trkpt>
      <trkpt lat="43.77061" lon="7.13861">
        <ele>844.4</ele>
        <time>2013-03-23T11:39:30Z</time>
      </trkpt>
      <trkpt lat="43.77055" lon="7.13859">
        <ele>843.4</ele>
        <time>2013-03-23T11:39:33Z</time>
      </trkpt>
      <trkpt lat="43.77046" lon="7.13856">
        <ele>842.8</ele>
        <time>2013-03-23T11:39:37Z</time>
      </trkpt>
      <trkpt lat="43.77039" lon="7.13852">
        <ele>842.1</ele>
        <time>2013-03-23T11:39:41Z</time>
      </trkpt>
      <trkpt lat="43.77031" lon="7.1385">
        <ele>842.3</ele>
        <time>2013-03-23T11:39:46Z</time>
      </trkpt>
      <trkpt lat="43.77023" lon="7.13849">
        <ele>841.5</ele>
        <time>2013-03-23T11:39:50Z</time>
      </trkpt>
      <trkpt lat="43.77016" lon="7.13853">
        <ele>840.3</ele>
        <time>2013-03-23T11:39:57Z</time>
      </trkpt>
      <trkpt lat="43.77015" lon="7.13855">
        <ele>840.1</ele>
        <time>2013-03-23T11:39:58Z</time>
      </trkpt>
      <trkpt lat="43.77002" lon="7.13867">
        <ele>838.7</ele>
        <time>2013-03-23T11:40:29Z</time>
      </trkpt>
      <trkpt lat="43.76995" lon="7.13869">
        <ele>838.4</ele>
        <time>2013-03-23T11:40:32Z</time>
      </trkpt>
      <trkpt lat="43.76988" lon="7.13871">
        <ele>837.8</ele>
        <time>2013-03-23T11:40:34Z</time>
      </trkpt>
      <trkpt lat="43.76981" lon="7.1387">
        <ele>837.9</ele>
        <time>2013-03-23T11:40:36Z</time>
      </trkpt>
      <trkpt lat="43.76973" lon="7.13867">
        <ele>838</ele>
        <time>2013-03-23T11:40:38Z</time>
      </trkpt>
      <trkpt lat="43.76965" lon="7.13864">
        <ele>838.1</ele>
        <time>2013-03-23T11:40:40Z</time>
      </trkpt>
      <trkpt lat="43.7696" lon="7.13861">
        <ele>837.9</ele>
        <time>2013-03-23T11:40:41Z</time>
      </trkpt>
      <trkpt lat="43.76955" lon="7.13858">
        <ele>837.7</ele>
        <time>2013-03-23T11:40:42Z</time>
      </trkpt>
      <trkpt lat="43.7695" lon="7.13855">
        <ele>837.6</ele>
        <time>2013-03-23T11:40:43Z</time>
      </trkpt>
      <trkpt lat="43.76944" lon="7.13852">
        <ele>837.3</ele>
        <time>2013-03-23T11:40:44Z</time>
      </trkpt>
      <trkpt lat="43.76937" lon="7.13851">
        <ele>837.1</ele>
        <time>2013-03-23T11:40:45Z</time>
      </trkpt>
      <trkpt lat="43.76931" lon="7.1385">
        <ele>836.9</ele>
        <time>2013-03-23T11:40:46Z</time>
      </trkpt>
      <trkpt lat="43.76925" lon="7.13851">
        <ele>835.7</ele>
        <time>2013-03-23T11:40:47Z</time>
      </trkpt>
      <trkpt lat="43.76919" lon="7.13851">
        <ele>834.8</ele>
        <time>2013-03-23T11:40:48Z</time>
      </trkpt>
      <trkpt lat="43.76914" lon="7.13852">
        <ele>834.2</ele>
        <time>2013-03-23T11:40:49Z</time>
      </trkpt>
      <trkpt lat="43.76908" lon="7.13852">
        <ele>833.6</ele>
        <time>2013-03-23T11:40:50Z</time>
      </trkpt>
      <trkpt lat="43.76903" lon="7.13852">
        <ele>833.6</ele>
        <time>2013-03-23T11:40:51Z</time>
      </trkpt>
      <trkpt lat="43.76895" lon="7.13852">
        <ele>833.4</ele>
        <time>2013-03-23T11:40:53Z</time>
      </trkpt>
      <trkpt lat="43.76889" lon="7.13852">
        <ele>832.7</ele>
        <time>2013-03-23T11:40:55Z</time>
      </trkpt>
      <trkpt lat="43.76883" lon="7.13853">
        <ele>832.2</ele>
        <time>2013-03-23T11:40:57Z</time>
      </trkpt>
      <trkpt lat="43.76876" lon="7.13854">
        <ele>831.9</ele>
        <time>2013-03-23T11:40:59Z</time>
      </trkpt>
      <trkpt lat="43.76873" lon="7.13855">
        <ele>831.4</ele>
        <time>2013-03-23T11:41:00Z</time>
      </trkpt>
      <trkpt lat="43.76861" lon="7.13858">
        <ele>830.7</ele>
        <time>2013-03-23T11:41:07Z</time>
      </trkpt>
      <trkpt lat="43.76853" lon="7.1386">
        <ele>831</ele>
        <time>2013-03-23T11:41:27Z</time>
      </trkpt>
      <trkpt lat="43.76847" lon="7.13864">
        <ele>831.4</ele>
        <time>2013-03-23T11:41:30Z</time>
      </trkpt>
      <trkpt lat="43.76841" lon="7.13869">
        <ele>832</ele>
        <time>2013-03-23T11:41:32Z</time>
      </trkpt>
      <trkpt lat="43.76835" lon="7.13874">
        <ele>832.3</ele>
        <time>2013-03-23T11:41:35Z</time>
      </trkpt>
      <trkpt lat="43.76828" lon="7.13879">
        <ele>831.6</ele>
        <time>2013-03-23T11:41:38Z</time>
      </trkpt>
      <trkpt lat="43.7682" lon="7.13884">
        <ele>831.3</ele>
        <time>2013-03-23T11:41:41Z</time>
      </trkpt>
      <trkpt lat="43.76812" lon="7.13881">
        <ele>830.7</ele>
        <time>2013-03-23T11:41:46Z</time>
      </trkpt>
      <trkpt lat="43.76804" lon="7.13877">
        <ele>829.7</ele>
        <time>2013-03-23T11:41:51Z</time>
      </trkpt>
      <trkpt lat="43.76795" lon="7.13876">
        <ele>828.5</ele>
        <time>2013-03-23T11:42:01Z</time>
      </trkpt>
      <trkpt lat="43.76793" lon="7.13876">
        <ele>828.5</ele>
        <time>2013-03-23T11:42:02Z</time>
      </trkpt>
      <trkpt lat="43.76781" lon="7.13882">
        <ele>828.3</ele>
        <time>2013-03-23T11:42:07Z</time>
      </trkpt>
      <trkpt lat="43.76774" lon="7.13884">
        <ele>827.5</ele>
        <time>2013-03-23T11:42:10Z</time>
      </trkpt>
      <trkpt lat="43.76766" lon="7.13884">
        <ele>826.8</ele>
        <time>2013-03-23T11:42:12Z</time>
      </trkpt>
      <trkpt lat="43.76759" lon="7.13881">
        <ele>825.7</ele>
        <time>2013-03-23T11:42:14Z</time>
      </trkpt>
      <trkpt lat="43.76751" lon="7.13875">
        <ele>824.6</ele>
        <time>2013-03-23T11:42:16Z</time>
      </trkpt>
      <trkpt lat="43.76743" lon="7.1387">
        <ele>822.5</ele>
        <time>2013-03-23T11:42:18Z</time>
      </trkpt>
      <trkpt lat="43.76739" lon="7.13867">
        <ele>821.9</ele>
        <time>2013-03-23T11:42:19Z</time>
      </trkpt>
      <trkpt lat="43.76734" lon="7.13863">
        <ele>821</ele>
        <time>2013-03-23T11:42:20Z</time>
      </trkpt>
      <trkpt lat="43.76726" lon="7.1386">
        <ele>819.8</ele>
        <time>2013-03-23T11:42:22Z</time>
      </trkpt>
      <trkpt lat="43.76719" lon="7.1386">
        <ele>818.4</ele>
        <time>2013-03-23T11:42:24Z</time>
      </trkpt>
      <trkpt lat="43.76711" lon="7.13861">
        <ele>817.5</ele>
        <time>2013-03-23T11:42:26Z</time>
      </trkpt>
      <trkpt lat="43.76704" lon="7.13864">
        <ele>814.9</ele>
        <time>2013-03-23T11:42:30Z</time>
      </trkpt>
      <trkpt lat="43.76697" lon="7.13871">
        <ele>813.8</ele>
        <time>2013-03-23T11:42:35Z</time>
      </trkpt>
      <trkpt lat="43.76691" lon="7.13877">
        <ele>812.9</ele>
        <time>2013-03-23T11:42:39Z</time>
      </trkpt>
      <trkpt lat="43.76685" lon="7.13887">
        <ele>812.6</ele>
        <time>2013-03-23T11:42:43Z</time>
      </trkpt>
      <trkpt lat="43.76681" lon="7.13893">
        <ele>812.6</ele>
        <time>2013-03-23T11:42:45Z</time>
      </trkpt>
      <trkpt lat="43.76677" lon="7.13901">
        <ele>811.9</ele>
        <time>2013-03-23T11:42:47Z</time>
      </trkpt>
      <trkpt lat="43.76672" lon="7.13908">
        <ele>811.5</ele>
        <time>2013-03-23T11:42:49Z</time>
      </trkpt>
      <trkpt lat="43.76664" lon="7.13911">
        <ele>811.3</ele>
        <time>2013-03-23T11:42:51Z</time>
      </trkpt>
      <trkpt lat="43.76658" lon="7.13916">
        <ele>811.5</ele>
        <time>2013-03-23T11:42:53Z</time>
      </trkpt>
      <trkpt lat="43.76651" lon="7.1392">
        <ele>810.6</ele>
        <time>2013-03-23T11:42:56Z</time>
      </trkpt>
      <trkpt lat="43.76647" lon="7.13927">
        <ele>809.7</ele>
        <time>2013-03-23T11:42:58Z</time>
      </trkpt>
      <trkpt lat="43.7664" lon="7.13931">
        <ele>808.8</ele>
        <time>2013-03-23T11:43:00Z</time>
      </trkpt>
      <trkpt lat="43.76634" lon="7.13937">
        <ele>808.1</ele>
        <time>2013-03-23T11:43:02Z</time>
      </trkpt>
      <trkpt lat="43.7663" lon="7.1394">
        <ele>807.7</ele>
        <time>2013-03-23T11:43:03Z</time>
      </trkpt>
      <trkpt lat="43.76626" lon="7.13944">
        <ele>807.5</ele>
        <time>2013-03-23T11:43:04Z</time>
      </trkpt>
      <trkpt lat="43.76619" lon="7.13951">
        <ele>806.5</ele>
        <time>2013-03-23T11:43:06Z</time>
      </trkpt>
      <trkpt lat="43.76615" lon="7.13955">
        <ele>806.2</ele>
        <time>2013-03-23T11:43:07Z</time>
      </trkpt>
      <trkpt lat="43.76611" lon="7.13961">
        <ele>805.2</ele>
        <time>2013-03-23T11:43:08Z</time>
      </trkpt>
      <trkpt lat="43.76606" lon="7.13966">
        <ele>804.5</ele>
        <time>2013-03-23T11:43:09Z</time>
      </trkpt>
      <trkpt lat="43.76602" lon="7.1397">
        <ele>804</ele>
        <time>2013-03-23T11:43:10Z</time>
      </trkpt>
      <trkpt lat="43.76596" lon="7.13973">
        <ele>803.2</ele>
        <time>2013-03-23T11:43:11Z</time>
      </trkpt>
      <trkpt lat="43.76592" lon="7.13976">
        <ele>802.7</ele>
        <time>2013-03-23T11:43:12Z</time>
      </trkpt>
      <trkpt lat="43.76584" lon="7.13981">
        <ele>801.3</ele>
        <time>2013-03-23T11:43:14Z</time>
      </trkpt>
      <trkpt lat="43.76577" lon="7.13986">
        <ele>800.1</ele>
        <time>2013-03-23T11:43:16Z</time>
      </trkpt>
      <trkpt lat="43.7657" lon="7.13991">
        <ele>797.4</ele>
        <time>2013-03-23T11:43:24Z</time>
      </trkpt>
      <trkpt lat="43.76562" lon="7.13997">
        <ele>796.1</ele>
        <time>2013-03-23T11:43:35Z</time>
      </trkpt>
      <trkpt lat="43.76554" lon="7.13995">
        <ele>796</ele>
        <time>2013-03-23T11:43:40Z</time>
      </trkpt>
      <trkpt lat="43.76547" lon="7.13997">
        <ele>796.2</ele>
        <time>2013-03-23T11:43:42Z</time>
      </trkpt>
      <trkpt lat="43.76541" lon="7.14">
        <ele>795.3</ele>
        <time>2013-03-23T11:43:44Z</time>
      </trkpt>
      <trkpt lat="43.76536" lon="7.14006">
        <ele>794.6</ele>
        <time>2013-03-23T11:43:46Z</time>
      </trkpt>
      <trkpt lat="43.76528" lon="7.14012">
        <ele>793.8</ele>
        <time>2013-03-23T11:43:49Z</time>
      </trkpt>
      <trkpt lat="43.76522" lon="7.1402">
        <ele>790.2</ele>
        <time>2013-03-23T11:43:54Z</time>
      </trkpt>
      <trkpt lat="43.76517" lon="7.14027">
        <ele>787.4</ele>
        <time>2013-03-23T11:44:00Z</time>
      </trkpt>
      <trkpt lat="43.76514" lon="7.14035">
        <ele>787.1</ele>
        <time>2013-03-23T11:44:02Z</time>
      </trkpt>
      <trkpt lat="43.76512" lon="7.14045">
        <ele>786.9</ele>
        <time>2013-03-23T11:44:04Z</time>
      </trkpt>
      <trkpt lat="43.7651" lon="7.14049">
        <ele>786.4</ele>
        <time>2013-03-23T11:44:05Z</time>
      </trkpt>
      <trkpt lat="43.76502" lon="7.14061">
        <ele>785.7</ele>
        <time>2013-03-23T11:44:08Z</time>
      </trkpt>
      <trkpt lat="43.76495" lon="7.14065">
        <ele>783.6</ele>
        <time>2013-03-23T11:44:10Z</time>
      </trkpt>
      <trkpt lat="43.76489" lon="7.1407">
        <ele>781.8</ele>
        <time>2013-03-23T11:44:12Z</time>
      </trkpt>
      <trkpt lat="43.76483" lon="7.14077">
        <ele>777.7</ele>
        <time>2013-03-23T11:44:16Z</time>
      </trkpt>
      <trkpt lat="43.76478" lon="7.14083">
        <ele>776.1</ele>
        <time>2013-03-23T11:44:19Z</time>
      </trkpt>
      <trkpt lat="43.76474" lon="7.14091">
        <ele>775.3</ele>
        <time>2013-03-23T11:44:21Z</time>
      </trkpt>
      <trkpt lat="43.76468" lon="7.14097">
        <ele>774.3</ele>
        <time>2013-03-23T11:44:24Z</time>
      </trkpt>
      <trkpt lat="43.76463" lon="7.14107">
        <ele>769.8</ele>
        <time>2013-03-23T11:44:30Z</time>
      </trkpt>
      <trkpt lat="43.76458" lon="7.14115">
        <ele>770</ele>
        <time>2013-03-23T11:44:32Z</time>
      </trkpt>
      <trkpt lat="43.7645" lon="7.14122">
        <ele>769.8</ele>
        <time>2013-03-23T11:44:34Z</time>
      </trkpt>
      <trkpt lat="43.76445" lon="7.14127">
        <ele>769.5</ele>
        <time>2013-03-23T11:44:36Z</time>
      </trkpt>
      <trkpt lat="43.76438" lon="7.14133">
        <ele>767.9</ele>
        <time>2013-03-23T11:44:39Z</time>
      </trkpt>
      <trkpt lat="43.76432" lon="7.14137">
        <ele>767.4</ele>
        <time>2013-03-23T11:44:41Z</time>
      </trkpt>
      <trkpt lat="43.76426" lon="7.14145">
        <ele>767</ele>
        <time>2013-03-23T11:44:43Z</time>
      </trkpt>
      <trkpt lat="43.7642" lon="7.14147">
        <ele>766.5</ele>
        <time>2013-03-23T11:44:44Z</time>
      </trkpt>
      <trkpt lat="43.76416" lon="7.14148">
        <ele>766</ele>
        <time>2013-03-23T11:44:45Z</time>
      </trkpt>
      <trkpt lat="43.76407" lon="7.14147">
        <ele>765.2</ele>
        <time>2013-03-23T11:44:47Z</time>
      </trkpt>
      <trkpt lat="43.76399" lon="7.14146">
        <ele>763.4</ele>
        <time>2013-03-23T11:44:50Z</time>
      </trkpt>
      <trkpt lat="43.76391" lon="7.14144">
        <ele>760.6</ele>
        <time>2013-03-23T11:44:54Z</time>
      </trkpt>
      <trkpt lat="43.76383" lon="7.14147">
        <ele>758.6</ele>
        <time>2013-03-23T11:45:00Z</time>
      </trkpt>
      <trkpt lat="43.76376" lon="7.14145">
        <ele>756.8</ele>
        <time>2013-03-23T11:45:04Z</time>
      </trkpt>
      <trkpt lat="43.7637" lon="7.14143">
        <ele>756.4</ele>
        <time>2013-03-23T11:45:06Z</time>
      </trkpt>
      <trkpt lat="43.76366" lon="7.14143">
        <ele>756.3</ele>
        <time>2013-03-23T11:45:07Z</time>
      </trkpt>
      <trkpt lat="43.76353" lon="7.14148">
        <ele>754.7</ele>
        <time>2013-03-23T11:45:10Z</time>
      </trkpt>
      <trkpt lat="43.76349" lon="7.14149">
        <ele>754.2</ele>
        <time>2013-03-23T11:45:11Z</time>
      </trkpt>
      <trkpt lat="43.76344" lon="7.14149">
        <ele>752.9</ele>
        <time>2013-03-23T11:45:12Z</time>
      </trkpt>
      <trkpt lat="43.7634" lon="7.14148">
        <ele>751.9</ele>
        <time>2013-03-23T11:45:13Z</time>
      </trkpt>
      <trkpt lat="43.76335" lon="7.1415">
        <ele>751.2</ele>
        <time>2013-03-23T11:45:14Z</time>
      </trkpt>
      <trkpt lat="43.76329" lon="7.14153">
        <ele>750.6</ele>
        <time>2013-03-23T11:45:15Z</time>
      </trkpt>
      <trkpt lat="43.76324" lon="7.14155">
        <ele>750</ele>
        <time>2013-03-23T11:45:16Z</time>
      </trkpt>
      <trkpt lat="43.76319" lon="7.14155">
        <ele>749.6</ele>
        <time>2013-03-23T11:45:17Z</time>
      </trkpt>
      <trkpt lat="43.76313" lon="7.14155">
        <ele>749.3</ele>
        <time>2013-03-23T11:45:18Z</time>
      </trkpt>
      <trkpt lat="43.76309" lon="7.14155">
        <ele>748.2</ele>
        <time>2013-03-23T11:45:19Z</time>
      </trkpt>
      <trkpt lat="43.76304" lon="7.14156">
        <ele>747.4</ele>
        <time>2013-03-23T11:45:20Z</time>
      </trkpt>
      <trkpt lat="43.76299" lon="7.14156">
        <ele>746.8</ele>
        <time>2013-03-23T11:45:21Z</time>
      </trkpt>
      <trkpt lat="43.7629" lon="7.14159">
        <ele>744.6</ele>
        <time>2013-03-23T11:45:23Z</time>
      </trkpt>
      <trkpt lat="43.76286" lon="7.14163">
        <ele>743.8</ele>
        <time>2013-03-23T11:45:24Z</time>
      </trkpt>
      <trkpt lat="43.76283" lon="7.14168">
        <ele>742.8</ele>
        <time>2013-03-23T11:45:25Z</time>
      </trkpt>
      <trkpt lat="43.76279" lon="7.14173">
        <ele>742.1</ele>
        <time>2013-03-23T11:45:26Z</time>
      </trkpt>
      <trkpt lat="43.76275" lon="7.14176">
        <ele>741.5</ele>
        <time>2013-03-23T11:45:27Z</time>
      </trkpt>
      <trkpt lat="43.76271" lon="7.1418">
        <ele>740.3</ele>
        <time>2013-03-23T11:45:28Z</time>
      </trkpt>
      <trkpt lat="43.76267" lon="7.14182">
        <ele>739.4</ele>
        <time>2013-03-23T11:45:29Z</time>
      </trkpt>
      <trkpt lat="43.76262" lon="7.14183">
        <ele>738.8</ele>
        <time>2013-03-23T11:45:30Z</time>
      </trkpt>
      <trkpt lat="43.76257" lon="7.14181">
        <ele>738.3</ele>
        <time>2013-03-23T11:45:31Z</time>
      </trkpt>
      <trkpt lat="43.76249" lon="7.14177">
        <ele>736.4</ele>
        <time>2013-03-23T11:45:33Z</time>
      </trkpt>
      <trkpt lat="43.76243" lon="7.14174">
        <ele>734.1</ele>
        <time>2013-03-23T11:45:36Z</time>
      </trkpt>
      <trkpt lat="43.76235" lon="7.14171">
        <ele>733.1</ele>
        <time>2013-03-23T11:45:38Z</time>
      </trkpt>
      <trkpt lat="43.76228" lon="7.14169">
        <ele>732.4</ele>
        <time>2013-03-23T11:45:40Z</time>
      </trkpt>
      <trkpt lat="43.76221" lon="7.14164">
        <ele>730.6</ele>
        <time>2013-03-23T11:45:42Z</time>
      </trkpt>
      <trkpt lat="43.76216" lon="7.14161">
        <ele>730</ele>
        <time>2013-03-23T11:45:43Z</time>
      </trkpt>
      <trkpt lat="43.76212" lon="7.14159">
        <ele>728.5</ele>
        <time>2013-03-23T11:45:44Z</time>
      </trkpt>
      <trkpt lat="43.76206" lon="7.14159">
        <ele>727.4</ele>
        <time>2013-03-23T11:45:45Z</time>
      </trkpt>
      <trkpt lat="43.76201" lon="7.14159">
        <ele>726.6</ele>
        <time>2013-03-23T11:45:46Z</time>
      </trkpt>
      <trkpt lat="43.76195" lon="7.14159">
        <ele>726</ele>
        <time>2013-03-23T11:45:47Z</time>
      </trkpt>
      <trkpt lat="43.76189" lon="7.1416">
        <ele>724.9</ele>
        <time>2013-03-23T11:45:48Z</time>
      </trkpt>
      <trkpt lat="43.76184" lon="7.14161">
        <ele>724</ele>
        <time>2013-03-23T11:45:49Z</time>
      </trkpt>
      <trkpt lat="43.76175" lon="7.14162">
        <ele>721.9</ele>
        <time>2013-03-23T11:45:51Z</time>
      </trkpt>
      <trkpt lat="43.76168" lon="7.14168">
        <ele>720.1</ele>
        <time>2013-03-23T11:45:53Z</time>
      </trkpt>
      <trkpt lat="43.7616" lon="7.14172">
        <ele>716.6</ele>
        <time>2013-03-23T11:45:57Z</time>
      </trkpt>
      <trkpt lat="43.76153" lon="7.14166">
        <ele>714.6</ele>
        <time>2013-03-23T11:46:00Z</time>
      </trkpt>
      <trkpt lat="43.76149" lon="7.14175">
        <ele>711.6</ele>
        <time>2013-03-23T11:46:05Z</time>
      </trkpt>
      <trkpt lat="43.76142" lon="7.14183">
        <ele>708.7</ele>
        <time>2013-03-23T11:46:10Z</time>
      </trkpt>
      <trkpt lat="43.76139" lon="7.14181">
        <ele>708.5</ele>
        <time>2013-03-23T11:46:11Z</time>
      </trkpt>
      <trkpt lat="43.7613" lon="7.14179">
        <ele>706.8</ele>
        <time>2013-03-23T11:46:15Z</time>
      </trkpt>
      <trkpt lat="43.76126" lon="7.14188">
        <ele>704.8</ele>
        <time>2013-03-23T11:46:18Z</time>
      </trkpt>
      <trkpt lat="43.76117" lon="7.14184">
        <ele>703.1</ele>
        <time>2013-03-23T11:46:22Z</time>
      </trkpt>
      <trkpt lat="43.7611" lon="7.14178">
        <ele>700.8</ele>
        <time>2013-03-23T11:46:25Z</time>
      </trkpt>
      <trkpt lat="43.76103" lon="7.14184">
        <ele>697.5</ele>
        <time>2013-03-23T11:46:29Z</time>
      </trkpt>
      <trkpt lat="43.76094" lon="7.14185">
        <ele>694.4</ele>
        <time>2013-03-23T11:46:33Z</time>
      </trkpt>
      <trkpt lat="43.76087" lon="7.14178">
        <ele>692.4</ele>
        <time>2013-03-23T11:46:37Z</time>
      </trkpt>
      <trkpt lat="43.76083" lon="7.14185">
        <ele>691.5</ele>
        <time>2013-03-23T11:46:39Z</time>
      </trkpt>
      <trkpt lat="43.76077" lon="7.14191">
        <ele>690.6</ele>
        <time>2013-03-23T11:46:41Z</time>
      </trkpt>
      <trkpt lat="43.7607" lon="7.14198">
        <ele>688.8</ele>
        <time>2013-03-23T11:46:43Z</time>
      </trkpt>
      <trkpt lat="43.76063" lon="7.14205">
        <ele>686.6</ele>
        <time>2013-03-23T11:46:45Z</time>
      </trkpt>
      <trkpt lat="43.76057" lon="7.14212">
        <ele>684.6</ele>
        <time>2013-03-23T11:46:47Z</time>
      </trkpt>
      <trkpt lat="43.76049" lon="7.14214">
        <ele>682.1</ele>
        <time>2013-03-23T11:46:49Z</time>
      </trkpt>
      <trkpt lat="43.76045" lon="7.14221">
        <ele>679.8</ele>
        <time>2013-03-23T11:46:51Z</time>
      </trkpt>
      <trkpt lat="43.7604" lon="7.14225">
        <ele>677.8</ele>
        <time>2013-03-23T11:46:53Z</time>
      </trkpt>
      <trkpt lat="43.76032" lon="7.14225">
        <ele>676.3</ele>
        <time>2013-03-23T11:46:55Z</time>
      </trkpt>
      <trkpt lat="43.76024" lon="7.14229">
        <ele>675.2</ele>
        <time>2013-03-23T11:46:57Z</time>
      </trkpt>
      <trkpt lat="43.76017" lon="7.14233">
        <ele>674</ele>
        <time>2013-03-23T11:46:59Z</time>
      </trkpt>
      <trkpt lat="43.76011" lon="7.14238">
        <ele>673.1</ele>
        <time>2013-03-23T11:47:01Z</time>
      </trkpt>
      <trkpt lat="43.76005" lon="7.14242">
        <ele>672.4</ele>
        <time>2013-03-23T11:47:03Z</time>
      </trkpt>
      <trkpt lat="43.75998" lon="7.14248">
        <ele>671.8</ele>
        <time>2013-03-23T11:47:06Z</time>
      </trkpt>
      <trkpt lat="43.75991" lon="7.14253">
        <ele>670.5</ele>
        <time>2013-03-23T11:47:09Z</time>
      </trkpt>
      <trkpt lat="43.75984" lon="7.14258">
        <ele>669.9</ele>
        <time>2013-03-23T11:47:12Z</time>
      </trkpt>
      <trkpt lat="43.75982" lon="7.14259">
        <ele>669.8</ele>
        <time>2013-03-23T11:47:13Z</time>
      </trkpt>
      <trkpt lat="43.75973" lon="7.14272">
        <ele>666.4</ele>
        <time>2013-03-23T11:47:25Z</time>
      </trkpt>
      <trkpt lat="43.75968" lon="7.14279">
        <ele>665.2</ele>
        <time>2013-03-23T11:47:40Z</time>
      </trkpt>
      <trkpt lat="43.75961" lon="7.14287">
        <ele>664.5</ele>
        <time>2013-03-23T11:47:44Z</time>
      </trkpt>
      <trkpt lat="43.75953" lon="7.14291">
        <ele>663.5</ele>
        <time>2013-03-23T11:47:47Z</time>
      </trkpt>
      <trkpt lat="43.75946" lon="7.14293">
        <ele>662.8</ele>
        <time>2013-03-23T11:47:49Z</time>
      </trkpt>
      <trkpt lat="43.75939" lon="7.14296">
        <ele>662.2</ele>
        <time>2013-03-23T11:47:51Z</time>
      </trkpt>
      <trkpt lat="43.75932" lon="7.14297">
        <ele>661.4</ele>
        <time>2013-03-23T11:47:53Z</time>
      </trkpt>
      <trkpt lat="43.75925" lon="7.14298">
        <ele>661</ele>
        <time>2013-03-23T11:47:55Z</time>
      </trkpt>
      <trkpt lat="43.75918" lon="7.14305">
        <ele>659.2</ele>
        <time>2013-03-23T11:48:19Z</time>
      </trkpt>
      <trkpt lat="43.75918" lon="7.14305">
        <ele>659.1</ele>
        <time>2013-03-23T11:48:20Z</time>
      </trkpt>
      <trkpt lat="43.75927" lon="7.14307">
        <ele>660.6</ele>
        <time>2013-03-23T11:51:33Z</time>
      </trkpt>
      <trkpt lat="43.75942" lon="7.14309">
        <ele>661.7</ele>
        <time>2013-03-23T11:51:54Z</time>
      </trkpt>
      <trkpt lat="43.7595" lon="7.14309">
        <ele>661.9</ele>
        <time>2013-03-23T11:52:01Z</time>
      </trkpt>
      <trkpt lat="43.75959" lon="7.14307">
        <ele>661.9</ele>
        <time>2013-03-23T11:52:08Z</time>
      </trkpt>
      <trkpt lat="43.75967" lon="7.14307">
        <ele>663.4</ele>
        <time>2013-03-23T11:52:14Z</time>
      </trkpt>
      <trkpt lat="43.75975" lon="7.14308">
        <ele>664.5</ele>
        <time>2013-03-23T11:52:27Z</time>
      </trkpt>
      <trkpt lat="43.75983" lon="7.1431">
        <ele>666.4</ele>
        <time>2013-03-23T11:52:34Z</time>
      </trkpt>
      <trkpt lat="43.75984" lon="7.1431">
        <ele>666.8</ele>
        <time>2013-03-23T11:52:35Z</time>
      </trkpt>
      <trkpt lat="43.75999" lon="7.14311">
        <ele>667.2</ele>
        <time>2013-03-23T11:52:46Z</time>
      </trkpt>
      <trkpt lat="43.76007" lon="7.14311">
        <ele>667.4</ele>
        <time>2013-03-23T11:52:52Z</time>
      </trkpt>
      <trkpt lat="43.76016" lon="7.14313">
        <ele>668.6</ele>
        <time>2013-03-23T11:52:58Z</time>
      </trkpt>
      <trkpt lat="43.76024" lon="7.14317">
        <ele>668.4</ele>
        <time>2013-03-23T11:53:04Z</time>
      </trkpt>
      <trkpt lat="43.76032" lon="7.14321">
        <ele>668.4</ele>
        <time>2013-03-23T11:53:09Z</time>
      </trkpt>
      <trkpt lat="43.76039" lon="7.14327">
        <ele>669.9</ele>
        <time>2013-03-23T11:53:14Z</time>
      </trkpt>
      <trkpt lat="43.76047" lon="7.14332">
        <ele>669.7</ele>
        <time>2013-03-23T11:53:19Z</time>
      </trkpt>
      <trkpt lat="43.76055" lon="7.14338">
        <ele>670.8</ele>
        <time>2013-03-23T11:53:24Z</time>
      </trkpt>
      <trkpt lat="43.76061" lon="7.14342">
        <ele>671.8</ele>
        <time>2013-03-23T11:53:28Z</time>
      </trkpt>
      <trkpt lat="43.76069" lon="7.14348">
        <ele>671</ele>
        <time>2013-03-23T11:53:33Z</time>
      </trkpt>
      <trkpt lat="43.76077" lon="7.14354">
        <ele>671.8</ele>
        <time>2013-03-23T11:53:38Z</time>
      </trkpt>
      <trkpt lat="43.76079" lon="7.14355">
        <ele>671.7</ele>
        <time>2013-03-23T11:53:39Z</time>
      </trkpt>
      <trkpt lat="43.7609" lon="7.14363">
        <ele>673.8</ele>
        <time>2013-03-23T11:53:46Z</time>
      </trkpt>
      <trkpt lat="43.76098" lon="7.14372">
        <ele>674.1</ele>
        <time>2013-03-23T11:53:51Z</time>
      </trkpt>
      <trkpt lat="43.76105" lon="7.14379">
        <ele>674.4</ele>
        <time>2013-03-23T11:53:56Z</time>
      </trkpt>
      <trkpt lat="43.76112" lon="7.14382">
        <ele>675.6</ele>
        <time>2013-03-23T11:54:00Z</time>
      </trkpt>
      <trkpt lat="43.76121" lon="7.14385">
        <ele>677</ele>
        <time>2013-03-23T11:54:04Z</time>
      </trkpt>
      <trkpt lat="43.76128" lon="7.14389">
        <ele>676.4</ele>
        <time>2013-03-23T11:54:08Z</time>
      </trkpt>
      <trkpt lat="43.76135" lon="7.14393">
        <ele>676.9</ele>
        <time>2013-03-23T11:54:12Z</time>
      </trkpt>
      <trkpt lat="43.76141" lon="7.14399">
        <ele>676.7</ele>
        <time>2013-03-23T11:54:17Z</time>
      </trkpt>
      <trkpt lat="43.76148" lon="7.14405">
        <ele>677.3</ele>
        <time>2013-03-23T11:54:22Z</time>
      </trkpt>
      <trkpt lat="43.76155" lon="7.14408">
        <ele>678.4</ele>
        <time>2013-03-23T11:54:27Z</time>
      </trkpt>
      <trkpt lat="43.76163" lon="7.1441">
        <ele>679.6</ele>
        <time>2013-03-23T11:54:32Z</time>
      </trkpt>
      <trkpt lat="43.76172" lon="7.14412">
        <ele>679.8</ele>
        <time>2013-03-23T11:54:36Z</time>
      </trkpt>
      <trkpt lat="43.76179" lon="7.14414">
        <ele>679.5</ele>
        <time>2013-03-23T11:54:39Z</time>
      </trkpt>
      <trkpt lat="43.76187" lon="7.14417">
        <ele>679.1</ele>
        <time>2013-03-23T11:54:43Z</time>
      </trkpt>
      <trkpt lat="43.76188" lon="7.14417">
        <ele>679.7</ele>
        <time>2013-03-23T11:54:44Z</time>
      </trkpt>
      <trkpt lat="43.76203" lon="7.14419">
        <ele>680.2</ele>
        <time>2013-03-23T11:54:52Z</time>
      </trkpt>
      <trkpt lat="43.76211" lon="7.14421">
        <ele>681.6</ele>
        <time>2013-03-23T11:54:56Z</time>
      </trkpt>
      <trkpt lat="43.76218" lon="7.14425">
        <ele>682.5</ele>
        <time>2013-03-23T11:55:00Z</time>
      </trkpt>
      <trkpt lat="43.76226" lon="7.14429">
        <ele>683.2</ele>
        <time>2013-03-23T11:55:04Z</time>
      </trkpt>
      <trkpt lat="43.76233" lon="7.14433">
        <ele>683.5</ele>
        <time>2013-03-23T11:55:08Z</time>
      </trkpt>
      <trkpt lat="43.76241" lon="7.14435">
        <ele>683.1</ele>
        <time>2013-03-23T11:55:12Z</time>
      </trkpt>
      <trkpt lat="43.76249" lon="7.14436">
        <ele>682.8</ele>
        <time>2013-03-23T11:55:16Z</time>
      </trkpt>
      <trkpt lat="43.76258" lon="7.14437">
        <ele>683.8</ele>
        <time>2013-03-23T11:55:20Z</time>
      </trkpt>
      <trkpt lat="43.76265" lon="7.14438">
        <ele>684.4</ele>
        <time>2013-03-23T11:55:24Z</time>
      </trkpt>
      <trkpt lat="43.76273" lon="7.14439">
        <ele>685.6</ele>
        <time>2013-03-23T11:55:28Z</time>
      </trkpt>
      <trkpt lat="43.76281" lon="7.14441">
        <ele>685.2</ele>
        <time>2013-03-23T11:55:32Z</time>
      </trkpt>
      <trkpt lat="43.76289" lon="7.14445">
        <ele>685.8</ele>
        <time>2013-03-23T11:55:36Z</time>
      </trkpt>
      <trkpt lat="43.76296" lon="7.14448">
        <ele>686.6</ele>
        <time>2013-03-23T11:55:40Z</time>
      </trkpt>
      <trkpt lat="43.76304" lon="7.14452">
        <ele>687</ele>
        <time>2013-03-23T11:55:44Z</time>
      </trkpt>
      <trkpt lat="43.76305" lon="7.14454">
        <ele>687</ele>
        <time>2013-03-23T11:55:45Z</time>
      </trkpt>
      <trkpt lat="43.7632" lon="7.14455">
        <ele>688.6</ele>
        <time>2013-03-23T11:55:53Z</time>
      </trkpt>
      <trkpt lat="43.76327" lon="7.14455">
        <ele>690.3</ele>
        <time>2013-03-23T11:55:56Z</time>
      </trkpt>
      <trkpt lat="43.76335" lon="7.14455">
        <ele>689</ele>
        <time>2013-03-23T11:56:00Z</time>
      </trkpt>
      <trkpt lat="43.76344" lon="7.14454">
        <ele>689.2</ele>
        <time>2013-03-23T11:56:04Z</time>
      </trkpt>
      <trkpt lat="43.76351" lon="7.14451">
        <ele>689.1</ele>
        <time>2013-03-23T11:56:07Z</time>
      </trkpt>
      <trkpt lat="43.76358" lon="7.14448">
        <ele>689.7</ele>
        <time>2013-03-23T11:56:10Z</time>
      </trkpt>
      <trkpt lat="43.76367" lon="7.14446">
        <ele>690.1</ele>
        <time>2013-03-23T11:56:14Z</time>
      </trkpt>
      <trkpt lat="43.76375" lon="7.14447">
        <ele>691.1</ele>
        <time>2013-03-23T11:56:18Z</time>
      </trkpt>
      <trkpt lat="43.76383" lon="7.1445">
        <ele>691.5</ele>
        <time>2013-03-23T11:56:23Z</time>
      </trkpt>
      <trkpt lat="43.76391" lon="7.14452">
        <ele>691.9</ele>
        <time>2013-03-23T11:56:27Z</time>
      </trkpt>
      <trkpt lat="43.76398" lon="7.14451">
        <ele>693.2</ele>
        <time>2013-03-23T11:56:31Z</time>
      </trkpt>
      <trkpt lat="43.76406" lon="7.1445">
        <ele>693.6</ele>
        <time>2013-03-23T11:56:35Z</time>
      </trkpt>
      <trkpt lat="43.76414" lon="7.1445">
        <ele>694.2</ele>
        <time>2013-03-23T11:56:39Z</time>
      </trkpt>
      <trkpt lat="43.76421" lon="7.14449">
        <ele>694.9</ele>
        <time>2013-03-23T11:56:43Z</time>
      </trkpt>
      <trkpt lat="43.76429" lon="7.14455">
        <ele>695.4</ele>
        <time>2013-03-23T11:56:48Z</time>
      </trkpt>
      <trkpt lat="43.7643" lon="7.14456">
        <ele>695.4</ele>
        <time>2013-03-23T11:56:49Z</time>
      </trkpt>
      <trkpt lat="43.76444" lon="7.1446">
        <ele>697.5</ele>
        <time>2013-03-23T11:56:58Z</time>
      </trkpt>
      <trkpt lat="43.76452" lon="7.14462">
        <ele>697.9</ele>
        <time>2013-03-23T11:57:03Z</time>
      </trkpt>
      <trkpt lat="43.76459" lon="7.14463">
        <ele>699.1</ele>
        <time>2013-03-23T11:57:08Z</time>
      </trkpt>
      <trkpt lat="43.76467" lon="7.14462">
        <ele>700.3</ele>
        <time>2013-03-23T11:57:13Z</time>
      </trkpt>
      <trkpt lat="43.76476" lon="7.14461">
        <ele>700.6</ele>
        <time>2013-03-23T11:57:19Z</time>
      </trkpt>
      <trkpt lat="43.76484" lon="7.14459">
        <ele>702.5</ele>
        <time>2013-03-23T11:57:25Z</time>
      </trkpt>
      <trkpt lat="43.76493" lon="7.14458">
        <ele>703.4</ele>
        <time>2013-03-23T11:57:31Z</time>
      </trkpt>
      <trkpt lat="43.765" lon="7.14455">
        <ele>705.6</ele>
        <time>2013-03-23T11:57:38Z</time>
      </trkpt>
      <trkpt lat="43.76508" lon="7.14452">
        <ele>706.7</ele>
        <time>2013-03-23T11:57:46Z</time>
      </trkpt>
      <trkpt lat="43.76516" lon="7.1445">
        <ele>707.1</ele>
        <time>2013-03-23T11:57:53Z</time>
      </trkpt>
      <trkpt lat="43.76517" lon="7.14449">
        <ele>707.1</ele>
        <time>2013-03-23T11:57:54Z</time>
      </trkpt>
      <trkpt lat="43.76531" lon="7.14442">
        <ele>710.5</ele>
        <time>2013-03-23T11:58:07Z</time>
      </trkpt>
      <trkpt lat="43.76539" lon="7.14439">
        <ele>712.3</ele>
        <time>2013-03-23T11:58:14Z</time>
      </trkpt>
      <trkpt lat="43.76547" lon="7.1444">
        <ele>712.3</ele>
        <time>2013-03-23T11:58:21Z</time>
      </trkpt>
      <trkpt lat="43.76555" lon="7.14442">
        <ele>713</ele>
        <time>2013-03-23T11:58:28Z</time>
      </trkpt>
      <trkpt lat="43.76564" lon="7.14441">
        <ele>713.9</ele>
        <time>2013-03-23T11:58:34Z</time>
      </trkpt>
      <trkpt lat="43.76572" lon="7.14441">
        <ele>714.3</ele>
        <time>2013-03-23T11:58:39Z</time>
      </trkpt>
      <trkpt lat="43.7658" lon="7.1444">
        <ele>715</ele>
        <time>2013-03-23T11:58:44Z</time>
      </trkpt>
      <trkpt lat="43.76587" lon="7.14439">
        <ele>715.2</ele>
        <time>2013-03-23T11:58:49Z</time>
      </trkpt>
      <trkpt lat="43.76595" lon="7.14436">
        <ele>715</ele>
        <time>2013-03-23T11:58:55Z</time>
      </trkpt>
      <trkpt lat="43.76597" lon="7.14436">
        <ele>715.7</ele>
        <time>2013-03-23T11:58:56Z</time>
      </trkpt>
      <trkpt lat="43.76612" lon="7.14436">
        <ele>716.3</ele>
        <time>2013-03-23T11:59:08Z</time>
      </trkpt>
      <trkpt lat="43.7662" lon="7.14437">
        <ele>719.4</ele>
        <time>2013-03-23T11:59:17Z</time>
      </trkpt>
      <trkpt lat="43.76628" lon="7.14436">
        <ele>719</ele>
        <time>2013-03-23T11:59:23Z</time>
      </trkpt>
      <trkpt lat="43.76637" lon="7.14435">
        <ele>720.2</ele>
        <time>2013-03-23T11:59:29Z</time>
      </trkpt>
      <trkpt lat="43.76644" lon="7.14437">
        <ele>721.1</ele>
        <time>2013-03-23T11:59:36Z</time>
      </trkpt>
      <trkpt lat="43.76653" lon="7.14438">
        <ele>722.3</ele>
        <time>2013-03-23T11:59:43Z</time>
      </trkpt>
      <trkpt lat="43.76662" lon="7.14438">
        <ele>724.4</ele>
        <time>2013-03-23T11:59:51Z</time>
      </trkpt>
      <trkpt lat="43.7667" lon="7.1444">
        <ele>725.7</ele>
        <time>2013-03-23T11:59:59Z</time>
      </trkpt>
      <trkpt lat="43.76671" lon="7.1444">
        <ele>725.7</ele>
        <time>2013-03-23T12:00:00Z</time>
      </trkpt>
      <trkpt lat="43.76687" lon="7.14444">
        <ele>727.6</ele>
        <time>2013-03-23T12:00:42Z</time>
      </trkpt>
      <trkpt lat="43.76695" lon="7.14446">
        <ele>729.1</ele>
        <time>2013-03-23T12:00:51Z</time>
      </trkpt>
      <trkpt lat="43.76704" lon="7.14449">
        <ele>730.4</ele>
        <time>2013-03-23T12:00:58Z</time>
      </trkpt>
      <trkpt lat="43.76712" lon="7.14452">
        <ele>732.5</ele>
        <time>2013-03-23T12:01:15Z</time>
      </trkpt>
      <trkpt lat="43.76713" lon="7.14453">
        <ele>732.7</ele>
        <time>2013-03-23T12:01:16Z</time>
      </trkpt>
      <trkpt lat="43.76727" lon="7.14458">
        <ele>734.7</ele>
        <time>2013-03-23T12:01:27Z</time>
      </trkpt>
      <trkpt lat="43.76735" lon="7.14464">
        <ele>735.4</ele>
        <time>2013-03-23T12:02:44Z</time>
      </trkpt>
      <trkpt lat="43.76735" lon="7.14464">
        <ele>735.6</ele>
        <time>2013-03-23T12:02:45Z</time>
      </trkpt>
      <trkpt lat="43.76744" lon="7.1446">
        <ele>733.7</ele>
        <time>2013-03-23T12:09:13Z</time>
      </trkpt>
      <trkpt lat="43.76751" lon="7.14468">
        <ele>735.1</ele>
        <time>2013-03-23T12:14:19Z</time>
      </trkpt>
      <trkpt lat="43.76762" lon="7.14462">
        <ele>737.8</ele>
        <time>2013-03-23T12:14:40Z</time>
      </trkpt>
      <trkpt lat="43.7677" lon="7.14467">
        <ele>738.9</ele>
        <time>2013-03-23T12:14:48Z</time>
      </trkpt>
      <trkpt lat="43.76778" lon="7.14471">
        <ele>740.3</ele>
        <time>2013-03-23T12:14:56Z</time>
      </trkpt>
      <trkpt lat="43.76787" lon="7.14474">
        <ele>740.3</ele>
        <time>2013-03-23T12:15:04Z</time>
      </trkpt>
      <trkpt lat="43.76795" lon="7.14475">
        <ele>742.6</ele>
        <time>2013-03-23T12:15:12Z</time>
      </trkpt>
      <trkpt lat="43.76803" lon="7.14477">
        <ele>742.7</ele>
        <time>2013-03-23T12:15:20Z</time>
      </trkpt>
      <trkpt lat="43.76804" lon="7.14477">
        <ele>742.5</ele>
        <time>2013-03-23T12:15:21Z</time>
      </trkpt>
      <trkpt lat="43.7682" lon="7.14478">
        <ele>746</ele>
        <time>2013-03-23T12:15:39Z</time>
      </trkpt>
      <trkpt lat="43.76828" lon="7.1448">
        <ele>747.1</ele>
        <time>2013-03-23T12:15:49Z</time>
      </trkpt>
      <trkpt lat="43.76836" lon="7.14483">
        <ele>747.8</ele>
        <time>2013-03-23T12:15:58Z</time>
      </trkpt>
      <trkpt lat="43.76845" lon="7.14482">
        <ele>749.2</ele>
        <time>2013-03-23T12:16:07Z</time>
      </trkpt>
      <trkpt lat="43.76852" lon="7.14483">
        <ele>750.1</ele>
        <time>2013-03-23T12:16:16Z</time>
      </trkpt>
      <trkpt lat="43.76861" lon="7.14486">
        <ele>751.3</ele>
        <time>2013-03-23T12:16:25Z</time>
      </trkpt>
      <trkpt lat="43.76862" lon="7.14486">
        <ele>751.6</ele>
        <time>2013-03-23T12:16:26Z</time>
      </trkpt>
      <trkpt lat="43.76878" lon="7.14488">
        <ele>753.1</ele>
        <time>2013-03-23T12:16:44Z</time>
      </trkpt>
      <trkpt lat="43.76886" lon="7.14488">
        <ele>753.5</ele>
        <time>2013-03-23T12:16:49Z</time>
      </trkpt>
      <trkpt lat="43.76894" lon="7.14488">
        <ele>754.3</ele>
        <time>2013-03-23T12:16:54Z</time>
      </trkpt>
      <trkpt lat="43.76902" lon="7.14488">
        <ele>754.4</ele>
        <time>2013-03-23T12:16:59Z</time>
      </trkpt>
      <trkpt lat="43.7691" lon="7.14486">
        <ele>754.5</ele>
        <time>2013-03-23T12:17:04Z</time>
      </trkpt>
      <trkpt lat="43.76918" lon="7.14484">
        <ele>755.3</ele>
        <time>2013-03-23T12:17:09Z</time>
      </trkpt>
      <trkpt lat="43.76927" lon="7.14482">
        <ele>756</ele>
        <time>2013-03-23T12:17:15Z</time>
      </trkpt>
      <trkpt lat="43.76935" lon="7.14479">
        <ele>756.9</ele>
        <time>2013-03-23T12:17:22Z</time>
      </trkpt>
      <trkpt lat="43.76943" lon="7.14477">
        <ele>757.9</ele>
        <time>2013-03-23T12:17:29Z</time>
      </trkpt>
      <trkpt lat="43.76944" lon="7.14477">
        <ele>758.1</ele>
        <time>2013-03-23T12:17:30Z</time>
      </trkpt>
      <trkpt lat="43.76958" lon="7.14479">
        <ele>759.7</ele>
        <time>2013-03-23T12:18:01Z</time>
      </trkpt>
      <trkpt lat="43.76965" lon="7.14482">
        <ele>758.9</ele>
        <time>2013-03-23T12:18:04Z</time>
      </trkpt>
      <trkpt lat="43.76965" lon="7.14494">
        <ele>759.7</ele>
        <time>2013-03-23T12:18:16Z</time>
      </trkpt>
      <trkpt lat="43.76958" lon="7.14501">
        <ele>759.9</ele>
        <time>2013-03-23T12:18:24Z</time>
      </trkpt>
      <trkpt lat="43.76961" lon="7.14513">
        <ele>765.3</ele>
        <time>2013-03-23T12:19:14Z</time>
      </trkpt>
      <trkpt lat="43.7696" lon="7.14514">
        <ele>765.3</ele>
        <time>2013-03-23T12:19:15Z</time>
      </trkpt>
      <trkpt lat="43.76947" lon="7.14527">
        <ele>766.5</ele>
        <time>2013-03-23T12:19:35Z</time>
      </trkpt>
      <trkpt lat="43.76955" lon="7.14533">
        <ele>768</ele>
        <time>2013-03-23T12:19:53Z</time>
      </trkpt>
      <trkpt lat="43.76948" lon="7.14542">
        <ele>769.3</ele>
        <time>2013-03-23T12:20:08Z</time>
      </trkpt>
      <trkpt lat="43.76944" lon="7.14553">
        <ele>770.8</ele>
        <time>2013-03-23T12:20:26Z</time>
      </trkpt>
      <trkpt lat="43.76944" lon="7.14554">
        <ele>771.1</ele>
        <time>2013-03-23T12:20:27Z</time>
      </trkpt>
      <trkpt lat="43.76937" lon="7.1457">
        <ele>777</ele>
        <time>2013-03-23T12:21:05Z</time>
      </trkpt>
      <trkpt lat="43.76929" lon="7.14574">
        <ele>777.3</ele>
        <time>2013-03-23T12:21:17Z</time>
      </trkpt>
      <trkpt lat="43.76919" lon="7.1458">
        <ele>777</ele>
        <time>2013-03-23T12:21:24Z</time>
      </trkpt>
      <trkpt lat="43.76912" lon="7.14587">
        <ele>779.5</ele>
        <time>2013-03-23T12:21:30Z</time>
      </trkpt>
      <trkpt lat="43.76911" lon="7.14588">
        <ele>779.3</ele>
        <time>2013-03-23T12:21:31Z</time>
      </trkpt>
      <trkpt lat="43.76899" lon="7.14601">
        <ele>781.5</ele>
        <time>2013-03-23T12:21:45Z</time>
      </trkpt>
      <trkpt lat="43.76891" lon="7.14608">
        <ele>783.3</ele>
        <time>2013-03-23T12:21:56Z</time>
      </trkpt>
      <trkpt lat="43.76884" lon="7.14614">
        <ele>785.6</ele>
        <time>2013-03-23T12:22:09Z</time>
      </trkpt>
      <trkpt lat="43.76878" lon="7.14623">
        <ele>786.4</ele>
        <time>2013-03-23T12:22:35Z</time>
      </trkpt>
      <trkpt lat="43.76877" lon="7.14623">
        <ele>786.3</ele>
        <time>2013-03-23T12:22:36Z</time>
      </trkpt>
      <trkpt lat="43.76886" lon="7.14618">
        <ele>786.6</ele>
        <time>2013-03-23T12:26:19Z</time>
      </trkpt>
      <trkpt lat="43.76872" lon="7.1463">
        <ele>789.7</ele>
        <time>2013-03-23T12:27:11Z</time>
      </trkpt>
      <trkpt lat="43.76866" lon="7.14638">
        <ele>789.8</ele>
        <time>2013-03-23T12:27:17Z</time>
      </trkpt>
      <trkpt lat="43.76859" lon="7.14646">
        <ele>790.5</ele>
        <time>2013-03-23T12:27:23Z</time>
      </trkpt>
      <trkpt lat="43.76858" lon="7.14647">
        <ele>790.9</ele>
        <time>2013-03-23T12:27:24Z</time>
      </trkpt>
      <trkpt lat="43.76845" lon="7.14657">
        <ele>793.8</ele>
        <time>2013-03-23T12:27:35Z</time>
      </trkpt>
      <trkpt lat="43.7684" lon="7.14665">
        <ele>794.3</ele>
        <time>2013-03-23T12:27:41Z</time>
      </trkpt>
      <trkpt lat="43.76834" lon="7.14674">
        <ele>795.6</ele>
        <time>2013-03-23T12:27:48Z</time>
      </trkpt>
      <trkpt lat="43.76827" lon="7.14681">
        <ele>796.1</ele>
        <time>2013-03-23T12:27:53Z</time>
      </trkpt>
      <trkpt lat="43.76819" lon="7.14683">
        <ele>797.1</ele>
        <time>2013-03-23T12:28:00Z</time>
      </trkpt>
      <trkpt lat="43.7681" lon="7.1468">
        <ele>799.4</ele>
        <time>2013-03-23T12:28:14Z</time>
      </trkpt>
      <trkpt lat="43.76802" lon="7.1468">
        <ele>801</ele>
        <time>2013-03-23T12:28:24Z</time>
      </trkpt>
      <trkpt lat="43.76801" lon="7.1468">
        <ele>801</ele>
        <time>2013-03-23T12:28:25Z</time>
      </trkpt>
      <trkpt lat="43.76786" lon="7.14675">
        <ele>803.5</ele>
        <time>2013-03-23T12:28:40Z</time>
      </trkpt>
      <trkpt lat="43.76777" lon="7.14673">
        <ele>804.4</ele>
        <time>2013-03-23T12:28:50Z</time>
      </trkpt>
      <trkpt lat="43.7677" lon="7.14671">
        <ele>805.4</ele>
        <time>2013-03-23T12:28:55Z</time>
      </trkpt>
      <trkpt lat="43.76762" lon="7.1467">
        <ele>806.2</ele>
        <time>2013-03-23T12:29:00Z</time>
      </trkpt>
      <trkpt lat="43.76754" lon="7.1467">
        <ele>806.6</ele>
        <time>2013-03-23T12:29:05Z</time>
      </trkpt>
      <trkpt lat="43.76746" lon="7.14672">
        <ele>808.5</ele>
        <time>2013-03-23T12:29:11Z</time>
      </trkpt>
      <trkpt lat="43.76738" lon="7.14673">
        <ele>808.9</ele>
        <time>2013-03-23T12:29:17Z</time>
      </trkpt>
      <trkpt lat="43.76729" lon="7.14675">
        <ele>809.8</ele>
        <time>2013-03-23T12:29:23Z</time>
      </trkpt>
      <trkpt lat="43.76722" lon="7.14678">
        <ele>810.9</ele>
        <time>2013-03-23T12:29:28Z</time>
      </trkpt>
      <trkpt lat="43.76721" lon="7.14679">
        <ele>811.3</ele>
        <time>2013-03-23T12:29:29Z</time>
      </trkpt>
      <trkpt lat="43.76707" lon="7.14682">
        <ele>813</ele>
        <time>2013-03-23T12:29:40Z</time>
      </trkpt>
      <trkpt lat="43.76699" lon="7.14684">
        <ele>814.4</ele>
        <time>2013-03-23T12:29:45Z</time>
      </trkpt>
      <trkpt lat="43.76692" lon="7.14686">
        <ele>815.6</ele>
        <time>2013-03-23T12:29:50Z</time>
      </trkpt>
      <trkpt lat="43.76684" lon="7.14689">
        <ele>815.7</ele>
        <time>2013-03-23T12:29:55Z</time>
      </trkpt>
      <trkpt lat="43.76676" lon="7.14693">
        <ele>817.4</ele>
        <time>2013-03-23T12:30:02Z</time>
      </trkpt>
      <trkpt lat="43.76669" lon="7.14697">
        <ele>818.5</ele>
        <time>2013-03-23T12:30:11Z</time>
      </trkpt>
      <trkpt lat="43.7666" lon="7.14701">
        <ele>819.7</ele>
        <time>2013-03-23T12:30:20Z</time>
      </trkpt>
      <trkpt lat="43.76652" lon="7.14706">
        <ele>819.3</ele>
        <time>2013-03-23T12:30:27Z</time>
      </trkpt>
      <trkpt lat="43.76646" lon="7.14712">
        <ele>819.3</ele>
        <time>2013-03-23T12:30:32Z</time>
      </trkpt>
      <trkpt lat="43.76644" lon="7.14713">
        <ele>819.2</ele>
        <time>2013-03-23T12:30:33Z</time>
      </trkpt>
      <trkpt lat="43.76631" lon="7.14724">
        <ele>821.4</ele>
        <time>2013-03-23T12:30:43Z</time>
      </trkpt>
      <trkpt lat="43.76624" lon="7.14728">
        <ele>821.4</ele>
        <time>2013-03-23T12:30:49Z</time>
      </trkpt>
      <trkpt lat="43.76617" lon="7.14734">
        <ele>821.3</ele>
        <time>2013-03-23T12:30:54Z</time>
      </trkpt>
      <trkpt lat="43.76611" lon="7.14742">
        <ele>822.3</ele>
        <time>2013-03-23T12:31:06Z</time>
      </trkpt>
      <trkpt lat="43.76604" lon="7.14749">
        <ele>823.7</ele>
        <time>2013-03-23T12:31:19Z</time>
      </trkpt>
      <trkpt lat="43.76597" lon="7.14757">
        <ele>824.5</ele>
        <time>2013-03-23T12:31:26Z</time>
      </trkpt>
      <trkpt lat="43.7659" lon="7.1476">
        <ele>824.9</ele>
        <time>2013-03-23T12:31:31Z</time>
      </trkpt>
      <trkpt lat="43.76582" lon="7.14759">
        <ele>825</ele>
        <time>2013-03-23T12:31:34Z</time>
      </trkpt>
      <trkpt lat="43.76578" lon="7.14759">
        <ele>824.9</ele>
        <time>2013-03-23T12:31:35Z</time>
      </trkpt>
      <trkpt lat="43.76564" lon="7.1476">
        <ele>824.7</ele>
        <time>2013-03-23T12:31:43Z</time>
      </trkpt>
      <trkpt lat="43.76556" lon="7.14762">
        <ele>824.3</ele>
        <time>2013-03-23T12:31:48Z</time>
      </trkpt>
      <trkpt lat="43.76548" lon="7.14766">
        <ele>824.6</ele>
        <time>2013-03-23T12:31:57Z</time>
      </trkpt>
      <trkpt lat="43.7654" lon="7.14771">
        <ele>826.4</ele>
        <time>2013-03-23T12:32:08Z</time>
      </trkpt>
      <trkpt lat="43.76533" lon="7.14778">
        <ele>827</ele>
        <time>2013-03-23T12:32:14Z</time>
      </trkpt>
      <trkpt lat="43.76526" lon="7.14784">
        <ele>828.6</ele>
        <time>2013-03-23T12:32:20Z</time>
      </trkpt>
      <trkpt lat="43.7652" lon="7.14791">
        <ele>829.9</ele>
        <time>2013-03-23T12:32:26Z</time>
      </trkpt>
      <trkpt lat="43.76513" lon="7.14797">
        <ele>830.2</ele>
        <time>2013-03-23T12:32:31Z</time>
      </trkpt>
      <trkpt lat="43.76507" lon="7.14804">
        <ele>829.9</ele>
        <time>2013-03-23T12:32:36Z</time>
      </trkpt>
      <trkpt lat="43.76505" lon="7.14805">
        <ele>830.1</ele>
        <time>2013-03-23T12:32:37Z</time>
      </trkpt>
      <trkpt lat="43.76494" lon="7.14817">
        <ele>831.6</ele>
        <time>2013-03-23T12:32:46Z</time>
      </trkpt>
      <trkpt lat="43.76487" lon="7.14824">
        <ele>831.9</ele>
        <time>2013-03-23T12:32:52Z</time>
      </trkpt>
      <trkpt lat="43.76479" lon="7.14829">
        <ele>832.8</ele>
        <time>2013-03-23T12:32:58Z</time>
      </trkpt>
      <trkpt lat="43.76472" lon="7.14832">
        <ele>832.5</ele>
        <time>2013-03-23T12:33:02Z</time>
      </trkpt>
      <trkpt lat="43.76465" lon="7.14839">
        <ele>833.2</ele>
        <time>2013-03-23T12:33:08Z</time>
      </trkpt>
      <trkpt lat="43.76458" lon="7.14845">
        <ele>834.8</ele>
        <time>2013-03-23T12:33:14Z</time>
      </trkpt>
      <trkpt lat="43.76452" lon="7.14854">
        <ele>836.2</ele>
        <time>2013-03-23T12:33:20Z</time>
      </trkpt>
      <trkpt lat="43.76445" lon="7.1486">
        <ele>837.1</ele>
        <time>2013-03-23T12:33:25Z</time>
      </trkpt>
      <trkpt lat="43.7644" lon="7.14867">
        <ele>837</ele>
        <time>2013-03-23T12:33:28Z</time>
      </trkpt>
      <trkpt lat="43.76433" lon="7.14874">
        <ele>836.4</ele>
        <time>2013-03-23T12:33:33Z</time>
      </trkpt>
      <trkpt lat="43.76427" lon="7.14876">
        <ele>836.9</ele>
        <time>2013-03-23T12:33:36Z</time>
      </trkpt>
      <trkpt lat="43.76419" lon="7.1488">
        <ele>836.9</ele>
        <time>2013-03-23T12:33:40Z</time>
      </trkpt>
      <trkpt lat="43.76417" lon="7.14882">
        <ele>837.3</ele>
        <time>2013-03-23T12:33:41Z</time>
      </trkpt>
      <trkpt lat="43.76404" lon="7.14892">
        <ele>836.7</ele>
        <time>2013-03-23T12:33:51Z</time>
      </trkpt>
      <trkpt lat="43.76395" lon="7.14891">
        <ele>836.4</ele>
        <time>2013-03-23T12:35:19Z</time>
      </trkpt>
      <trkpt lat="43.76395" lon="7.14891">
        <ele>836.7</ele>
        <time>2013-03-23T12:35:20Z</time>
      </trkpt>
      <trkpt lat="43.76389" lon="7.14882">
        <ele>836</ele>
        <time>2013-03-23T12:36:42Z</time>
      </trkpt>
      <trkpt lat="43.76392" lon="7.14894">
        <ele>838.4</ele>
        <time>2013-03-23T12:38:10Z</time>
      </trkpt>
      <trkpt lat="43.7639" lon="7.14915">
        <ele>837.7</ele>
        <time>2013-03-23T12:38:22Z</time>
      </trkpt>
      <trkpt lat="43.76389" lon="7.14924">
        <ele>838.7</ele>
        <time>2013-03-23T12:38:26Z</time>
      </trkpt>
      <trkpt lat="43.76386" lon="7.14931">
        <ele>838.7</ele>
        <time>2013-03-23T12:38:28Z</time>
      </trkpt>
      <trkpt lat="43.76382" lon="7.14939">
        <ele>838.4</ele>
        <time>2013-03-23T12:38:30Z</time>
      </trkpt>
      <trkpt lat="43.76378" lon="7.14947">
        <ele>838.9</ele>
        <time>2013-03-23T12:38:32Z</time>
      </trkpt>
      <trkpt lat="43.76377" lon="7.14957">
        <ele>838.8</ele>
        <time>2013-03-23T12:38:34Z</time>
      </trkpt>
      <trkpt lat="43.76376" lon="7.14968">
        <ele>838.5</ele>
        <time>2013-03-23T12:38:36Z</time>
      </trkpt>
      <trkpt lat="43.76373" lon="7.14974">
        <ele>838.4</ele>
        <time>2013-03-23T12:38:37Z</time>
      </trkpt>
      <trkpt lat="43.7637" lon="7.1498">
        <ele>838.3</ele>
        <time>2013-03-23T12:38:38Z</time>
      </trkpt>
      <trkpt lat="43.76367" lon="7.14987">
        <ele>838.3</ele>
        <time>2013-03-23T12:38:39Z</time>
      </trkpt>
      <trkpt lat="43.76364" lon="7.14996">
        <ele>838.2</ele>
        <time>2013-03-23T12:38:40Z</time>
      </trkpt>
      <trkpt lat="43.76361" lon="7.15005">
        <ele>837.4</ele>
        <time>2013-03-23T12:38:41Z</time>
      </trkpt>
      <trkpt lat="43.76358" lon="7.15011">
        <ele>836.7</ele>
        <time>2013-03-23T12:38:42Z</time>
      </trkpt>
      <trkpt lat="43.76353" lon="7.15017">
        <ele>836.2</ele>
        <time>2013-03-23T12:38:43Z</time>
      </trkpt>
      <trkpt lat="43.76349" lon="7.15024">
        <ele>834.8</ele>
        <time>2013-03-23T12:38:44Z</time>
      </trkpt>
      <trkpt lat="43.76346" lon="7.15032">
        <ele>833.7</ele>
        <time>2013-03-23T12:38:45Z</time>
      </trkpt>
      <trkpt lat="43.76341" lon="7.15041">
        <ele>832.9</ele>
        <time>2013-03-23T12:38:46Z</time>
      </trkpt>
      <trkpt lat="43.76337" lon="7.1505">
        <ele>831.5</ele>
        <time>2013-03-23T12:38:47Z</time>
      </trkpt>
      <trkpt lat="43.76333" lon="7.15057">
        <ele>830.4</ele>
        <time>2013-03-23T12:38:48Z</time>
      </trkpt>
      <trkpt lat="43.7633" lon="7.15065">
        <ele>829.6</ele>
        <time>2013-03-23T12:38:49Z</time>
      </trkpt>
      <trkpt lat="43.76326" lon="7.15074">
        <ele>827.5</ele>
        <time>2013-03-23T12:38:50Z</time>
      </trkpt>
      <trkpt lat="43.76321" lon="7.15083">
        <ele>826</ele>
        <time>2013-03-23T12:38:51Z</time>
      </trkpt>
      <trkpt lat="43.76316" lon="7.1509">
        <ele>824.9</ele>
        <time>2013-03-23T12:38:52Z</time>
      </trkpt>
      <trkpt lat="43.76312" lon="7.15093">
        <ele>824</ele>
        <time>2013-03-23T12:38:53Z</time>
      </trkpt>
      <trkpt lat="43.76307" lon="7.15097">
        <ele>822.7</ele>
        <time>2013-03-23T12:38:54Z</time>
      </trkpt>
      <trkpt lat="43.76303" lon="7.15103">
        <ele>821.7</ele>
        <time>2013-03-23T12:38:55Z</time>
      </trkpt>
      <trkpt lat="43.76299" lon="7.1511">
        <ele>821</ele>
        <time>2013-03-23T12:38:56Z</time>
      </trkpt>
      <trkpt lat="43.76293" lon="7.15117">
        <ele>818.6</ele>
        <time>2013-03-23T12:38:57Z</time>
      </trkpt>
      <trkpt lat="43.76288" lon="7.15122">
        <ele>816.9</ele>
        <time>2013-03-23T12:38:58Z</time>
      </trkpt>
      <trkpt lat="43.76285" lon="7.15128">
        <ele>815.6</ele>
        <time>2013-03-23T12:38:59Z</time>
      </trkpt>
      <trkpt lat="43.7628" lon="7.15138">
        <ele>812.1</ele>
        <time>2013-03-23T12:39:01Z</time>
      </trkpt>
      <trkpt lat="43.76282" lon="7.15146">
        <ele>809.5</ele>
        <time>2013-03-23T12:39:03Z</time>
      </trkpt>
      <trkpt lat="43.76285" lon="7.15157">
        <ele>806</ele>
        <time>2013-03-23T12:39:06Z</time>
      </trkpt>
      <trkpt lat="43.76284" lon="7.15168">
        <ele>803.2</ele>
        <time>2013-03-23T12:39:09Z</time>
      </trkpt>
      <trkpt lat="43.76283" lon="7.1518">
        <ele>797.7</ele>
        <time>2013-03-23T12:39:14Z</time>
      </trkpt>
      <trkpt lat="43.76282" lon="7.15181">
        <ele>797.1</ele>
        <time>2013-03-23T12:39:15Z</time>
      </trkpt>
      <trkpt lat="43.76276" lon="7.15201">
        <ele>790.9</ele>
        <time>2013-03-23T12:39:27Z</time>
      </trkpt>
      <trkpt lat="43.76274" lon="7.15209">
        <ele>789.1</ele>
        <time>2013-03-23T12:39:30Z</time>
      </trkpt>
      <trkpt lat="43.7627" lon="7.15219">
        <ele>787.8</ele>
        <time>2013-03-23T12:39:32Z</time>
      </trkpt>
      <trkpt lat="43.76267" lon="7.15225">
        <ele>787.2</ele>
        <time>2013-03-23T12:39:33Z</time>
      </trkpt>
      <trkpt lat="43.76261" lon="7.15234">
        <ele>785.7</ele>
        <time>2013-03-23T12:39:35Z</time>
      </trkpt>
      <trkpt lat="43.76257" lon="7.15243">
        <ele>782.5</ele>
        <time>2013-03-23T12:39:38Z</time>
      </trkpt>
      <trkpt lat="43.76254" lon="7.15253">
        <ele>777.4</ele>
        <time>2013-03-23T12:39:42Z</time>
      </trkpt>
      <trkpt lat="43.7625" lon="7.15259">
        <ele>775.9</ele>
        <time>2013-03-23T12:39:44Z</time>
      </trkpt>
      <trkpt lat="43.76243" lon="7.15265">
        <ele>775.3</ele>
        <time>2013-03-23T12:39:47Z</time>
      </trkpt>
      <trkpt lat="43.76237" lon="7.15273">
        <ele>772.4</ele>
        <time>2013-03-23T12:39:51Z</time>
      </trkpt>
      <trkpt lat="43.76233" lon="7.15282">
        <ele>769.1</ele>
        <time>2013-03-23T12:39:56Z</time>
      </trkpt>
      <trkpt lat="43.76228" lon="7.1529">
        <ele>766.5</ele>
        <time>2013-03-23T12:40:00Z</time>
      </trkpt>
      <trkpt lat="43.76223" lon="7.15296">
        <ele>765.3</ele>
        <time>2013-03-23T12:40:02Z</time>
      </trkpt>
      <trkpt lat="43.76218" lon="7.15301">
        <ele>764</ele>
        <time>2013-03-23T12:40:04Z</time>
      </trkpt>
      <trkpt lat="43.76211" lon="7.15309">
        <ele>762</ele>
        <time>2013-03-23T12:40:07Z</time>
      </trkpt>
      <trkpt lat="43.7621" lon="7.15318">
        <ele>761.1</ele>
        <time>2013-03-23T12:40:09Z</time>
      </trkpt>
      <trkpt lat="43.76206" lon="7.15328">
        <ele>760.1</ele>
        <time>2013-03-23T12:40:11Z</time>
      </trkpt>
      <trkpt lat="43.76201" lon="7.15332">
        <ele>759.1</ele>
        <time>2013-03-23T12:40:13Z</time>
      </trkpt>
      <trkpt lat="43.76194" lon="7.1534">
        <ele>755.4</ele>
        <time>2013-03-23T12:40:59Z</time>
      </trkpt>
      <trkpt lat="43.76194" lon="7.1534">
        <ele>755.4</ele>
        <time>2013-03-23T12:41:00Z</time>
      </trkpt>
      <trkpt lat="43.76184" lon="7.15339">
        <ele>756.3</ele>
        <time>2013-03-23T12:42:03Z</time>
      </trkpt>
      <trkpt lat="43.76175" lon="7.15331">
        <ele>756.6</ele>
        <time>2013-03-23T12:42:06Z</time>
      </trkpt>
      <trkpt lat="43.76168" lon="7.15325">
        <ele>755.7</ele>
        <time>2013-03-23T12:42:08Z</time>
      </trkpt>
      <trkpt lat="43.7616" lon="7.15324">
        <ele>753.5</ele>
        <time>2013-03-23T12:42:11Z</time>
      </trkpt>
      <trkpt lat="43.76153" lon="7.15325">
        <ele>752.4</ele>
        <time>2013-03-23T12:42:13Z</time>
      </trkpt>
      <trkpt lat="43.76145" lon="7.15328">
        <ele>750.2</ele>
        <time>2013-03-23T12:42:17Z</time>
      </trkpt>
      <trkpt lat="43.76138" lon="7.15326">
        <ele>747.9</ele>
        <time>2013-03-23T12:42:21Z</time>
      </trkpt>
      <trkpt lat="43.76132" lon="7.15327">
        <ele>746.6</ele>
        <time>2013-03-23T12:42:23Z</time>
      </trkpt>
      <trkpt lat="43.76125" lon="7.15331">
        <ele>745</ele>
        <time>2013-03-23T12:42:25Z</time>
      </trkpt>
      <trkpt lat="43.76119" lon="7.15335">
        <ele>743.1</ele>
        <time>2013-03-23T12:42:28Z</time>
      </trkpt>
      <trkpt lat="43.76112" lon="7.1534">
        <ele>739.8</ele>
        <time>2013-03-23T12:42:34Z</time>
      </trkpt>
      <trkpt lat="43.76103" lon="7.15341">
        <ele>737.2</ele>
        <time>2013-03-23T12:42:40Z</time>
      </trkpt>
      <trkpt lat="43.76095" lon="7.15342">
        <ele>736.2</ele>
        <time>2013-03-23T12:42:43Z</time>
      </trkpt>
      <trkpt lat="43.76087" lon="7.15346">
        <ele>734.7</ele>
        <time>2013-03-23T12:42:45Z</time>
      </trkpt>
      <trkpt lat="43.7608" lon="7.15349">
        <ele>732.9</ele>
        <time>2013-03-23T12:42:48Z</time>
      </trkpt>
      <trkpt lat="43.76072" lon="7.15352">
        <ele>731.9</ele>
        <time>2013-03-23T12:42:50Z</time>
      </trkpt>
      <trkpt lat="43.76068" lon="7.15355">
        <ele>731.5</ele>
        <time>2013-03-23T12:42:51Z</time>
      </trkpt>
      <trkpt lat="43.76059" lon="7.1536">
        <ele>730.4</ele>
        <time>2013-03-23T12:42:53Z</time>
      </trkpt>
      <trkpt lat="43.76052" lon="7.15363">
        <ele>728.2</ele>
        <time>2013-03-23T12:42:56Z</time>
      </trkpt>
      <trkpt lat="43.76045" lon="7.15364">
        <ele>726.6</ele>
        <time>2013-03-23T12:42:58Z</time>
      </trkpt>
      <trkpt lat="43.76037" lon="7.15366">
        <ele>725.6</ele>
        <time>2013-03-23T12:43:00Z</time>
      </trkpt>
      <trkpt lat="43.76028" lon="7.1537">
        <ele>723.3</ele>
        <time>2013-03-23T12:43:04Z</time>
      </trkpt>
      <trkpt lat="43.76026" lon="7.15372">
        <ele>722.7</ele>
        <time>2013-03-23T12:43:05Z</time>
      </trkpt>
      <trkpt lat="43.76017" lon="7.15378">
        <ele>721.7</ele>
        <time>2013-03-23T12:43:08Z</time>
      </trkpt>
      <trkpt lat="43.76011" lon="7.15382">
        <ele>720.3</ele>
        <time>2013-03-23T12:43:11Z</time>
      </trkpt>
      <trkpt lat="43.76005" lon="7.15387">
        <ele>718.5</ele>
        <time>2013-03-23T12:43:13Z</time>
      </trkpt>
      <trkpt lat="43.75997" lon="7.15392">
        <ele>715.3</ele>
        <time>2013-03-23T12:43:17Z</time>
      </trkpt>
      <trkpt lat="43.75991" lon="7.15396">
        <ele>713.7</ele>
        <time>2013-03-23T12:43:20Z</time>
      </trkpt>
      <trkpt lat="43.75983" lon="7.15402">
        <ele>712.9</ele>
        <time>2013-03-23T12:43:23Z</time>
      </trkpt>
      <trkpt lat="43.75977" lon="7.15406">
        <ele>711.9</ele>
        <time>2013-03-23T12:43:25Z</time>
      </trkpt>
      <trkpt lat="43.7597" lon="7.15413">
        <ele>709.9</ele>
        <time>2013-03-23T12:43:28Z</time>
      </trkpt>
      <trkpt lat="43.75962" lon="7.15419">
        <ele>707.9</ele>
        <time>2013-03-23T12:43:31Z</time>
      </trkpt>
      <trkpt lat="43.75956" lon="7.15424">
        <ele>706.8</ele>
        <time>2013-03-23T12:43:33Z</time>
      </trkpt>
      <trkpt lat="43.75951" lon="7.15431">
        <ele>705.8</ele>
        <time>2013-03-23T12:43:35Z</time>
      </trkpt>
      <trkpt lat="43.75946" lon="7.15438">
        <ele>705.3</ele>
        <time>2013-03-23T12:43:37Z</time>
      </trkpt>
      <trkpt lat="43.75941" lon="7.15443">
        <ele>704.9</ele>
        <time>2013-03-23T12:43:39Z</time>
      </trkpt>
      <trkpt lat="43.75936" lon="7.15449">
        <ele>704.7</ele>
        <time>2013-03-23T12:43:41Z</time>
      </trkpt>
      <trkpt lat="43.75931" lon="7.15456">
        <ele>704.6</ele>
        <time>2013-03-23T12:43:43Z</time>
      </trkpt>
      <trkpt lat="43.75924" lon="7.15464">
        <ele>704.1</ele>
        <time>2013-03-23T12:43:45Z</time>
      </trkpt>
      <trkpt lat="43.75918" lon="7.15472">
        <ele>703.6</ele>
        <time>2013-03-23T12:43:48Z</time>
      </trkpt>
      <trkpt lat="43.75913" lon="7.15477">
        <ele>703</ele>
        <time>2013-03-23T12:43:50Z</time>
      </trkpt>
      <trkpt lat="43.75906" lon="7.15484">
        <ele>699.7</ele>
        <time>2013-03-23T12:44:49Z</time>
      </trkpt>
      <trkpt lat="43.75906" lon="7.15484">
        <ele>699.6</ele>
        <time>2013-03-23T12:44:50Z</time>
      </trkpt>
      <trkpt lat="43.75895" lon="7.15496">
        <ele>699.2</ele>
        <time>2013-03-23T12:44:58Z</time>
      </trkpt>
      <trkpt lat="43.7589" lon="7.15506">
        <ele>699.5</ele>
        <time>2013-03-23T12:45:03Z</time>
      </trkpt>
      <trkpt lat="43.75886" lon="7.15517">
        <ele>696.3</ele>
        <time>2013-03-23T12:45:17Z</time>
      </trkpt>
      <trkpt lat="43.75882" lon="7.15527">
        <ele>696.2</ele>
        <time>2013-03-23T12:45:20Z</time>
      </trkpt>
      <trkpt lat="43.75879" lon="7.15532">
        <ele>695.9</ele>
        <time>2013-03-23T12:45:21Z</time>
      </trkpt>
      <trkpt lat="43.75877" lon="7.15538">
        <ele>695.7</ele>
        <time>2013-03-23T12:45:22Z</time>
      </trkpt>
      <trkpt lat="43.75875" lon="7.15545">
        <ele>695.4</ele>
        <time>2013-03-23T12:45:23Z</time>
      </trkpt>
      <trkpt lat="43.75872" lon="7.15552">
        <ele>695.2</ele>
        <time>2013-03-23T12:45:24Z</time>
      </trkpt>
      <trkpt lat="43.75869" lon="7.15558">
        <ele>695.1</ele>
        <time>2013-03-23T12:45:25Z</time>
      </trkpt>
      <trkpt lat="43.75867" lon="7.15565">
        <ele>694.4</ele>
        <time>2013-03-23T12:45:26Z</time>
      </trkpt>
      <trkpt lat="43.75865" lon="7.15572">
        <ele>693.9</ele>
        <time>2013-03-23T12:45:27Z</time>
      </trkpt>
      <trkpt lat="43.75864" lon="7.15579">
        <ele>693.5</ele>
        <time>2013-03-23T12:45:28Z</time>
      </trkpt>
      <trkpt lat="43.75861" lon="7.15591">
        <ele>692.2</ele>
        <time>2013-03-23T12:45:30Z</time>
      </trkpt>
      <trkpt lat="43.75859" lon="7.15602">
        <ele>691.4</ele>
        <time>2013-03-23T12:45:32Z</time>
      </trkpt>
      <trkpt lat="43.75857" lon="7.15613">
        <ele>690</ele>
        <time>2013-03-23T12:45:34Z</time>
      </trkpt>
      <trkpt lat="43.75856" lon="7.15619">
        <ele>689.6</ele>
        <time>2013-03-23T12:45:35Z</time>
      </trkpt>
      <trkpt lat="43.75855" lon="7.15626">
        <ele>688.8</ele>
        <time>2013-03-23T12:45:36Z</time>
      </trkpt>
      <trkpt lat="43.75855" lon="7.15633">
        <ele>688.2</ele>
        <time>2013-03-23T12:45:37Z</time>
      </trkpt>
      <trkpt lat="43.75855" lon="7.15644">
        <ele>687.3</ele>
        <time>2013-03-23T12:45:39Z</time>
      </trkpt>
      <trkpt lat="43.75854" lon="7.15655">
        <ele>686.2</ele>
        <time>2013-03-23T12:45:42Z</time>
      </trkpt>
      <trkpt lat="43.75853" lon="7.15661">
        <ele>685.9</ele>
        <time>2013-03-23T12:45:43Z</time>
      </trkpt>
      <trkpt lat="43.75853" lon="7.15668">
        <ele>685.7</ele>
        <time>2013-03-23T12:45:44Z</time>
      </trkpt>
      <trkpt lat="43.75853" lon="7.15676">
        <ele>683.9</ele>
        <time>2013-03-23T12:45:45Z</time>
      </trkpt>
      <trkpt lat="43.75853" lon="7.15685">
        <ele>682.5</ele>
        <time>2013-03-23T12:45:46Z</time>
      </trkpt>
      <trkpt lat="43.75854" lon="7.15693">
        <ele>681.5</ele>
        <time>2013-03-23T12:45:47Z</time>
      </trkpt>
      <trkpt lat="43.75853" lon="7.15705">
        <ele>680.2</ele>
        <time>2013-03-23T12:45:50Z</time>
      </trkpt>
      <trkpt lat="43.75853" lon="7.15709">
        <ele>680</ele>
        <time>2013-03-23T12:45:51Z</time>
      </trkpt>
      <trkpt lat="43.75854" lon="7.15728">
        <ele>676.6</ele>
        <time>2013-03-23T12:45:56Z</time>
      </trkpt>
      <trkpt lat="43.75854" lon="7.15738">
        <ele>675.1</ele>
        <time>2013-03-23T12:45:58Z</time>
      </trkpt>
      <trkpt lat="43.75853" lon="7.15748">
        <ele>672</ele>
        <time>2013-03-23T12:46:02Z</time>
      </trkpt>
      <trkpt lat="43.75855" lon="7.15759">
        <ele>670.5</ele>
        <time>2013-03-23T12:46:05Z</time>
      </trkpt>
      <trkpt lat="43.75858" lon="7.1577">
        <ele>669</ele>
        <time>2013-03-23T12:46:08Z</time>
      </trkpt>
      <trkpt lat="43.75861" lon="7.15782">
        <ele>667.7</ele>
        <time>2013-03-23T12:46:10Z</time>
      </trkpt>
      <trkpt lat="43.75864" lon="7.15792">
        <ele>666.9</ele>
        <time>2013-03-23T12:46:12Z</time>
      </trkpt>
      <trkpt lat="43.75866" lon="7.15802">
        <ele>665.2</ele>
        <time>2013-03-23T12:46:15Z</time>
      </trkpt>
      <trkpt lat="43.7587" lon="7.1581">
        <ele>663.8</ele>
        <time>2013-03-23T12:46:17Z</time>
      </trkpt>
      <trkpt lat="43.75874" lon="7.15817">
        <ele>662.6</ele>
        <time>2013-03-23T12:46:19Z</time>
      </trkpt>
      <trkpt lat="43.75879" lon="7.15825">
        <ele>660.4</ele>
        <time>2013-03-23T12:46:21Z</time>
      </trkpt>
      <trkpt lat="43.75886" lon="7.15833">
        <ele>659.2</ele>
        <time>2013-03-23T12:46:23Z</time>
      </trkpt>
      <trkpt lat="43.75893" lon="7.15839">
        <ele>657.7</ele>
        <time>2013-03-23T12:46:25Z</time>
      </trkpt>
      <trkpt lat="43.75898" lon="7.15843">
        <ele>656.8</ele>
        <time>2013-03-23T12:46:27Z</time>
      </trkpt>
      <trkpt lat="43.75904" lon="7.15848">
        <ele>656.2</ele>
        <time>2013-03-23T12:46:29Z</time>
      </trkpt>
      <trkpt lat="43.75911" lon="7.15855">
        <ele>656</ele>
        <time>2013-03-23T12:46:31Z</time>
      </trkpt>
      <trkpt lat="43.75916" lon="7.1586">
        <ele>655.9</ele>
        <time>2013-03-23T12:46:32Z</time>
      </trkpt>
      <trkpt lat="43.75923" lon="7.15867">
        <ele>654.8</ele>
        <time>2013-03-23T12:46:34Z</time>
      </trkpt>
      <trkpt lat="43.75917" lon="7.1587">
        <ele>651.9</ele>
        <time>2013-03-23T12:46:38Z</time>
      </trkpt>
      <trkpt lat="43.7591" lon="7.1587">
        <ele>650.7</ele>
        <time>2013-03-23T12:46:40Z</time>
      </trkpt>
      <trkpt lat="43.75912" lon="7.15882">
        <ele>646.6</ele>
        <time>2013-03-23T12:46:48Z</time>
      </trkpt>
      <trkpt lat="43.75918" lon="7.1589">
        <ele>645.1</ele>
        <time>2013-03-23T12:46:50Z</time>
      </trkpt>
      <trkpt lat="43.75926" lon="7.15895">
        <ele>644.2</ele>
        <time>2013-03-23T12:46:52Z</time>
      </trkpt>
      <trkpt lat="43.75929" lon="7.15897">
        <ele>643.8</ele>
        <time>2013-03-23T12:46:53Z</time>
      </trkpt>
      <trkpt lat="43.75937" lon="7.15907">
        <ele>642.6</ele>
        <time>2013-03-23T12:46:56Z</time>
      </trkpt>
      <trkpt lat="43.75942" lon="7.15914">
        <ele>641.5</ele>
        <time>2013-03-23T12:46:58Z</time>
      </trkpt>
      <trkpt lat="43.75949" lon="7.15919">
        <ele>640.4</ele>
        <time>2013-03-23T12:47:00Z</time>
      </trkpt>
      <trkpt lat="43.75955" lon="7.15926">
        <ele>638.8</ele>
        <time>2013-03-23T12:47:02Z</time>
      </trkpt>
      <trkpt lat="43.75962" lon="7.15933">
        <ele>637</ele>
        <time>2013-03-23T12:47:04Z</time>
      </trkpt>
      <trkpt lat="43.75957" lon="7.15942">
        <ele>631.2</ele>
        <time>2013-03-23T12:47:10Z</time>
      </trkpt>
      <trkpt lat="43.75952" lon="7.15942">
        <ele>630.7</ele>
        <time>2013-03-23T12:47:11Z</time>
      </trkpt>
      <trkpt lat="43.75946" lon="7.15942">
        <ele>630</ele>
        <time>2013-03-23T12:47:12Z</time>
      </trkpt>
      <trkpt lat="43.75941" lon="7.15943">
        <ele>629.6</ele>
        <time>2013-03-23T12:47:13Z</time>
      </trkpt>
      <trkpt lat="43.75935" lon="7.15944">
        <ele>629.2</ele>
        <time>2013-03-23T12:47:14Z</time>
      </trkpt>
      <trkpt lat="43.75926" lon="7.15944">
        <ele>626.4</ele>
        <time>2013-03-23T12:47:16Z</time>
      </trkpt>
      <trkpt lat="43.75929" lon="7.15956">
        <ele>620.9</ele>
        <time>2013-03-23T12:47:21Z</time>
      </trkpt>
      <trkpt lat="43.75933" lon="7.1596">
        <ele>620.1</ele>
        <time>2013-03-23T12:47:22Z</time>
      </trkpt>
      <trkpt lat="43.75937" lon="7.15965">
        <ele>619.4</ele>
        <time>2013-03-23T12:47:23Z</time>
      </trkpt>
      <trkpt lat="43.75943" lon="7.15973">
        <ele>616.6</ele>
        <time>2013-03-23T12:47:25Z</time>
      </trkpt>
      <trkpt lat="43.75947" lon="7.15977">
        <ele>615.7</ele>
        <time>2013-03-23T12:47:26Z</time>
      </trkpt>
      <trkpt lat="43.75951" lon="7.15981">
        <ele>615</ele>
        <time>2013-03-23T12:47:27Z</time>
      </trkpt>
      <trkpt lat="43.75958" lon="7.15989">
        <ele>612.7</ele>
        <time>2013-03-23T12:47:29Z</time>
      </trkpt>
      <trkpt lat="43.75965" lon="7.15996">
        <ele>610.8</ele>
        <time>2013-03-23T12:47:31Z</time>
      </trkpt>
      <trkpt lat="43.75972" lon="7.16003">
        <ele>609.2</ele>
        <time>2013-03-23T12:47:33Z</time>
      </trkpt>
      <trkpt lat="43.75977" lon="7.16011">
        <ele>607.2</ele>
        <time>2013-03-23T12:47:35Z</time>
      </trkpt>
      <trkpt lat="43.75984" lon="7.16018">
        <ele>605</ele>
        <time>2013-03-23T12:47:38Z</time>
      </trkpt>
      <trkpt lat="43.7599" lon="7.16024">
        <ele>602.6</ele>
        <time>2013-03-23T12:47:41Z</time>
      </trkpt>
      <trkpt lat="43.75994" lon="7.1603">
        <ele>600.7</ele>
        <time>2013-03-23T12:47:44Z</time>
      </trkpt>
      <trkpt lat="43.76001" lon="7.16038">
        <ele>598.7</ele>
        <time>2013-03-23T12:47:47Z</time>
      </trkpt>
      <trkpt lat="43.75995" lon="7.16046">
        <ele>597.1</ele>
        <time>2013-03-23T12:47:52Z</time>
      </trkpt>
      <trkpt lat="43.75988" lon="7.16046">
        <ele>595.2</ele>
        <time>2013-03-23T12:47:54Z</time>
      </trkpt>
      <trkpt lat="43.75984" lon="7.16046">
        <ele>594.6</ele>
        <time>2013-03-23T12:47:55Z</time>
      </trkpt>
      <trkpt lat="43.75975" lon="7.16043">
        <ele>592.6</ele>
        <time>2013-03-23T12:47:57Z</time>
      </trkpt>
      <trkpt lat="43.7597" lon="7.16043">
        <ele>592</ele>
        <time>2013-03-23T12:47:58Z</time>
      </trkpt>
      <trkpt lat="43.75965" lon="7.16042">
        <ele>590.8</ele>
        <time>2013-03-23T12:47:59Z</time>
      </trkpt>
      <trkpt lat="43.75961" lon="7.16043">
        <ele>589.9</ele>
        <time>2013-03-23T12:48:00Z</time>
      </trkpt>
      <trkpt lat="43.75956" lon="7.16043">
        <ele>589.2</ele>
        <time>2013-03-23T12:48:01Z</time>
      </trkpt>
      <trkpt lat="43.7595" lon="7.16043">
        <ele>588.7</ele>
        <time>2013-03-23T12:48:02Z</time>
      </trkpt>
      <trkpt lat="43.75944" lon="7.16041">
        <ele>587.9</ele>
        <time>2013-03-23T12:48:03Z</time>
      </trkpt>
      <trkpt lat="43.75947" lon="7.16051">
        <ele>583.2</ele>
        <time>2013-03-23T12:48:12Z</time>
      </trkpt>
      <trkpt lat="43.75952" lon="7.16057">
        <ele>582.6</ele>
        <time>2013-03-23T12:48:14Z</time>
      </trkpt>
      <trkpt lat="43.75959" lon="7.16064">
        <ele>581.3</ele>
        <time>2013-03-23T12:48:16Z</time>
      </trkpt>
      <trkpt lat="43.75965" lon="7.1607">
        <ele>580.6</ele>
        <time>2013-03-23T12:48:18Z</time>
      </trkpt>
      <trkpt lat="43.75971" lon="7.16076">
        <ele>579.3</ele>
        <time>2013-03-23T12:48:20Z</time>
      </trkpt>
      <trkpt lat="43.75963" lon="7.1608">
        <ele>575.7</ele>
        <time>2013-03-23T12:48:26Z</time>
      </trkpt>
      <trkpt lat="43.75955" lon="7.16083">
        <ele>572.7</ele>
        <time>2013-03-23T12:48:32Z</time>
      </trkpt>
      <trkpt lat="43.75946" lon="7.16083">
        <ele>571.6</ele>
        <time>2013-03-23T12:48:36Z</time>
      </trkpt>
      <trkpt lat="43.7594" lon="7.16084">
        <ele>570</ele>
        <time>2013-03-23T12:48:39Z</time>
      </trkpt>
      <trkpt lat="43.75931" lon="7.16084">
        <ele>567.5</ele>
        <time>2013-03-23T12:48:44Z</time>
      </trkpt>
      <trkpt lat="43.75935" lon="7.16095">
        <ele>564.1</ele>
        <time>2013-03-23T12:48:54Z</time>
      </trkpt>
      <trkpt lat="43.75941" lon="7.16103">
        <ele>562.5</ele>
        <time>2013-03-23T12:48:57Z</time>
      </trkpt>
      <trkpt lat="43.75941" lon="7.16105">
        <ele>561.5</ele>
        <time>2013-03-23T12:48:58Z</time>
      </trkpt>
      <trkpt lat="43.75951" lon="7.16119">
        <ele>558.5</ele>
        <time>2013-03-23T12:49:06Z</time>
      </trkpt>
      <trkpt lat="43.75947" lon="7.16129">
        <ele>555.7</ele>
        <time>2013-03-23T12:49:14Z</time>
      </trkpt>
      <trkpt lat="43.7594" lon="7.1613">
        <ele>554.6</ele>
        <time>2013-03-23T12:49:16Z</time>
      </trkpt>
      <trkpt lat="43.75932" lon="7.16129">
        <ele>553.7</ele>
        <time>2013-03-23T12:49:18Z</time>
      </trkpt>
      <trkpt lat="43.75931" lon="7.16139">
        <ele>548.1</ele>
        <time>2013-03-23T12:49:26Z</time>
      </trkpt>
      <trkpt lat="43.75937" lon="7.16147">
        <ele>547.8</ele>
        <time>2013-03-23T12:49:28Z</time>
      </trkpt>
      <trkpt lat="43.7594" lon="7.16153">
        <ele>547.1</ele>
        <time>2013-03-23T12:49:29Z</time>
      </trkpt>
      <trkpt lat="43.75947" lon="7.16159">
        <ele>546.1</ele>
        <time>2013-03-23T12:49:31Z</time>
      </trkpt>
      <trkpt lat="43.75951" lon="7.16167">
        <ele>545.5</ele>
        <time>2013-03-23T12:49:34Z</time>
      </trkpt>
      <trkpt lat="43.75956" lon="7.16175">
        <ele>544.1</ele>
        <time>2013-03-23T12:49:37Z</time>
      </trkpt>
      <trkpt lat="43.75955" lon="7.16187">
        <ele>539.6</ele>
        <time>2013-03-23T12:49:46Z</time>
      </trkpt>
      <trkpt lat="43.7596" lon="7.16195">
        <ele>538.1</ele>
        <time>2013-03-23T12:49:49Z</time>
      </trkpt>
      <trkpt lat="43.75965" lon="7.16203">
        <ele>536.8</ele>
        <time>2013-03-23T12:49:52Z</time>
      </trkpt>
      <trkpt lat="43.75971" lon="7.16211">
        <ele>535.6</ele>
        <time>2013-03-23T12:49:54Z</time>
      </trkpt>
      <trkpt lat="43.75974" lon="7.16215">
        <ele>535</ele>
        <time>2013-03-23T12:49:55Z</time>
      </trkpt>
      <trkpt lat="43.75978" lon="7.1622">
        <ele>534.5</ele>
        <time>2013-03-23T12:49:56Z</time>
      </trkpt>
      <trkpt lat="43.75982" lon="7.16225">
        <ele>534.1</ele>
        <time>2013-03-23T12:49:57Z</time>
      </trkpt>
      <trkpt lat="43.75987" lon="7.16229">
        <ele>533.9</ele>
        <time>2013-03-23T12:49:58Z</time>
      </trkpt>
      <trkpt lat="43.75991" lon="7.16234">
        <ele>533.8</ele>
        <time>2013-03-23T12:49:59Z</time>
      </trkpt>
      <trkpt lat="43.75999" lon="7.16241">
        <ele>533.2</ele>
        <time>2013-03-23T12:50:01Z</time>
      </trkpt>
      <trkpt lat="43.76003" lon="7.16246">
        <ele>532.6</ele>
        <time>2013-03-23T12:50:03Z</time>
      </trkpt>
      <trkpt lat="43.7601" lon="7.16254">
        <ele>531.8</ele>
        <time>2013-03-23T12:50:05Z</time>
      </trkpt>
      <trkpt lat="43.76017" lon="7.16262">
        <ele>531.2</ele>
        <time>2013-03-23T12:50:07Z</time>
      </trkpt>
      <trkpt lat="43.76022" lon="7.1627">
        <ele>529.8</ele>
        <time>2013-03-23T12:50:11Z</time>
      </trkpt>
      <trkpt lat="43.76013" lon="7.16274">
        <ele>526.4</ele>
        <time>2013-03-23T12:50:23Z</time>
      </trkpt>
      <trkpt lat="43.76005" lon="7.16271">
        <ele>525.5</ele>
        <time>2013-03-23T12:50:26Z</time>
      </trkpt>
      <trkpt lat="43.75999" lon="7.16268">
        <ele>524.6</ele>
        <time>2013-03-23T12:50:28Z</time>
      </trkpt>
      <trkpt lat="43.75991" lon="7.16267">
        <ele>524.3</ele>
        <time>2013-03-23T12:50:31Z</time>
      </trkpt>
      <trkpt lat="43.75982" lon="7.16264">
        <ele>523.2</ele>
        <time>2013-03-23T12:50:34Z</time>
      </trkpt>
      <trkpt lat="43.75973" lon="7.16261">
        <ele>521.9</ele>
        <time>2013-03-23T12:50:37Z</time>
      </trkpt>
      <trkpt lat="43.75972" lon="7.16273">
        <ele>517.9</ele>
        <time>2013-03-23T12:50:47Z</time>
      </trkpt>
      <trkpt lat="43.7597" lon="7.16284">
        <ele>513.2</ele>
        <time>2013-03-23T12:51:00Z</time>
      </trkpt>
      <trkpt lat="43.75971" lon="7.16286">
        <ele>513.2</ele>
        <time>2013-03-23T12:51:01Z</time>
      </trkpt>
      <trkpt lat="43.7596" lon="7.16297">
        <ele>509.5</ele>
        <time>2013-03-23T12:51:14Z</time>
      </trkpt>
      <trkpt lat="43.75952" lon="7.16299">
        <ele>508</ele>
        <time>2013-03-23T12:51:17Z</time>
      </trkpt>
      <trkpt lat="43.75943" lon="7.163">
        <ele>506</ele>
        <time>2013-03-23T12:51:21Z</time>
      </trkpt>
      <trkpt lat="43.75945" lon="7.1631">
        <ele>502.9</ele>
        <time>2013-03-23T12:51:27Z</time>
      </trkpt>
      <trkpt lat="43.75948" lon="7.16319">
        <ele>501.8</ele>
        <time>2013-03-23T12:51:30Z</time>
      </trkpt>
      <trkpt lat="43.75941" lon="7.16323">
        <ele>498.6</ele>
        <time>2013-03-23T12:51:35Z</time>
      </trkpt>
      <trkpt lat="43.75933" lon="7.16326">
        <ele>496</ele>
        <time>2013-03-23T12:51:46Z</time>
      </trkpt>
      <trkpt lat="43.75935" lon="7.16335">
        <ele>493</ele>
        <time>2013-03-23T12:51:54Z</time>
      </trkpt>
      <trkpt lat="43.7593" lon="7.16344">
        <ele>490.7</ele>
        <time>2013-03-23T12:52:00Z</time>
      </trkpt>
      <trkpt lat="43.75927" lon="7.16355">
        <ele>487.2</ele>
        <time>2013-03-23T12:52:10Z</time>
      </trkpt>
      <trkpt lat="43.75926" lon="7.16355">
        <ele>487</ele>
        <time>2013-03-23T12:52:11Z</time>
      </trkpt>
      <trkpt lat="43.75911" lon="7.16359">
        <ele>483.5</ele>
        <time>2013-03-23T12:52:18Z</time>
      </trkpt>
      <trkpt lat="43.75912" lon="7.16371">
        <ele>480.2</ele>
        <time>2013-03-23T12:52:24Z</time>
      </trkpt>
      <trkpt lat="43.75914" lon="7.16382">
        <ele>478.4</ele>
        <time>2013-03-23T12:52:28Z</time>
      </trkpt>
      <trkpt lat="43.75915" lon="7.16394">
        <ele>475.5</ele>
        <time>2013-03-23T12:52:33Z</time>
      </trkpt>
      <trkpt lat="43.75907" lon="7.16397">
        <ele>473.1</ele>
        <time>2013-03-23T12:52:37Z</time>
      </trkpt>
      <trkpt lat="43.75903" lon="7.16408">
        <ele>470.7</ele>
        <time>2013-03-23T12:52:42Z</time>
      </trkpt>
      <trkpt lat="43.759" lon="7.16418">
        <ele>469</ele>
        <time>2013-03-23T12:52:46Z</time>
      </trkpt>
      <trkpt lat="43.75898" lon="7.16428">
        <ele>465.2</ele>
        <time>2013-03-23T12:52:50Z</time>
      </trkpt>
      <trkpt lat="43.75895" lon="7.16438">
        <ele>462.1</ele>
        <time>2013-03-23T12:52:54Z</time>
      </trkpt>
      <trkpt lat="43.75888" lon="7.16442">
        <ele>458.9</ele>
        <time>2013-03-23T12:52:58Z</time>
      </trkpt>
      <trkpt lat="43.7588" lon="7.16441">
        <ele>457.1</ele>
        <time>2013-03-23T12:53:00Z</time>
      </trkpt>
      <trkpt lat="43.75877" lon="7.16451">
        <ele>455.2</ele>
        <time>2013-03-23T12:59:42Z</time>
      </trkpt>
      <trkpt lat="43.75879" lon="7.16454">
        <ele>455.4</ele>
        <time>2013-03-23T12:59:43Z</time>
      </trkpt>
      <trkpt lat="43.75882" lon="7.16466">
        <ele>454.5</ele>
        <time>2013-03-23T12:59:45Z</time>
      </trkpt>
      <trkpt lat="43.75882" lon="7.16474">
        <ele>453.6</ele>
        <time>2013-03-23T12:59:46Z</time>
      </trkpt>
      <trkpt lat="43.75881" lon="7.16483">
        <ele>453</ele>
        <time>2013-03-23T12:59:47Z</time>
      </trkpt>
      <trkpt lat="43.7588" lon="7.16493">
        <ele>451</ele>
        <time>2013-03-23T12:59:48Z</time>
      </trkpt>
      <trkpt lat="43.75878" lon="7.16503">
        <ele>449.5</ele>
        <time>2013-03-23T12:59:49Z</time>
      </trkpt>
      <trkpt lat="43.75876" lon="7.16513">
        <ele>448.4</ele>
        <time>2013-03-23T12:59:50Z</time>
      </trkpt>
      <trkpt lat="43.75874" lon="7.16523">
        <ele>446.2</ele>
        <time>2013-03-23T12:59:51Z</time>
      </trkpt>
      <trkpt lat="43.75873" lon="7.16533">
        <ele>444.5</ele>
        <time>2013-03-23T12:59:52Z</time>
      </trkpt>
      <trkpt lat="43.75872" lon="7.16542">
        <ele>443.3</ele>
        <time>2013-03-23T12:59:53Z</time>
      </trkpt>
      <trkpt lat="43.75871" lon="7.16553">
        <ele>442.3</ele>
        <time>2013-03-23T12:59:54Z</time>
      </trkpt>
      <trkpt lat="43.7587" lon="7.16563">
        <ele>440.2</ele>
        <time>2013-03-23T12:59:55Z</time>
      </trkpt>
      <trkpt lat="43.75869" lon="7.16574">
        <ele>438.7</ele>
        <time>2013-03-23T12:59:56Z</time>
      </trkpt>
      <trkpt lat="43.75867" lon="7.16584">
        <ele>437.5</ele>
        <time>2013-03-23T12:59:57Z</time>
      </trkpt>
      <trkpt lat="43.75865" lon="7.16592">
        <ele>435.2</ele>
        <time>2013-03-23T12:59:58Z</time>
      </trkpt>
      <trkpt lat="43.75862" lon="7.166">
        <ele>433.4</ele>
        <time>2013-03-23T12:59:59Z</time>
      </trkpt>
      <trkpt lat="43.75857" lon="7.16611">
        <ele>430.4</ele>
        <time>2013-03-23T13:00:01Z</time>
      </trkpt>
      <trkpt lat="43.75862" lon="7.16621">
        <ele>422.5</ele>
        <time>2013-03-23T13:00:09Z</time>
      </trkpt>
      <trkpt lat="43.7587" lon="7.16622">
        <ele>422.2</ele>
        <time>2013-03-23T13:00:14Z</time>
      </trkpt>
      <trkpt lat="43.75878" lon="7.16621">
        <ele>422.1</ele>
        <time>2013-03-23T13:00:18Z</time>
      </trkpt>
      <trkpt lat="43.75886" lon="7.16621">
        <ele>422.3</ele>
        <time>2013-03-23T13:00:23Z</time>
      </trkpt>
      <trkpt lat="43.75895" lon="7.16621">
        <ele>422.5</ele>
        <time>2013-03-23T13:00:28Z</time>
      </trkpt>
      <trkpt lat="43.75904" lon="7.16623">
        <ele>422.2</ele>
        <time>2013-03-23T13:00:34Z</time>
      </trkpt>
      <trkpt lat="43.75912" lon="7.16625">
        <ele>422.2</ele>
        <time>2013-03-23T13:00:39Z</time>
      </trkpt>
      <trkpt lat="43.75919" lon="7.16628">
        <ele>422.4</ele>
        <time>2013-03-23T13:00:43Z</time>
      </trkpt>
      <trkpt lat="43.75921" lon="7.16629">
        <ele>422.4</ele>
        <time>2013-03-23T13:00:44Z</time>
      </trkpt>
      <trkpt lat="43.75933" lon="7.16639">
        <ele>423</ele>
        <time>2013-03-23T13:00:50Z</time>
      </trkpt>
      <trkpt lat="43.75939" lon="7.16645">
        <ele>423.4</ele>
        <time>2013-03-23T13:00:53Z</time>
      </trkpt>
      <trkpt lat="43.75946" lon="7.16652">
        <ele>423.1</ele>
        <time>2013-03-23T13:00:56Z</time>
      </trkpt>
      <trkpt lat="43.7595" lon="7.16658">
        <ele>423.1</ele>
        <time>2013-03-23T13:00:58Z</time>
      </trkpt>
      <trkpt lat="43.75955" lon="7.16664">
        <ele>423.2</ele>
        <time>2013-03-23T13:01:00Z</time>
      </trkpt>
      <trkpt lat="43.7596" lon="7.16671">
        <ele>423.4</ele>
        <time>2013-03-23T13:01:02Z</time>
      </trkpt>
      <trkpt lat="43.75965" lon="7.16679">
        <ele>423.5</ele>
        <time>2013-03-23T13:01:04Z</time>
      </trkpt>
      <trkpt lat="43.75969" lon="7.16687">
        <ele>423.6</ele>
        <time>2013-03-23T13:01:06Z</time>
      </trkpt>
      <trkpt lat="43.75973" lon="7.16696">
        <ele>423.8</ele>
        <time>2013-03-23T13:01:08Z</time>
      </trkpt>
      <trkpt lat="43.75976" lon="7.16704">
        <ele>423.9</ele>
        <time>2013-03-23T13:01:10Z</time>
      </trkpt>
      <trkpt lat="43.75979" lon="7.16713">
        <ele>424</ele>
        <time>2013-03-23T13:01:12Z</time>
      </trkpt>
      <trkpt lat="43.75983" lon="7.1672">
        <ele>424.4</ele>
        <time>2013-03-23T13:01:14Z</time>
      </trkpt>
      <trkpt lat="43.75983" lon="7.16733">
        <ele>424.6</ele>
        <time>2013-03-23T13:01:22Z</time>
      </trkpt>
      <trkpt lat="43.75974" lon="7.16736">
        <ele>418.9</ele>
        <time>2013-03-23T13:01:33Z</time>
      </trkpt>
      <trkpt lat="43.75969" lon="7.16726">
        <ele>415.9</ele>
        <time>2013-03-23T13:01:38Z</time>
      </trkpt>
      <trkpt lat="43.75961" lon="7.16722">
        <ele>412.8</ele>
        <time>2013-03-23T13:01:51Z</time>
      </trkpt>
      <trkpt lat="43.7596" lon="7.16723">
        <ele>412.9</ele>
        <time>2013-03-23T13:01:52Z</time>
      </trkpt>
      <trkpt lat="43.75949" lon="7.16739">
        <ele>409</ele>
        <time>2013-03-23T13:02:04Z</time>
      </trkpt>
      <trkpt lat="43.75943" lon="7.16747">
        <ele>407.7</ele>
        <time>2013-03-23T13:02:06Z</time>
      </trkpt>
      <trkpt lat="43.7594" lon="7.16757">
        <ele>407</ele>
        <time>2013-03-23T13:02:08Z</time>
      </trkpt>
      <trkpt lat="43.75942" lon="7.16766">
        <ele>405.2</ele>
        <time>2013-03-23T13:02:10Z</time>
      </trkpt>
      <trkpt lat="43.75946" lon="7.16775">
        <ele>404</ele>
        <time>2013-03-23T13:02:12Z</time>
      </trkpt>
      <trkpt lat="43.75952" lon="7.16783">
        <ele>402.9</ele>
        <time>2013-03-23T13:02:15Z</time>
      </trkpt>
      <trkpt lat="43.75955" lon="7.16792">
        <ele>403.2</ele>
        <time>2013-03-23T13:02:19Z</time>
      </trkpt>
      <trkpt lat="43.75958" lon="7.16801">
        <ele>404.1</ele>
        <time>2013-03-23T13:02:22Z</time>
      </trkpt>
      <trkpt lat="43.75961" lon="7.16812">
        <ele>404</ele>
        <time>2013-03-23T13:02:27Z</time>
      </trkpt>
      <trkpt lat="43.75964" lon="7.16822">
        <ele>401.2</ele>
        <time>2013-03-23T13:02:35Z</time>
      </trkpt>
      <trkpt lat="43.75968" lon="7.16832">
        <ele>399.3</ele>
        <time>2013-03-23T13:02:40Z</time>
      </trkpt>
      <trkpt lat="43.75973" lon="7.16841">
        <ele>397.2</ele>
        <time>2013-03-23T13:02:52Z</time>
      </trkpt>
      <trkpt lat="43.75973" lon="7.16842">
        <ele>397.2</ele>
        <time>2013-03-23T13:02:53Z</time>
      </trkpt>
      <trkpt lat="43.75974" lon="7.16864">
        <ele>393</ele>
        <time>2013-03-23T13:03:08Z</time>
      </trkpt>
      <trkpt lat="43.75973" lon="7.16876">
        <ele>390.8</ele>
        <time>2013-03-23T13:03:15Z</time>
      </trkpt>
      <trkpt lat="43.7597" lon="7.16885">
        <ele>389.4</ele>
        <time>2013-03-23T13:03:20Z</time>
      </trkpt>
      <trkpt lat="43.7597" lon="7.16895">
        <ele>388.4</ele>
        <time>2013-03-23T13:03:23Z</time>
      </trkpt>
      <trkpt lat="43.75972" lon="7.16903">
        <ele>387.5</ele>
        <time>2013-03-23T13:03:25Z</time>
      </trkpt>
      <trkpt lat="43.75975" lon="7.16912">
        <ele>386.8</ele>
        <time>2013-03-23T13:03:27Z</time>
      </trkpt>
      <trkpt lat="43.75977" lon="7.1692">
        <ele>385.4</ele>
        <time>2013-03-23T13:03:29Z</time>
      </trkpt>
      <trkpt lat="43.7598" lon="7.1693">
        <ele>384.7</ele>
        <time>2013-03-23T13:03:31Z</time>
      </trkpt>
      <trkpt lat="43.75983" lon="7.16941">
        <ele>384.1</ele>
        <time>2013-03-23T13:03:33Z</time>
      </trkpt>
      <trkpt lat="43.75986" lon="7.16952">
        <ele>383.1</ele>
        <time>2013-03-23T13:03:36Z</time>
      </trkpt>
      <trkpt lat="43.75989" lon="7.16961">
        <ele>381.8</ele>
        <time>2013-03-23T13:03:40Z</time>
      </trkpt>
      <trkpt lat="43.75991" lon="7.16971">
        <ele>380.2</ele>
        <time>2013-03-23T13:03:44Z</time>
      </trkpt>
      <trkpt lat="43.7599" lon="7.16981">
        <ele>379.5</ele>
        <time>2013-03-23T13:03:47Z</time>
      </trkpt>
      <trkpt lat="43.7599" lon="7.1699">
        <ele>378.7</ele>
        <time>2013-03-23T13:03:49Z</time>
      </trkpt>
      <trkpt lat="43.75991" lon="7.17002">
        <ele>378</ele>
        <time>2013-03-23T13:03:51Z</time>
      </trkpt>
      <trkpt lat="43.75991" lon="7.17012">
        <ele>377.4</ele>
        <time>2013-03-23T13:03:53Z</time>
      </trkpt>
      <trkpt lat="43.75991" lon="7.17018">
        <ele>377</ele>
        <time>2013-03-23T13:03:54Z</time>
      </trkpt>
      <trkpt lat="43.75992" lon="7.17036">
        <ele>375.9</ele>
        <time>2013-03-23T13:03:57Z</time>
      </trkpt>
      <trkpt lat="43.75992" lon="7.17047">
        <ele>375.1</ele>
        <time>2013-03-23T13:03:59Z</time>
      </trkpt>
      <trkpt lat="43.75995" lon="7.17059">
        <ele>374.4</ele>
        <time>2013-03-23T13:04:01Z</time>
      </trkpt>
      <trkpt lat="43.75996" lon="7.1707">
        <ele>374</ele>
        <time>2013-03-23T13:04:03Z</time>
      </trkpt>
      <trkpt lat="43.75996" lon="7.17076">
        <ele>373.4</ele>
        <time>2013-03-23T13:04:04Z</time>
      </trkpt>
      <trkpt lat="43.75994" lon="7.17083">
        <ele>373</ele>
        <time>2013-03-23T13:04:05Z</time>
      </trkpt>
      <trkpt lat="43.75992" lon="7.1709">
        <ele>372.7</ele>
        <time>2013-03-23T13:04:06Z</time>
      </trkpt>
      <trkpt lat="43.7599" lon="7.17099">
        <ele>372.1</ele>
        <time>2013-03-23T13:04:07Z</time>
      </trkpt>
      <trkpt lat="43.75988" lon="7.17107">
        <ele>371.6</ele>
        <time>2013-03-23T13:04:08Z</time>
      </trkpt>
      <trkpt lat="43.75987" lon="7.17117">
        <ele>371.3</ele>
        <time>2013-03-23T13:04:09Z</time>
      </trkpt>
      <trkpt lat="43.75985" lon="7.17126">
        <ele>370.1</ele>
        <time>2013-03-23T13:04:10Z</time>
      </trkpt>
      <trkpt lat="43.75983" lon="7.17135">
        <ele>369.3</ele>
        <time>2013-03-23T13:04:11Z</time>
      </trkpt>
      <trkpt lat="43.75981" lon="7.17143">
        <ele>368.6</ele>
        <time>2013-03-23T13:04:12Z</time>
      </trkpt>
      <trkpt lat="43.75977" lon="7.17152">
        <ele>366.7</ele>
        <time>2013-03-23T13:04:13Z</time>
      </trkpt>
      <trkpt lat="43.75973" lon="7.17162">
        <ele>365.3</ele>
        <time>2013-03-23T13:04:14Z</time>
      </trkpt>
      <trkpt lat="43.75969" lon="7.17173">
        <ele>364.2</ele>
        <time>2013-03-23T13:04:15Z</time>
      </trkpt>
      <trkpt lat="43.75964" lon="7.17185">
        <ele>363.3</ele>
        <time>2013-03-23T13:04:16Z</time>
      </trkpt>
      <trkpt lat="43.75961" lon="7.17197">
        <ele>362.6</ele>
        <time>2013-03-23T13:04:17Z</time>
      </trkpt>
      <trkpt lat="43.75956" lon="7.17208">
        <ele>362.1</ele>
        <time>2013-03-23T13:04:18Z</time>
      </trkpt>
      <trkpt lat="43.75953" lon="7.17219">
        <ele>361.8</ele>
        <time>2013-03-23T13:04:19Z</time>
      </trkpt>
      <trkpt lat="43.75951" lon="7.17229">
        <ele>360.2</ele>
        <time>2013-03-23T13:04:20Z</time>
      </trkpt>
      <trkpt lat="43.75951" lon="7.1724">
        <ele>359</ele>
        <time>2013-03-23T13:04:21Z</time>
      </trkpt>
      <trkpt lat="43.75952" lon="7.17251">
        <ele>358.2</ele>
        <time>2013-03-23T13:04:22Z</time>
      </trkpt>
      <trkpt lat="43.75952" lon="7.17262">
        <ele>356.6</ele>
        <time>2013-03-23T13:04:23Z</time>
      </trkpt>
      <trkpt lat="43.75951" lon="7.17273">
        <ele>355.5</ele>
        <time>2013-03-23T13:04:24Z</time>
      </trkpt>
      <trkpt lat="43.75949" lon="7.17285">
        <ele>354.6</ele>
        <time>2013-03-23T13:04:25Z</time>
      </trkpt>
      <trkpt lat="43.75946" lon="7.17299">
        <ele>353.4</ele>
        <time>2013-03-23T13:04:26Z</time>
      </trkpt>
      <trkpt lat="43.75943" lon="7.17313">
        <ele>352.4</ele>
        <time>2013-03-23T13:04:27Z</time>
      </trkpt>
      <trkpt lat="43.7594" lon="7.17327">
        <ele>351.7</ele>
        <time>2013-03-23T13:04:28Z</time>
      </trkpt>
      <trkpt lat="43.75937" lon="7.17338">
        <ele>349.1</ele>
        <time>2013-03-23T13:04:29Z</time>
      </trkpt>
      <trkpt lat="43.75935" lon="7.17346">
        <ele>347.2</ele>
        <time>2013-03-23T13:04:30Z</time>
      </trkpt>
      <trkpt lat="43.75933" lon="7.17353">
        <ele>345.8</ele>
        <time>2013-03-23T13:04:31Z</time>
      </trkpt>
      <trkpt lat="43.75929" lon="7.17357">
        <ele>343</ele>
        <time>2013-03-23T13:04:32Z</time>
      </trkpt>
      <trkpt lat="43.75925" lon="7.1736">
        <ele>341</ele>
        <time>2013-03-23T13:04:33Z</time>
      </trkpt>
      <trkpt lat="43.7592" lon="7.17363">
        <ele>339.4</ele>
        <time>2013-03-23T13:04:34Z</time>
      </trkpt>
      <trkpt lat="43.75916" lon="7.17368">
        <ele>338.3</ele>
        <time>2013-03-23T13:04:35Z</time>
      </trkpt>
      <trkpt lat="43.75914" lon="7.17375">
        <ele>335.9</ele>
        <time>2013-03-23T13:04:36Z</time>
      </trkpt>
      <trkpt lat="43.75916" lon="7.17382">
        <ele>334</ele>
        <time>2013-03-23T13:04:37Z</time>
      </trkpt>
      <trkpt lat="43.75919" lon="7.17387">
        <ele>332.7</ele>
        <time>2013-03-23T13:04:38Z</time>
      </trkpt>
      <trkpt lat="43.75927" lon="7.17391">
        <ele>330.4</ele>
        <time>2013-03-23T13:04:40Z</time>
      </trkpt>
      <trkpt lat="43.75936" lon="7.17389">
        <ele>325.6</ele>
        <time>2013-03-23T13:04:49Z</time>
      </trkpt>
      <trkpt lat="43.75945" lon="7.17387">
        <ele>325.2</ele>
        <time>2013-03-23T13:06:27Z</time>
      </trkpt>
      <trkpt lat="43.75945" lon="7.17388">
        <ele>325</ele>
        <time>2013-03-23T13:06:28Z</time>
      </trkpt>
      <trkpt lat="43.7594" lon="7.17406">
        <ele>324.1</ele>
        <time>2013-03-23T13:06:32Z</time>
      </trkpt>
      <trkpt lat="43.75935" lon="7.17415">
        <ele>323.2</ele>
        <time>2013-03-23T13:06:35Z</time>
      </trkpt>
      <trkpt lat="43.75935" lon="7.17427">
        <ele>318.4</ele>
        <time>2013-03-23T13:06:42Z</time>
      </trkpt>
      <trkpt lat="43.7593" lon="7.17437">
        <ele>314</ele>
        <time>2013-03-23T13:06:51Z</time>
      </trkpt>
      <trkpt lat="43.75929" lon="7.17447">
        <ele>312.9</ele>
        <time>2013-03-23T13:06:53Z</time>
      </trkpt>
      <trkpt lat="43.75925" lon="7.17458">
        <ele>310.3</ele>
        <time>2013-03-23T13:06:56Z</time>
      </trkpt>
      <trkpt lat="43.75919" lon="7.17459">
        <ele>308.4</ele>
        <time>2013-03-23T13:06:58Z</time>
      </trkpt>
      <trkpt lat="43.75915" lon="7.17456">
        <ele>307.3</ele>
        <time>2013-03-23T13:06:59Z</time>
      </trkpt>
      <trkpt lat="43.75911" lon="7.17453">
        <ele>306.4</ele>
        <time>2013-03-23T13:07:00Z</time>
      </trkpt>
      <trkpt lat="43.75906" lon="7.17449">
        <ele>305.8</ele>
        <time>2013-03-23T13:07:01Z</time>
      </trkpt>
      <trkpt lat="43.75899" lon="7.17444">
        <ele>302.9</ele>
        <time>2013-03-23T13:07:03Z</time>
      </trkpt>
      <trkpt lat="43.759" lon="7.17452">
        <ele>300.5</ele>
        <time>2013-03-23T13:07:09Z</time>
      </trkpt>
      <trkpt lat="43.75903" lon="7.17457">
        <ele>300.3</ele>
        <time>2013-03-23T13:07:10Z</time>
      </trkpt>
      <trkpt lat="43.75905" lon="7.17462">
        <ele>300.2</ele>
        <time>2013-03-23T13:07:11Z</time>
      </trkpt>
      <trkpt lat="43.75906" lon="7.17469">
        <ele>299.5</ele>
        <time>2013-03-23T13:07:12Z</time>
      </trkpt>
      <trkpt lat="43.75907" lon="7.17476">
        <ele>298.9</ele>
        <time>2013-03-23T13:07:13Z</time>
      </trkpt>
      <trkpt lat="43.75908" lon="7.17482">
        <ele>298.5</ele>
        <time>2013-03-23T13:07:14Z</time>
      </trkpt>
      <trkpt lat="43.7591" lon="7.17488">
        <ele>297.7</ele>
        <time>2013-03-23T13:07:15Z</time>
      </trkpt>
      <trkpt lat="43.75913" lon="7.17495">
        <ele>297</ele>
        <time>2013-03-23T13:07:16Z</time>
      </trkpt>
      <trkpt lat="43.75916" lon="7.17501">
        <ele>296.5</ele>
        <time>2013-03-23T13:07:17Z</time>
      </trkpt>
      <trkpt lat="43.75919" lon="7.1751">
        <ele>294.8</ele>
        <time>2013-03-23T13:07:19Z</time>
      </trkpt>
      <trkpt lat="43.75917" lon="7.175">
        <ele>292.5</ele>
        <time>2013-03-23T13:07:33Z</time>
      </trkpt>
      <trkpt lat="43.75917" lon="7.17497">
        <ele>292.8</ele>
        <time>2013-03-23T13:07:34Z</time>
      </trkpt>
      <trkpt lat="43.75913" lon="7.17497">
        <ele>295.6</ele>
        <time>2013-03-23T13:07:48Z</time>
      </trkpt>
      <trkpt lat="43.75917" lon="7.17509">
        <ele>295.3</ele>
        <time>2013-03-23T13:07:50Z</time>
      </trkpt>
      <trkpt lat="43.75921" lon="7.17518">
        <ele>294.8</ele>
        <time>2013-03-23T13:07:52Z</time>
      </trkpt>
      <trkpt lat="43.75926" lon="7.17528">
        <ele>293.5</ele>
        <time>2013-03-23T13:07:54Z</time>
      </trkpt>
      <trkpt lat="43.7593" lon="7.17534">
        <ele>293.1</ele>
        <time>2013-03-23T13:07:55Z</time>
      </trkpt>
      <trkpt lat="43.75934" lon="7.1754">
        <ele>292.8</ele>
        <time>2013-03-23T13:07:56Z</time>
      </trkpt>
      <trkpt lat="43.75939" lon="7.17544">
        <ele>292.3</ele>
        <time>2013-03-23T13:07:57Z</time>
      </trkpt>
      <trkpt lat="43.75943" lon="7.17549">
        <ele>291.9</ele>
        <time>2013-03-23T13:07:58Z</time>
      </trkpt>
      <trkpt lat="43.75947" lon="7.17555">
        <ele>291.6</ele>
        <time>2013-03-23T13:07:59Z</time>
      </trkpt>
      <trkpt lat="43.75952" lon="7.17561">
        <ele>291.4</ele>
        <time>2013-03-23T13:08:00Z</time>
      </trkpt>
      <trkpt lat="43.75958" lon="7.17569">
        <ele>289.8</ele>
        <time>2013-03-23T13:08:03Z</time>
      </trkpt>
      <trkpt lat="43.75964" lon="7.17571">
        <ele>287.7</ele>
        <time>2013-03-23T13:08:06Z</time>
      </trkpt>
      <trkpt lat="43.75971" lon="7.17575">
        <ele>287.1</ele>
        <time>2013-03-23T13:08:08Z</time>
      </trkpt>
      <trkpt lat="43.75975" lon="7.17577">
        <ele>286.7</ele>
        <time>2013-03-23T13:08:09Z</time>
      </trkpt>
      <trkpt lat="43.7598" lon="7.17579">
        <ele>286.4</ele>
        <time>2013-03-23T13:08:10Z</time>
      </trkpt>
      <trkpt lat="43.75988" lon="7.17583">
        <ele>286</ele>
        <time>2013-03-23T13:08:12Z</time>
      </trkpt>
      <trkpt lat="43.75995" lon="7.1759">
        <ele>285.6</ele>
        <time>2013-03-23T13:08:18Z</time>
      </trkpt>
      <trkpt lat="43.75997" lon="7.17601">
        <ele>282.9</ele>
        <time>2013-03-23T13:09:24Z</time>
      </trkpt>
      <trkpt lat="43.75999" lon="7.17605">
        <ele>283</ele>
        <time>2013-03-23T13:09:25Z</time>
      </trkpt>
      <trkpt lat="43.7601" lon="7.1761">
        <ele>282.9</ele>
        <time>2013-03-23T13:09:28Z</time>
      </trkpt>
      <trkpt lat="43.76017" lon="7.17609">
        <ele>282.3</ele>
        <time>2013-03-23T13:09:30Z</time>
      </trkpt>
      <trkpt lat="43.76024" lon="7.17606">
        <ele>282.5</ele>
        <time>2013-03-23T13:09:32Z</time>
      </trkpt>
      <trkpt lat="43.7603" lon="7.17601">
        <ele>283</ele>
        <time>2013-03-23T13:09:34Z</time>
      </trkpt>
      <trkpt lat="43.76036" lon="7.17594">
        <ele>283.3</ele>
        <time>2013-03-23T13:09:36Z</time>
      </trkpt>
      <trkpt lat="43.76043" lon="7.17588">
        <ele>283.4</ele>
        <time>2013-03-23T13:09:38Z</time>
      </trkpt>
      <trkpt lat="43.76049" lon="7.17579">
        <ele>282.8</ele>
        <time>2013-03-23T13:09:40Z</time>
      </trkpt>
      <trkpt lat="43.76052" lon="7.17574">
        <ele>282.6</ele>
        <time>2013-03-23T13:09:41Z</time>
      </trkpt>
      <trkpt lat="43.76055" lon="7.17569">
        <ele>282.4</ele>
        <time>2013-03-23T13:09:42Z</time>
      </trkpt>
      <trkpt lat="43.76057" lon="7.17564">
        <ele>282.4</ele>
        <time>2013-03-23T13:09:43Z</time>
      </trkpt>
      <trkpt lat="43.7606" lon="7.17558">
        <ele>282.3</ele>
        <time>2013-03-23T13:09:44Z</time>
      </trkpt>
      <trkpt lat="43.76064" lon="7.17552">
        <ele>281.8</ele>
        <time>2013-03-23T13:09:45Z</time>
      </trkpt>
      <trkpt lat="43.76067" lon="7.17546">
        <ele>281.4</ele>
        <time>2013-03-23T13:09:46Z</time>
      </trkpt>
      <trkpt lat="43.76071" lon="7.1754">
        <ele>281.2</ele>
        <time>2013-03-23T13:09:47Z</time>
      </trkpt>
      <trkpt lat="43.76075" lon="7.17533">
        <ele>281</ele>
        <time>2013-03-23T13:09:48Z</time>
      </trkpt>
      <trkpt lat="43.76078" lon="7.17526">
        <ele>280.9</ele>
        <time>2013-03-23T13:09:49Z</time>
      </trkpt>
      <trkpt lat="43.76082" lon="7.17519">
        <ele>280.8</ele>
        <time>2013-03-23T13:09:50Z</time>
      </trkpt>
      <trkpt lat="43.76085" lon="7.17513">
        <ele>280.7</ele>
        <time>2013-03-23T13:09:51Z</time>
      </trkpt>
      <trkpt lat="43.76091" lon="7.17508">
        <ele>280.3</ele>
        <time>2013-03-23T13:09:52Z</time>
      </trkpt>
      <trkpt lat="43.76097" lon="7.17504">
        <ele>280</ele>
        <time>2013-03-23T13:09:53Z</time>
      </trkpt>
      <trkpt lat="43.76102" lon="7.17503">
        <ele>279.8</ele>
        <time>2013-03-23T13:09:54Z</time>
      </trkpt>
      <trkpt lat="43.76108" lon="7.17503">
        <ele>279</ele>
        <time>2013-03-23T13:09:55Z</time>
      </trkpt>
      <trkpt lat="43.76112" lon="7.17503">
        <ele>278.5</ele>
        <time>2013-03-23T13:09:56Z</time>
      </trkpt>
      <trkpt lat="43.76117" lon="7.17503">
        <ele>278.1</ele>
        <time>2013-03-23T13:09:57Z</time>
      </trkpt>
      <trkpt lat="43.76122" lon="7.17501">
        <ele>277.4</ele>
        <time>2013-03-23T13:09:58Z</time>
      </trkpt>
      <trkpt lat="43.76126" lon="7.175">
        <ele>277</ele>
        <time>2013-03-23T13:09:59Z</time>
      </trkpt>
      <trkpt lat="43.76135" lon="7.17502">
        <ele>276.2</ele>
        <time>2013-03-23T13:10:01Z</time>
      </trkpt>
      <trkpt lat="43.7614" lon="7.17503">
        <ele>275.8</ele>
        <time>2013-03-23T13:10:02Z</time>
      </trkpt>
      <trkpt lat="43.76147" lon="7.175">
        <ele>275.2</ele>
        <time>2013-03-23T13:10:04Z</time>
      </trkpt>
      <trkpt lat="43.76155" lon="7.17495">
        <ele>274.5</ele>
        <time>2013-03-23T13:10:09Z</time>
      </trkpt>
      <trkpt lat="43.76164" lon="7.17494">
        <ele>274.4</ele>
        <time>2013-03-23T13:10:12Z</time>
      </trkpt>
      <trkpt lat="43.76172" lon="7.17493">
        <ele>274.5</ele>
        <time>2013-03-23T13:10:14Z</time>
      </trkpt>
      <trkpt lat="43.76177" lon="7.17493">
        <ele>274.6</ele>
        <time>2013-03-23T13:10:15Z</time>
      </trkpt>
      <trkpt lat="43.76182" lon="7.17493">
        <ele>274.6</ele>
        <time>2013-03-23T13:10:16Z</time>
      </trkpt>
      <trkpt lat="43.76188" lon="7.17492">
        <ele>275.3</ele>
        <time>2013-03-23T13:10:17Z</time>
      </trkpt>
      <trkpt lat="43.76194" lon="7.17491">
        <ele>275.7</ele>
        <time>2013-03-23T13:10:18Z</time>
      </trkpt>
      <trkpt lat="43.76199" lon="7.17491">
        <ele>276.1</ele>
        <time>2013-03-23T13:10:19Z</time>
      </trkpt>
      <trkpt lat="43.76205" lon="7.17491">
        <ele>276.2</ele>
        <time>2013-03-23T13:10:20Z</time>
      </trkpt>
      <trkpt lat="43.7621" lon="7.1749">
        <ele>276.2</ele>
        <time>2013-03-23T13:10:21Z</time>
      </trkpt>
      <trkpt lat="43.76219" lon="7.17491">
        <ele>276.3</ele>
        <time>2013-03-23T13:10:23Z</time>
      </trkpt>
      <trkpt lat="43.76225" lon="7.17496">
        <ele>276.8</ele>
        <time>2013-03-23T13:10:25Z</time>
      </trkpt>
      <trkpt lat="43.76226" lon="7.17501">
        <ele>277</ele>
        <time>2013-03-23T13:10:26Z</time>
      </trkpt>
      <trkpt lat="43.76221" lon="7.17508">
        <ele>276.5</ele>
        <time>2013-03-23T13:10:28Z</time>
      </trkpt>
      <trkpt lat="43.76216" lon="7.1751">
        <ele>276.4</ele>
        <time>2013-03-23T13:10:29Z</time>
      </trkpt>
      <trkpt lat="43.76211" lon="7.17512">
        <ele>276.2</ele>
        <time>2013-03-23T13:10:30Z</time>
      </trkpt>
      <trkpt lat="43.76202" lon="7.17512">
        <ele>272.8</ele>
        <time>2013-03-23T13:10:50Z</time>
      </trkpt>
    </trkseg>
  </trk>
</gpx>